<?xml version="1.0" encoding="UTF-8" standalone="no" ?>
<gpx xmlns="http://www.topografix.com/GPX/1/1" xmlns:xsi="http://www.w3.org/2001/XMLSchema-instance" xsi:schemaLocation="http://www.topografix.com/GPX/1/1 http://www.topografix.com/GPX/1/1/gpx.xsd" version="1.1" creator="VisuGPX - https://www.visugpx.com">
  <metadata>
    <name>Carnoules 4 et R septembre 2017</name>
    <desc><![CDATA[Rando en boucle au départ du camping Bérard : Route Marc Robert, Notre Dame des Anges, Carnoule. 
2 jours.]]></desc>
  </metadata>
  <trk>
    <name><![CDATA[ACTIVE LOG- 04 SEP 2017 08-36-F-MNT]]></name>
    <trkseg>
      <trkpt lat="43.2918" lon="6.49332">
        <ele>154</ele>
        <time>2017-09-04T06:36:31Z</time>
      </trkpt>
      <trkpt lat="43.29195" lon="6.49383">
        <ele>154</ele>
        <time>2017-09-04T06:39:23Z</time>
      </trkpt>
      <trkpt lat="43.29231" lon="6.4937">
        <ele>162</ele>
        <time>2017-09-04T06:39:47Z</time>
      </trkpt>
      <trkpt lat="43.29245" lon="6.49319">
        <ele>164</ele>
        <time>2017-09-04T06:40:09Z</time>
      </trkpt>
      <trkpt lat="43.29243" lon="6.49261">
        <ele>167</ele>
        <time>2017-09-04T06:40:33Z</time>
      </trkpt>
      <trkpt lat="43.29214" lon="6.49227">
        <ele>169</ele>
        <time>2017-09-04T06:41:00Z</time>
      </trkpt>
      <trkpt lat="43.29193" lon="6.49218">
        <ele>171</ele>
        <time>2017-09-04T06:42:31Z</time>
      </trkpt>
      <trkpt lat="43.29217" lon="6.49197">
        <ele>174</ele>
        <time>2017-09-04T06:42:51Z</time>
      </trkpt>
      <trkpt lat="43.293" lon="6.49185">
        <ele>180</ele>
        <time>2017-09-04T06:43:31Z</time>
      </trkpt>
      <trkpt lat="43.29342" lon="6.49213">
        <ele>184</ele>
        <time>2017-09-04T06:43:51Z</time>
      </trkpt>
      <trkpt lat="43.29383" lon="6.49219">
        <ele>184</ele>
        <time>2017-09-04T06:44:10Z</time>
      </trkpt>
      <trkpt lat="43.29451" lon="6.49163">
        <ele>185</ele>
        <time>2017-09-04T06:44:47Z</time>
      </trkpt>
      <trkpt lat="43.29489" lon="6.49139">
        <ele>188</ele>
        <time>2017-09-04T06:45:06Z</time>
      </trkpt>
      <trkpt lat="43.29533" lon="6.49143">
        <ele>190</ele>
        <time>2017-09-04T06:45:26Z</time>
      </trkpt>
      <trkpt lat="43.29574" lon="6.49161">
        <ele>194</ele>
        <time>2017-09-04T06:45:47Z</time>
      </trkpt>
      <trkpt lat="43.29617" lon="6.49178">
        <ele>197</ele>
        <time>2017-09-04T06:46:07Z</time>
      </trkpt>
      <trkpt lat="43.29659" lon="6.49176">
        <ele>197</ele>
        <time>2017-09-04T06:46:58Z</time>
      </trkpt>
      <trkpt lat="43.29695" lon="6.49153">
        <ele>197</ele>
        <time>2017-09-04T06:47:14Z</time>
      </trkpt>
      <trkpt lat="43.29786" lon="6.49171">
        <ele>206</ele>
        <time>2017-09-04T06:48:00Z</time>
      </trkpt>
      <trkpt lat="43.29819" lon="6.49208">
        <ele>210</ele>
        <time>2017-09-04T06:48:21Z</time>
      </trkpt>
      <trkpt lat="43.29854" lon="6.49235">
        <ele>212</ele>
        <time>2017-09-04T06:48:41Z</time>
      </trkpt>
      <trkpt lat="43.29892" lon="6.49233">
        <ele>213</ele>
        <time>2017-09-04T06:49:01Z</time>
      </trkpt>
      <trkpt lat="43.29931" lon="6.49208">
        <ele>217</ele>
        <time>2017-09-04T06:49:21Z</time>
      </trkpt>
      <trkpt lat="43.29982" lon="6.49111">
        <ele>221</ele>
        <time>2017-09-04T06:49:59Z</time>
      </trkpt>
      <trkpt lat="43.30011" lon="6.49068">
        <ele>221</ele>
        <time>2017-09-04T06:50:17Z</time>
      </trkpt>
      <trkpt lat="43.30049" lon="6.49039">
        <ele>223</ele>
        <time>2017-09-04T06:50:33Z</time>
      </trkpt>
      <trkpt lat="43.30085" lon="6.49017">
        <ele>223</ele>
        <time>2017-09-04T06:50:48Z</time>
      </trkpt>
      <trkpt lat="43.30118" lon="6.48991">
        <ele>222</ele>
        <time>2017-09-04T06:51:05Z</time>
      </trkpt>
      <trkpt lat="43.30135" lon="6.48942">
        <ele>228</ele>
        <time>2017-09-04T06:51:21Z</time>
      </trkpt>
      <trkpt lat="43.30131" lon="6.48885">
        <ele>233</ele>
        <time>2017-09-04T06:51:37Z</time>
      </trkpt>
      <trkpt lat="43.30138" lon="6.48831">
        <ele>228</ele>
        <time>2017-09-04T06:51:53Z</time>
      </trkpt>
      <trkpt lat="43.30164" lon="6.48784">
        <ele>229</ele>
        <time>2017-09-04T06:52:11Z</time>
      </trkpt>
      <trkpt lat="43.30191" lon="6.48744">
        <ele>230</ele>
        <time>2017-09-04T06:52:28Z</time>
      </trkpt>
      <trkpt lat="43.30212" lon="6.48698">
        <ele>232</ele>
        <time>2017-09-04T06:52:44Z</time>
      </trkpt>
      <trkpt lat="43.30215" lon="6.4864">
        <ele>236</ele>
        <time>2017-09-04T06:53:01Z</time>
      </trkpt>
      <trkpt lat="43.30212" lon="6.48526">
        <ele>243</ele>
        <time>2017-09-04T06:53:34Z</time>
      </trkpt>
      <trkpt lat="43.30238" lon="6.48482">
        <ele>243</ele>
        <time>2017-09-04T06:53:50Z</time>
      </trkpt>
      <trkpt lat="43.30269" lon="6.48444">
        <ele>242</ele>
        <time>2017-09-04T06:54:05Z</time>
      </trkpt>
      <trkpt lat="43.30296" lon="6.48402">
        <ele>244</ele>
        <time>2017-09-04T06:54:23Z</time>
      </trkpt>
      <trkpt lat="43.30296" lon="6.48348">
        <ele>248</ele>
        <time>2017-09-04T06:54:40Z</time>
      </trkpt>
      <trkpt lat="43.30267" lon="6.4831">
        <ele>250</ele>
        <time>2017-09-04T06:54:57Z</time>
      </trkpt>
      <trkpt lat="43.30231" lon="6.4829">
        <ele>251</ele>
        <time>2017-09-04T06:55:14Z</time>
      </trkpt>
      <trkpt lat="43.30193" lon="6.48269">
        <ele>254</ele>
        <time>2017-09-04T06:55:32Z</time>
      </trkpt>
      <trkpt lat="43.30163" lon="6.48227">
        <ele>254</ele>
        <time>2017-09-04T06:55:53Z</time>
      </trkpt>
      <trkpt lat="43.30153" lon="6.48174">
        <ele>256</ele>
        <time>2017-09-04T06:56:12Z</time>
      </trkpt>
      <trkpt lat="43.30149" lon="6.4812">
        <ele>257</ele>
        <time>2017-09-04T06:56:31Z</time>
      </trkpt>
      <trkpt lat="43.30122" lon="6.48082">
        <ele>257</ele>
        <time>2017-09-04T06:56:49Z</time>
      </trkpt>
      <trkpt lat="43.3005" lon="6.48118">
        <ele>271</ele>
        <time>2017-09-04T06:59:17Z</time>
      </trkpt>
      <trkpt lat="43.30025" lon="6.48072">
        <ele>271</ele>
        <time>2017-09-04T06:59:42Z</time>
      </trkpt>
      <trkpt lat="43.30028" lon="6.48068">
        <ele>270</ele>
        <time>2017-09-04T07:00:25Z</time>
      </trkpt>
      <trkpt lat="43.30048" lon="6.48105">
        <ele>270</ele>
        <time>2017-09-04T07:00:39Z</time>
      </trkpt>
      <trkpt lat="43.30039" lon="6.48069">
        <ele>268</ele>
        <time>2017-09-04T07:01:36Z</time>
      </trkpt>
      <trkpt lat="43.3001" lon="6.48032">
        <ele>268</ele>
        <time>2017-09-04T07:01:59Z</time>
      </trkpt>
      <trkpt lat="43.29976" lon="6.48">
        <ele>271</ele>
        <time>2017-09-04T07:02:22Z</time>
      </trkpt>
      <trkpt lat="43.29932" lon="6.47983">
        <ele>276</ele>
        <time>2017-09-04T07:02:56Z</time>
      </trkpt>
      <trkpt lat="43.29893" lon="6.4796">
        <ele>280</ele>
        <time>2017-09-04T07:04:29Z</time>
      </trkpt>
      <trkpt lat="43.29859" lon="6.47931">
        <ele>286</ele>
        <time>2017-09-04T07:05:43Z</time>
      </trkpt>
      <trkpt lat="43.29816" lon="6.47831">
        <ele>288</ele>
        <time>2017-09-04T07:06:23Z</time>
      </trkpt>
      <trkpt lat="43.29802" lon="6.47787">
        <ele>290</ele>
        <time>2017-09-04T07:06:48Z</time>
      </trkpt>
      <trkpt lat="43.29813" lon="6.47728">
        <ele>293</ele>
        <time>2017-09-04T07:07:09Z</time>
      </trkpt>
      <trkpt lat="43.29823" lon="6.47668">
        <ele>295</ele>
        <time>2017-09-04T07:07:38Z</time>
      </trkpt>
      <trkpt lat="43.2982" lon="6.47603">
        <ele>298</ele>
        <time>2017-09-04T07:08:09Z</time>
      </trkpt>
      <trkpt lat="43.29814" lon="6.47548">
        <ele>302</ele>
        <time>2017-09-04T07:08:33Z</time>
      </trkpt>
      <trkpt lat="43.2982" lon="6.47494">
        <ele>305</ele>
        <time>2017-09-04T07:08:51Z</time>
      </trkpt>
      <trkpt lat="43.29837" lon="6.4744">
        <ele>308</ele>
        <time>2017-09-04T07:09:11Z</time>
      </trkpt>
      <trkpt lat="43.2985" lon="6.47386">
        <ele>313</ele>
        <time>2017-09-04T07:09:37Z</time>
      </trkpt>
      <trkpt lat="43.29878" lon="6.47331">
        <ele>319</ele>
        <time>2017-09-04T07:10:09Z</time>
      </trkpt>
      <trkpt lat="43.29913" lon="6.47338">
        <ele>316</ele>
        <time>2017-09-04T07:11:07Z</time>
      </trkpt>
      <trkpt lat="43.29983" lon="6.47421">
        <ele>310</ele>
        <time>2017-09-04T07:11:28Z</time>
      </trkpt>
      <trkpt lat="43.30027" lon="6.47409">
        <ele>314</ele>
        <time>2017-09-04T07:11:38Z</time>
      </trkpt>
      <trkpt lat="43.30073" lon="6.47413">
        <ele>315</ele>
        <time>2017-09-04T07:11:56Z</time>
      </trkpt>
      <trkpt lat="43.3012" lon="6.47433">
        <ele>313</ele>
        <time>2017-09-04T07:12:11Z</time>
      </trkpt>
      <trkpt lat="43.30164" lon="6.47443">
        <ele>311</ele>
        <time>2017-09-04T07:12:23Z</time>
      </trkpt>
      <trkpt lat="43.30203" lon="6.4744">
        <ele>310</ele>
        <time>2017-09-04T07:12:31Z</time>
      </trkpt>
      <trkpt lat="43.30251" lon="6.47433">
        <ele>308</ele>
        <time>2017-09-04T07:12:45Z</time>
      </trkpt>
      <trkpt lat="43.30295" lon="6.47427">
        <ele>306</ele>
        <time>2017-09-04T07:13:04Z</time>
      </trkpt>
      <trkpt lat="43.30341" lon="6.47413">
        <ele>305</ele>
        <time>2017-09-04T07:13:13Z</time>
      </trkpt>
      <trkpt lat="43.30383" lon="6.47393">
        <ele>303</ele>
        <time>2017-09-04T07:13:20Z</time>
      </trkpt>
      <trkpt lat="43.30412" lon="6.47354">
        <ele>302</ele>
        <time>2017-09-04T07:13:28Z</time>
      </trkpt>
      <trkpt lat="43.30425" lon="6.473">
        <ele>303</ele>
        <time>2017-09-04T07:13:40Z</time>
      </trkpt>
      <trkpt lat="43.30425" lon="6.47246">
        <ele>304</ele>
        <time>2017-09-04T07:13:57Z</time>
      </trkpt>
      <trkpt lat="43.30415" lon="6.4719">
        <ele>305</ele>
        <time>2017-09-04T07:14:17Z</time>
      </trkpt>
      <trkpt lat="43.30399" lon="6.47138">
        <ele>306</ele>
        <time>2017-09-04T07:14:32Z</time>
      </trkpt>
      <trkpt lat="43.30381" lon="6.47092">
        <ele>309</ele>
        <time>2017-09-04T07:14:43Z</time>
      </trkpt>
      <trkpt lat="43.30412" lon="6.47089">
        <ele>304</ele>
        <time>2017-09-04T07:15:09Z</time>
      </trkpt>
      <trkpt lat="43.30443" lon="6.47071">
        <ele>302</ele>
        <time>2017-09-04T07:16:05Z</time>
      </trkpt>
      <trkpt lat="43.30484" lon="6.4706">
        <ele>302</ele>
        <time>2017-09-04T07:16:23Z</time>
      </trkpt>
      <trkpt lat="43.30512" lon="6.47021">
        <ele>305</ele>
        <time>2017-09-04T07:16:43Z</time>
      </trkpt>
      <trkpt lat="43.30568" lon="6.46936">
        <ele>312</ele>
        <time>2017-09-04T07:17:36Z</time>
      </trkpt>
      <trkpt lat="43.30604" lon="6.46906">
        <ele>314</ele>
        <time>2017-09-04T07:18:07Z</time>
      </trkpt>
      <trkpt lat="43.30641" lon="6.46893">
        <ele>316</ele>
        <time>2017-09-04T07:18:23Z</time>
      </trkpt>
      <trkpt lat="43.30675" lon="6.46932">
        <ele>311</ele>
        <time>2017-09-04T07:18:31Z</time>
      </trkpt>
      <trkpt lat="43.30715" lon="6.46943">
        <ele>312</ele>
        <time>2017-09-04T07:18:39Z</time>
      </trkpt>
      <trkpt lat="43.30758" lon="6.46963">
        <ele>313</ele>
        <time>2017-09-04T07:18:52Z</time>
      </trkpt>
      <trkpt lat="43.30789" lon="6.47006">
        <ele>314</ele>
        <time>2017-09-04T07:19:12Z</time>
      </trkpt>
      <trkpt lat="43.30824" lon="6.47041">
        <ele>316</ele>
        <time>2017-09-04T07:19:28Z</time>
      </trkpt>
      <trkpt lat="43.30864" lon="6.47055">
        <ele>318</ele>
        <time>2017-09-04T07:19:47Z</time>
      </trkpt>
      <trkpt lat="43.30906" lon="6.47065">
        <ele>320</ele>
        <time>2017-09-04T07:20:08Z</time>
      </trkpt>
      <trkpt lat="43.30951" lon="6.4707">
        <ele>322</ele>
        <time>2017-09-04T07:20:28Z</time>
      </trkpt>
      <trkpt lat="43.30994" lon="6.47086">
        <ele>320</ele>
        <time>2017-09-04T07:20:44Z</time>
      </trkpt>
      <trkpt lat="43.31036" lon="6.47094">
        <ele>321</ele>
        <time>2017-09-04T07:21:01Z</time>
      </trkpt>
      <trkpt lat="43.31076" lon="6.47101">
        <ele>323</ele>
        <time>2017-09-04T07:21:18Z</time>
      </trkpt>
      <trkpt lat="43.31119" lon="6.47112">
        <ele>326</ele>
        <time>2017-09-04T07:21:36Z</time>
      </trkpt>
      <trkpt lat="43.31161" lon="6.47113">
        <ele>331</ele>
        <time>2017-09-04T07:21:58Z</time>
      </trkpt>
      <trkpt lat="43.31203" lon="6.47128">
        <ele>333</ele>
        <time>2017-09-04T07:22:23Z</time>
      </trkpt>
      <trkpt lat="43.3124" lon="6.47154">
        <ele>338</ele>
        <time>2017-09-04T07:22:49Z</time>
      </trkpt>
      <trkpt lat="43.31281" lon="6.47165">
        <ele>344</ele>
        <time>2017-09-04T07:23:22Z</time>
      </trkpt>
      <trkpt lat="43.31332" lon="6.47153">
        <ele>351</ele>
        <time>2017-09-04T07:25:53Z</time>
      </trkpt>
      <trkpt lat="43.31369" lon="6.47134">
        <ele>353</ele>
        <time>2017-09-04T07:28:38Z</time>
      </trkpt>
      <trkpt lat="43.3141" lon="6.47122">
        <ele>353</ele>
        <time>2017-09-04T07:28:53Z</time>
      </trkpt>
      <trkpt lat="43.31449" lon="6.47117">
        <ele>350</ele>
        <time>2017-09-04T07:29:11Z</time>
      </trkpt>
      <trkpt lat="43.31488" lon="6.47108">
        <ele>347</ele>
        <time>2017-09-04T07:29:27Z</time>
      </trkpt>
      <trkpt lat="43.31529" lon="6.47097">
        <ele>346</ele>
        <time>2017-09-04T07:29:40Z</time>
      </trkpt>
      <trkpt lat="43.31569" lon="6.47083">
        <ele>347</ele>
        <time>2017-09-04T07:29:54Z</time>
      </trkpt>
      <trkpt lat="43.31593" lon="6.4705">
        <ele>350</ele>
        <time>2017-09-04T07:30:12Z</time>
      </trkpt>
      <trkpt lat="43.31577" lon="6.47054">
        <ele>350</ele>
        <time>2017-09-04T07:30:41Z</time>
      </trkpt>
      <trkpt lat="43.31598" lon="6.47073">
        <ele>347</ele>
        <time>2017-09-04T07:31:04Z</time>
      </trkpt>
      <trkpt lat="43.31639" lon="6.47053">
        <ele>348</ele>
        <time>2017-09-04T07:31:22Z</time>
      </trkpt>
      <trkpt lat="43.31672" lon="6.47023">
        <ele>348</ele>
        <time>2017-09-04T07:31:32Z</time>
      </trkpt>
      <trkpt lat="43.31702" lon="6.46987">
        <ele>348</ele>
        <time>2017-09-04T07:31:49Z</time>
      </trkpt>
      <trkpt lat="43.31704" lon="6.46958">
        <ele>349</ele>
        <time>2017-09-04T07:32:10Z</time>
      </trkpt>
      <trkpt lat="43.3168" lon="6.46985">
        <ele>351</ele>
        <time>2017-09-04T07:32:34Z</time>
      </trkpt>
      <trkpt lat="43.31727" lon="6.46961">
        <ele>346</ele>
        <time>2017-09-04T07:33:01Z</time>
      </trkpt>
      <trkpt lat="43.31731" lon="6.46905">
        <ele>347</ele>
        <time>2017-09-04T07:33:15Z</time>
      </trkpt>
      <trkpt lat="43.31753" lon="6.46856">
        <ele>346</ele>
        <time>2017-09-04T07:33:29Z</time>
      </trkpt>
      <trkpt lat="43.31772" lon="6.46804">
        <ele>347</ele>
        <time>2017-09-04T07:42:33Z</time>
      </trkpt>
      <trkpt lat="43.31797" lon="6.46761">
        <ele>350</ele>
        <time>2017-09-04T07:42:59Z</time>
      </trkpt>
      <trkpt lat="43.31807" lon="6.46728">
        <ele>354</ele>
        <time>2017-09-04T07:45:20Z</time>
      </trkpt>
      <trkpt lat="43.31835" lon="6.46704">
        <ele>360</ele>
        <time>2017-09-04T07:46:00Z</time>
      </trkpt>
      <trkpt lat="43.31882" lon="6.46698">
        <ele>359</ele>
        <time>2017-09-04T07:46:24Z</time>
      </trkpt>
      <trkpt lat="43.31921" lon="6.46696">
        <ele>355</ele>
        <time>2017-09-04T07:46:44Z</time>
      </trkpt>
      <trkpt lat="43.3196" lon="6.46674">
        <ele>354</ele>
        <time>2017-09-04T07:46:59Z</time>
      </trkpt>
      <trkpt lat="43.31997" lon="6.46645">
        <ele>359</ele>
        <time>2017-09-04T07:48:15Z</time>
      </trkpt>
      <trkpt lat="43.32" lon="6.46627">
        <ele>365</ele>
        <time>2017-09-04T07:49:35Z</time>
      </trkpt>
      <trkpt lat="43.31955" lon="6.46625">
        <ele>371</ele>
        <time>2017-09-04T07:50:04Z</time>
      </trkpt>
      <trkpt lat="43.31918" lon="6.46634">
        <ele>374</ele>
        <time>2017-09-04T07:50:31Z</time>
      </trkpt>
      <trkpt lat="43.31875" lon="6.46631">
        <ele>379</ele>
        <time>2017-09-04T07:51:17Z</time>
      </trkpt>
      <trkpt lat="43.31835" lon="6.46615">
        <ele>389</ele>
        <time>2017-09-04T07:52:48Z</time>
      </trkpt>
      <trkpt lat="43.31805" lon="6.46596">
        <ele>398</ele>
        <time>2017-09-04T07:55:22Z</time>
      </trkpt>
      <trkpt lat="43.31843" lon="6.46578">
        <ele>407</ele>
        <time>2017-09-04T07:56:47Z</time>
      </trkpt>
      <trkpt lat="43.3182" lon="6.4655">
        <ele>417</ele>
        <time>2017-09-04T07:58:10Z</time>
      </trkpt>
      <trkpt lat="43.31803" lon="6.4652">
        <ele>418</ele>
        <time>2017-09-04T08:03:26Z</time>
      </trkpt>
      <trkpt lat="43.318" lon="6.46511">
        <ele>419</ele>
        <time>2017-09-04T08:04:19Z</time>
      </trkpt>
      <trkpt lat="43.31777" lon="6.46466">
        <ele>416</ele>
        <time>2017-09-04T08:04:56Z</time>
      </trkpt>
      <trkpt lat="43.31742" lon="6.46432">
        <ele>415</ele>
        <time>2017-09-04T08:05:08Z</time>
      </trkpt>
      <trkpt lat="43.317" lon="6.46428">
        <ele>416</ele>
        <time>2017-09-04T08:05:33Z</time>
      </trkpt>
      <trkpt lat="43.31701" lon="6.46428">
        <ele>416</ele>
        <time>2017-09-04T08:06:48Z</time>
      </trkpt>
      <trkpt lat="43.31739" lon="6.46428">
        <ele>415</ele>
        <time>2017-09-04T08:07:27Z</time>
      </trkpt>
      <trkpt lat="43.31771" lon="6.46461">
        <ele>416</ele>
        <time>2017-09-04T08:08:04Z</time>
      </trkpt>
      <trkpt lat="43.31796" lon="6.46504">
        <ele>419</ele>
        <time>2017-09-04T08:08:30Z</time>
      </trkpt>
      <trkpt lat="43.31788" lon="6.46516">
        <ele>419</ele>
        <time>2017-09-04T08:09:24Z</time>
      </trkpt>
      <trkpt lat="43.31753" lon="6.46501">
        <ele>424</ele>
        <time>2017-09-04T08:10:47Z</time>
      </trkpt>
      <trkpt lat="43.31723" lon="6.46478">
        <ele>424</ele>
        <time>2017-09-04T08:11:43Z</time>
      </trkpt>
      <trkpt lat="43.31685" lon="6.46496">
        <ele>427</ele>
        <time>2017-09-04T08:12:47Z</time>
      </trkpt>
      <trkpt lat="43.31676" lon="6.46504">
        <ele>427</ele>
        <time>2017-09-04T08:16:13Z</time>
      </trkpt>
      <trkpt lat="43.31699" lon="6.46483">
        <ele>426</ele>
        <time>2017-09-04T08:20:21Z</time>
      </trkpt>
      <trkpt lat="43.31668" lon="6.46515">
        <ele>427</ele>
        <time>2017-09-04T08:20:43Z</time>
      </trkpt>
      <trkpt lat="43.31633" lon="6.46491">
        <ele>435</ele>
        <time>2017-09-04T08:21:29Z</time>
      </trkpt>
      <trkpt lat="43.31606" lon="6.46445">
        <ele>440</ele>
        <time>2017-09-04T08:21:54Z</time>
      </trkpt>
      <trkpt lat="43.31581" lon="6.46399">
        <ele>445</ele>
        <time>2017-09-04T08:22:16Z</time>
      </trkpt>
      <trkpt lat="43.31562" lon="6.4635">
        <ele>443</ele>
        <time>2017-09-04T08:22:34Z</time>
      </trkpt>
      <trkpt lat="43.31531" lon="6.46319">
        <ele>445</ele>
        <time>2017-09-04T08:22:49Z</time>
      </trkpt>
      <trkpt lat="43.31491" lon="6.46332">
        <ele>451</ele>
        <time>2017-09-04T08:23:07Z</time>
      </trkpt>
      <trkpt lat="43.31452" lon="6.46346">
        <ele>453</ele>
        <time>2017-09-04T08:23:27Z</time>
      </trkpt>
      <trkpt lat="43.31413" lon="6.46364">
        <ele>456</ele>
        <time>2017-09-04T08:23:50Z</time>
      </trkpt>
      <trkpt lat="43.31374" lon="6.4638">
        <ele>460</ele>
        <time>2017-09-04T08:24:12Z</time>
      </trkpt>
      <trkpt lat="43.31338" lon="6.46385">
        <ele>464</ele>
        <time>2017-09-04T08:24:37Z</time>
      </trkpt>
      <trkpt lat="43.31304" lon="6.46357">
        <ele>463</ele>
        <time>2017-09-04T08:24:59Z</time>
      </trkpt>
      <trkpt lat="43.3127" lon="6.46331">
        <ele>465</ele>
        <time>2017-09-04T08:25:25Z</time>
      </trkpt>
      <trkpt lat="43.31233" lon="6.46316">
        <ele>465</ele>
        <time>2017-09-04T08:25:52Z</time>
      </trkpt>
      <trkpt lat="43.31215" lon="6.46353">
        <ele>472</ele>
        <time>2017-09-04T08:26:20Z</time>
      </trkpt>
      <trkpt lat="43.31199" lon="6.46399">
        <ele>478</ele>
        <time>2017-09-04T08:26:45Z</time>
      </trkpt>
      <trkpt lat="43.3117" lon="6.46443">
        <ele>480</ele>
        <time>2017-09-04T08:27:07Z</time>
      </trkpt>
      <trkpt lat="43.31137" lon="6.46478">
        <ele>482</ele>
        <time>2017-09-04T08:27:26Z</time>
      </trkpt>
      <trkpt lat="43.31097" lon="6.46495">
        <ele>485</ele>
        <time>2017-09-04T08:27:43Z</time>
      </trkpt>
      <trkpt lat="43.31058" lon="6.46488">
        <ele>486</ele>
        <time>2017-09-04T08:28:02Z</time>
      </trkpt>
      <trkpt lat="43.31024" lon="6.46457">
        <ele>484</ele>
        <time>2017-09-04T08:28:21Z</time>
      </trkpt>
      <trkpt lat="43.30985" lon="6.46448">
        <ele>489</ele>
        <time>2017-09-04T08:28:40Z</time>
      </trkpt>
      <trkpt lat="43.30947" lon="6.46429">
        <ele>491</ele>
        <time>2017-09-04T08:28:59Z</time>
      </trkpt>
      <trkpt lat="43.30914" lon="6.46396">
        <ele>489</ele>
        <time>2017-09-04T08:29:18Z</time>
      </trkpt>
      <trkpt lat="43.3088" lon="6.46368">
        <ele>488</ele>
        <time>2017-09-04T08:29:35Z</time>
      </trkpt>
      <trkpt lat="43.30841" lon="6.46364">
        <ele>492</ele>
        <time>2017-09-04T08:29:50Z</time>
      </trkpt>
      <trkpt lat="43.30808" lon="6.46333">
        <ele>494</ele>
        <time>2017-09-04T08:30:13Z</time>
      </trkpt>
      <trkpt lat="43.30774" lon="6.46296">
        <ele>500</ele>
        <time>2017-09-04T08:30:38Z</time>
      </trkpt>
      <trkpt lat="43.30746" lon="6.46253">
        <ele>503</ele>
        <time>2017-09-04T08:31:05Z</time>
      </trkpt>
      <trkpt lat="43.30724" lon="6.46204">
        <ele>506</ele>
        <time>2017-09-04T08:31:30Z</time>
      </trkpt>
      <trkpt lat="43.30705" lon="6.4615">
        <ele>503</ele>
        <time>2017-09-04T08:31:49Z</time>
      </trkpt>
      <trkpt lat="43.30673" lon="6.46127">
        <ele>505</ele>
        <time>2017-09-04T08:32:03Z</time>
      </trkpt>
      <trkpt lat="43.30636" lon="6.46114">
        <ele>507</ele>
        <time>2017-09-04T08:32:15Z</time>
      </trkpt>
      <trkpt lat="43.30609" lon="6.46067">
        <ele>504</ele>
        <time>2017-09-04T08:32:28Z</time>
      </trkpt>
      <trkpt lat="43.30573" lon="6.46041">
        <ele>502</ele>
        <time>2017-09-04T08:32:38Z</time>
      </trkpt>
      <trkpt lat="43.30531" lon="6.46043">
        <ele>507</ele>
        <time>2017-09-04T08:32:50Z</time>
      </trkpt>
      <trkpt lat="43.30522" lon="6.45996">
        <ele>506</ele>
        <time>2017-09-04T08:33:04Z</time>
      </trkpt>
      <trkpt lat="43.30537" lon="6.45942">
        <ele>502</ele>
        <time>2017-09-04T08:33:19Z</time>
      </trkpt>
      <trkpt lat="43.30524" lon="6.4589">
        <ele>508</ele>
        <time>2017-09-04T08:33:30Z</time>
      </trkpt>
      <trkpt lat="43.30513" lon="6.45834">
        <ele>512</ele>
        <time>2017-09-04T08:33:49Z</time>
      </trkpt>
      <trkpt lat="43.30545" lon="6.45804">
        <ele>508</ele>
        <time>2017-09-04T08:34:04Z</time>
      </trkpt>
      <trkpt lat="43.30566" lon="6.4576">
        <ele>510</ele>
        <time>2017-09-04T08:34:20Z</time>
      </trkpt>
      <trkpt lat="43.3058" lon="6.45707">
        <ele>515</ele>
        <time>2017-09-04T08:34:41Z</time>
      </trkpt>
      <trkpt lat="43.30597" lon="6.45653">
        <ele>514</ele>
        <time>2017-09-04T08:35:00Z</time>
      </trkpt>
      <trkpt lat="43.30615" lon="6.45597">
        <ele>512</ele>
        <time>2017-09-04T08:35:11Z</time>
      </trkpt>
      <trkpt lat="43.30637" lon="6.45547">
        <ele>510</ele>
        <time>2017-09-04T08:35:17Z</time>
      </trkpt>
      <trkpt lat="43.30664" lon="6.455">
        <ele>506</ele>
        <time>2017-09-04T08:35:23Z</time>
      </trkpt>
      <trkpt lat="43.30672" lon="6.45443">
        <ele>507</ele>
        <time>2017-09-04T08:35:33Z</time>
      </trkpt>
      <trkpt lat="43.30679" lon="6.4539">
        <ele>510</ele>
        <time>2017-09-04T08:35:46Z</time>
      </trkpt>
      <trkpt lat="43.307" lon="6.4534">
        <ele>510</ele>
        <time>2017-09-04T08:35:59Z</time>
      </trkpt>
      <trkpt lat="43.30721" lon="6.45287">
        <ele>511</ele>
        <time>2017-09-04T08:36:10Z</time>
      </trkpt>
      <trkpt lat="43.30756" lon="6.45259">
        <ele>508</ele>
        <time>2017-09-04T08:36:22Z</time>
      </trkpt>
      <trkpt lat="43.30768" lon="6.45206">
        <ele>511</ele>
        <time>2017-09-04T08:36:36Z</time>
      </trkpt>
      <trkpt lat="43.30778" lon="6.45151">
        <ele>512</ele>
        <time>2017-09-04T08:36:49Z</time>
      </trkpt>
      <trkpt lat="43.30795" lon="6.45099">
        <ele>510</ele>
        <time>2017-09-04T08:37:00Z</time>
      </trkpt>
      <trkpt lat="43.3082" lon="6.45049">
        <ele>506</ele>
        <time>2017-09-04T08:37:08Z</time>
      </trkpt>
      <trkpt lat="43.30827" lon="6.44998">
        <ele>505</ele>
        <time>2017-09-04T08:37:20Z</time>
      </trkpt>
      <trkpt lat="43.30797" lon="6.44975">
        <ele>503</ele>
        <time>2017-09-04T08:37:34Z</time>
      </trkpt>
      <trkpt lat="43.30757" lon="6.4499">
        <ele>507</ele>
        <time>2017-09-04T08:37:52Z</time>
      </trkpt>
      <trkpt lat="43.30721" lon="6.45013">
        <ele>511</ele>
        <time>2017-09-04T08:38:14Z</time>
      </trkpt>
      <trkpt lat="43.30682" lon="6.45034">
        <ele>514</ele>
        <time>2017-09-04T08:38:37Z</time>
      </trkpt>
      <trkpt lat="43.30642" lon="6.4503">
        <ele>514</ele>
        <time>2017-09-04T08:38:55Z</time>
      </trkpt>
      <trkpt lat="43.30608" lon="6.45052">
        <ele>516</ele>
        <time>2017-09-04T08:39:15Z</time>
      </trkpt>
      <trkpt lat="43.30582" lon="6.45093">
        <ele>520</ele>
        <time>2017-09-04T08:39:38Z</time>
      </trkpt>
      <trkpt lat="43.30548" lon="6.45125">
        <ele>523</ele>
        <time>2017-09-04T08:40:01Z</time>
      </trkpt>
      <trkpt lat="43.30519" lon="6.45167">
        <ele>523</ele>
        <time>2017-09-04T08:40:26Z</time>
      </trkpt>
      <trkpt lat="43.30508" lon="6.45218">
        <ele>526</ele>
        <time>2017-09-04T08:40:46Z</time>
      </trkpt>
      <trkpt lat="43.30484" lon="6.45264">
        <ele>528</ele>
        <time>2017-09-04T08:41:06Z</time>
      </trkpt>
      <trkpt lat="43.30454" lon="6.45301">
        <ele>527</ele>
        <time>2017-09-04T08:41:26Z</time>
      </trkpt>
      <trkpt lat="43.30427" lon="6.45345">
        <ele>531</ele>
        <time>2017-09-04T08:41:47Z</time>
      </trkpt>
      <trkpt lat="43.30402" lon="6.45387">
        <ele>536</ele>
        <time>2017-09-04T08:42:08Z</time>
      </trkpt>
      <trkpt lat="43.30364" lon="6.45405">
        <ele>535</ele>
        <time>2017-09-04T08:42:27Z</time>
      </trkpt>
      <trkpt lat="43.30329" lon="6.45431">
        <ele>537</ele>
        <time>2017-09-04T08:43:01Z</time>
      </trkpt>
      <trkpt lat="43.30292" lon="6.45447">
        <ele>542</ele>
        <time>2017-09-04T08:44:07Z</time>
      </trkpt>
      <trkpt lat="43.30259" lon="6.45408">
        <ele>544</ele>
        <time>2017-09-04T08:44:28Z</time>
      </trkpt>
      <trkpt lat="43.30272" lon="6.45353">
        <ele>540</ele>
        <time>2017-09-04T08:44:48Z</time>
      </trkpt>
      <trkpt lat="43.30265" lon="6.45302">
        <ele>541</ele>
        <time>2017-09-04T08:45:01Z</time>
      </trkpt>
      <trkpt lat="43.30227" lon="6.45285">
        <ele>546</ele>
        <time>2017-09-04T08:45:19Z</time>
      </trkpt>
      <trkpt lat="43.30192" lon="6.45258">
        <ele>549</ele>
        <time>2017-09-04T08:45:38Z</time>
      </trkpt>
      <trkpt lat="43.30163" lon="6.45219">
        <ele>551</ele>
        <time>2017-09-04T08:45:55Z</time>
      </trkpt>
      <trkpt lat="43.30137" lon="6.45176">
        <ele>550</ele>
        <time>2017-09-04T08:46:15Z</time>
      </trkpt>
      <trkpt lat="43.30095" lon="6.45167">
        <ele>557</ele>
        <time>2017-09-04T08:46:34Z</time>
      </trkpt>
      <trkpt lat="43.30068" lon="6.45126">
        <ele>552</ele>
        <time>2017-09-04T08:46:52Z</time>
      </trkpt>
      <trkpt lat="43.30029" lon="6.45131">
        <ele>563</ele>
        <time>2017-09-04T08:47:14Z</time>
      </trkpt>
      <trkpt lat="43.29999" lon="6.4509">
        <ele>556</ele>
        <time>2017-09-04T08:47:33Z</time>
      </trkpt>
      <trkpt lat="43.29961" lon="6.45072">
        <ele>563</ele>
        <time>2017-09-04T08:47:53Z</time>
      </trkpt>
      <trkpt lat="43.29935" lon="6.45031">
        <ele>562</ele>
        <time>2017-09-04T08:48:12Z</time>
      </trkpt>
      <trkpt lat="43.29923" lon="6.44979">
        <ele>562</ele>
        <time>2017-09-04T08:48:31Z</time>
      </trkpt>
      <trkpt lat="43.29939" lon="6.44927">
        <ele>562</ele>
        <time>2017-09-04T08:48:51Z</time>
      </trkpt>
      <trkpt lat="43.29957" lon="6.44878">
        <ele>568</ele>
        <time>2017-09-04T08:50:05Z</time>
      </trkpt>
      <trkpt lat="43.29969" lon="6.44823">
        <ele>572</ele>
        <time>2017-09-04T08:50:24Z</time>
      </trkpt>
      <trkpt lat="43.29975" lon="6.44769">
        <ele>572</ele>
        <time>2017-09-04T08:50:43Z</time>
      </trkpt>
      <trkpt lat="43.29952" lon="6.44727">
        <ele>572</ele>
        <time>2017-09-04T08:50:59Z</time>
      </trkpt>
      <trkpt lat="43.29924" lon="6.44686">
        <ele>572</ele>
        <time>2017-09-04T08:51:10Z</time>
      </trkpt>
      <trkpt lat="43.29907" lon="6.44635">
        <ele>568</ele>
        <time>2017-09-04T08:51:22Z</time>
      </trkpt>
      <trkpt lat="43.29904" lon="6.4458">
        <ele>566</ele>
        <time>2017-09-04T08:51:35Z</time>
      </trkpt>
      <trkpt lat="43.29909" lon="6.44524">
        <ele>565</ele>
        <time>2017-09-04T08:51:46Z</time>
      </trkpt>
      <trkpt lat="43.29915" lon="6.44467">
        <ele>566</ele>
        <time>2017-09-04T08:51:56Z</time>
      </trkpt>
      <trkpt lat="43.29927" lon="6.44411">
        <ele>571</ele>
        <time>2017-09-04T08:52:06Z</time>
      </trkpt>
      <trkpt lat="43.29926" lon="6.44356">
        <ele>571</ele>
        <time>2017-09-04T08:52:20Z</time>
      </trkpt>
      <trkpt lat="43.29926" lon="6.44297">
        <ele>572</ele>
        <time>2017-09-04T08:52:32Z</time>
      </trkpt>
      <trkpt lat="43.29927" lon="6.44241">
        <ele>574</ele>
        <time>2017-09-04T08:52:42Z</time>
      </trkpt>
      <trkpt lat="43.29917" lon="6.44185">
        <ele>574</ele>
        <time>2017-09-04T08:52:55Z</time>
      </trkpt>
      <trkpt lat="43.29909" lon="6.44128">
        <ele>573</ele>
        <time>2017-09-04T08:53:07Z</time>
      </trkpt>
      <trkpt lat="43.29928" lon="6.44074">
        <ele>571</ele>
        <time>2017-09-04T08:53:14Z</time>
      </trkpt>
      <trkpt lat="43.29947" lon="6.44022">
        <ele>568</ele>
        <time>2017-09-04T08:53:22Z</time>
      </trkpt>
      <trkpt lat="43.29962" lon="6.43975">
        <ele>564</ele>
        <time>2017-09-04T08:54:33Z</time>
      </trkpt>
      <trkpt lat="43.29982" lon="6.43927">
        <ele>562</ele>
        <time>2017-09-04T08:54:40Z</time>
      </trkpt>
      <trkpt lat="43.29995" lon="6.43873">
        <ele>557</ele>
        <time>2017-09-04T08:54:46Z</time>
      </trkpt>
      <trkpt lat="43.30005" lon="6.43811">
        <ele>553</ele>
        <time>2017-09-04T08:54:52Z</time>
      </trkpt>
      <trkpt lat="43.30019" lon="6.43746">
        <ele>546</ele>
        <time>2017-09-04T08:54:58Z</time>
      </trkpt>
      <trkpt lat="43.30031" lon="6.43682">
        <ele>542</ele>
        <time>2017-09-04T08:55:03Z</time>
      </trkpt>
      <trkpt lat="43.30042" lon="6.43624">
        <ele>541</ele>
        <time>2017-09-04T08:55:07Z</time>
      </trkpt>
      <trkpt lat="43.30052" lon="6.4357">
        <ele>542</ele>
        <time>2017-09-04T08:55:11Z</time>
      </trkpt>
      <trkpt lat="43.30062" lon="6.43514">
        <ele>544</ele>
        <time>2017-09-04T08:55:17Z</time>
      </trkpt>
      <trkpt lat="43.30072" lon="6.4346">
        <ele>543</ele>
        <time>2017-09-04T08:55:29Z</time>
      </trkpt>
      <trkpt lat="43.3009" lon="6.4341">
        <ele>540</ele>
        <time>2017-09-04T08:55:43Z</time>
      </trkpt>
      <trkpt lat="43.30104" lon="6.43361">
        <ele>543</ele>
        <time>2017-09-04T08:55:58Z</time>
      </trkpt>
      <trkpt lat="43.30118" lon="6.43309">
        <ele>550</ele>
        <time>2017-09-04T08:56:18Z</time>
      </trkpt>
      <trkpt lat="43.30133" lon="6.43259">
        <ele>552</ele>
        <time>2017-09-04T08:56:37Z</time>
      </trkpt>
      <trkpt lat="43.30147" lon="6.43207">
        <ele>557</ele>
        <time>2017-09-04T08:56:55Z</time>
      </trkpt>
      <trkpt lat="43.3018" lon="6.43172">
        <ele>558</ele>
        <time>2017-09-04T08:57:13Z</time>
      </trkpt>
      <trkpt lat="43.30211" lon="6.43135">
        <ele>558</ele>
        <time>2017-09-04T08:57:30Z</time>
      </trkpt>
      <trkpt lat="43.3023" lon="6.43086">
        <ele>563</ele>
        <time>2017-09-04T08:57:48Z</time>
      </trkpt>
      <trkpt lat="43.30263" lon="6.43051">
        <ele>563</ele>
        <time>2017-09-04T08:58:08Z</time>
      </trkpt>
      <trkpt lat="43.30293" lon="6.43017">
        <ele>562</ele>
        <time>2017-09-04T08:58:27Z</time>
      </trkpt>
      <trkpt lat="43.30309" lon="6.42973">
        <ele>565</ele>
        <time>2017-09-04T08:58:44Z</time>
      </trkpt>
      <trkpt lat="43.30286" lon="6.42928">
        <ele>574</ele>
        <time>2017-09-04T08:59:03Z</time>
      </trkpt>
      <trkpt lat="43.30265" lon="6.4288">
        <ele>576</ele>
        <time>2017-09-04T08:59:21Z</time>
      </trkpt>
      <trkpt lat="43.30254" lon="6.42824">
        <ele>574</ele>
        <time>2017-09-04T08:59:38Z</time>
      </trkpt>
      <trkpt lat="43.30243" lon="6.42768">
        <ele>575</ele>
        <time>2017-09-04T08:59:54Z</time>
      </trkpt>
      <trkpt lat="43.30229" lon="6.42719">
        <ele>579</ele>
        <time>2017-09-04T09:00:12Z</time>
      </trkpt>
      <trkpt lat="43.30235" lon="6.42663">
        <ele>578</ele>
        <time>2017-09-04T09:00:27Z</time>
      </trkpt>
      <trkpt lat="43.30241" lon="6.42608">
        <ele>578</ele>
        <time>2017-09-04T09:00:41Z</time>
      </trkpt>
      <trkpt lat="43.30237" lon="6.42551">
        <ele>578</ele>
        <time>2017-09-04T09:00:54Z</time>
      </trkpt>
      <trkpt lat="43.30212" lon="6.42509">
        <ele>575</ele>
        <time>2017-09-04T09:01:06Z</time>
      </trkpt>
      <trkpt lat="43.30214" lon="6.42449">
        <ele>570</ele>
        <time>2017-09-04T09:01:16Z</time>
      </trkpt>
      <trkpt lat="43.30224" lon="6.42389">
        <ele>569</ele>
        <time>2017-09-04T09:01:23Z</time>
      </trkpt>
      <trkpt lat="43.30235" lon="6.42334">
        <ele>566</ele>
        <time>2017-09-04T09:01:28Z</time>
      </trkpt>
      <trkpt lat="43.30236" lon="6.42273">
        <ele>563</ele>
        <time>2017-09-04T09:01:33Z</time>
      </trkpt>
      <trkpt lat="43.30231" lon="6.42212">
        <ele>560</ele>
        <time>2017-09-04T09:01:38Z</time>
      </trkpt>
      <trkpt lat="43.30213" lon="6.42162">
        <ele>563</ele>
        <time>2017-09-04T09:01:43Z</time>
      </trkpt>
      <trkpt lat="43.30194" lon="6.42114">
        <ele>565</ele>
        <time>2017-09-04T09:01:50Z</time>
      </trkpt>
      <trkpt lat="43.30185" lon="6.42062">
        <ele>569</ele>
        <time>2017-09-04T09:02:04Z</time>
      </trkpt>
      <trkpt lat="43.30171" lon="6.42012">
        <ele>570</ele>
        <time>2017-09-04T09:02:24Z</time>
      </trkpt>
      <trkpt lat="43.30159" lon="6.41961">
        <ele>569</ele>
        <time>2017-09-04T09:02:43Z</time>
      </trkpt>
      <trkpt lat="43.30179" lon="6.41915">
        <ele>581</ele>
        <time>2017-09-04T09:02:58Z</time>
      </trkpt>
      <trkpt lat="43.3016" lon="6.41871">
        <ele>576</ele>
        <time>2017-09-04T09:03:11Z</time>
      </trkpt>
      <trkpt lat="43.30126" lon="6.41836">
        <ele>576</ele>
        <time>2017-09-04T09:03:21Z</time>
      </trkpt>
      <trkpt lat="43.30097" lon="6.41792">
        <ele>572</ele>
        <time>2017-09-04T09:03:32Z</time>
      </trkpt>
      <trkpt lat="43.30077" lon="6.41745">
        <ele>573</ele>
        <time>2017-09-04T09:03:42Z</time>
      </trkpt>
      <trkpt lat="43.30062" lon="6.41687">
        <ele>573</ele>
        <time>2017-09-04T09:04:34Z</time>
      </trkpt>
      <trkpt lat="43.30033" lon="6.41642">
        <ele>574</ele>
        <time>2017-09-04T09:04:44Z</time>
      </trkpt>
      <trkpt lat="43.29993" lon="6.41622">
        <ele>573</ele>
        <time>2017-09-04T09:04:56Z</time>
      </trkpt>
      <trkpt lat="43.29958" lon="6.41585">
        <ele>574</ele>
        <time>2017-09-04T09:05:50Z</time>
      </trkpt>
      <trkpt lat="43.29936" lon="6.41534">
        <ele>572</ele>
        <time>2017-09-04T09:06:02Z</time>
      </trkpt>
      <trkpt lat="43.29925" lon="6.4148">
        <ele>572</ele>
        <time>2017-09-04T09:06:12Z</time>
      </trkpt>
      <trkpt lat="43.29911" lon="6.41422">
        <ele>572</ele>
        <time>2017-09-04T09:06:24Z</time>
      </trkpt>
      <trkpt lat="43.29906" lon="6.41362">
        <ele>571</ele>
        <time>2017-09-04T09:06:34Z</time>
      </trkpt>
      <trkpt lat="43.29914" lon="6.41308">
        <ele>570</ele>
        <time>2017-09-04T09:06:43Z</time>
      </trkpt>
      <trkpt lat="43.29916" lon="6.4125">
        <ele>566</ele>
        <time>2017-09-04T09:06:51Z</time>
      </trkpt>
      <trkpt lat="43.29914" lon="6.41224">
        <ele>567</ele>
        <time>2017-09-04T09:08:28Z</time>
      </trkpt>
      <trkpt lat="43.29925" lon="6.41172">
        <ele>572</ele>
        <time>2017-09-04T09:08:59Z</time>
      </trkpt>
      <trkpt lat="43.29932" lon="6.41114">
        <ele>574</ele>
        <time>2017-09-04T09:09:10Z</time>
      </trkpt>
      <trkpt lat="43.29924" lon="6.41059">
        <ele>574</ele>
        <time>2017-09-04T09:09:22Z</time>
      </trkpt>
      <trkpt lat="43.29924" lon="6.41003">
        <ele>574</ele>
        <time>2017-09-04T09:09:39Z</time>
      </trkpt>
      <trkpt lat="43.29921" lon="6.40947">
        <ele>574</ele>
        <time>2017-09-04T09:09:57Z</time>
      </trkpt>
      <trkpt lat="43.29912" lon="6.40891">
        <ele>574</ele>
        <time>2017-09-04T09:10:12Z</time>
      </trkpt>
      <trkpt lat="43.29873" lon="6.40867">
        <ele>584</ele>
        <time>2017-09-04T09:10:32Z</time>
      </trkpt>
      <trkpt lat="43.29858" lon="6.40824">
        <ele>585</ele>
        <time>2017-09-04T09:10:51Z</time>
      </trkpt>
      <trkpt lat="43.29868" lon="6.40769">
        <ele>581</ele>
        <time>2017-09-04T09:11:10Z</time>
      </trkpt>
      <trkpt lat="43.2986" lon="6.40713">
        <ele>586</ele>
        <time>2017-09-04T09:11:32Z</time>
      </trkpt>
      <trkpt lat="43.29852" lon="6.4065">
        <ele>588</ele>
        <time>2017-09-04T09:11:53Z</time>
      </trkpt>
      <trkpt lat="43.29855" lon="6.40595">
        <ele>586</ele>
        <time>2017-09-04T09:12:11Z</time>
      </trkpt>
      <trkpt lat="43.2988" lon="6.40553">
        <ele>587</ele>
        <time>2017-09-04T09:12:29Z</time>
      </trkpt>
      <trkpt lat="43.29905" lon="6.40511">
        <ele>593</ele>
        <time>2017-09-04T09:12:52Z</time>
      </trkpt>
      <trkpt lat="43.2992" lon="6.40459">
        <ele>600</ele>
        <time>2017-09-04T09:13:20Z</time>
      </trkpt>
      <trkpt lat="43.29915" lon="6.40407">
        <ele>606</ele>
        <time>2017-09-04T09:13:45Z</time>
      </trkpt>
      <trkpt lat="43.29886" lon="6.40372">
        <ele>607</ele>
        <time>2017-09-04T09:14:09Z</time>
      </trkpt>
      <trkpt lat="43.29849" lon="6.40353">
        <ele>605</ele>
        <time>2017-09-04T09:14:30Z</time>
      </trkpt>
      <trkpt lat="43.29817" lon="6.40324">
        <ele>606</ele>
        <time>2017-09-04T09:14:51Z</time>
      </trkpt>
      <trkpt lat="43.298" lon="6.40272">
        <ele>610</ele>
        <time>2017-09-04T09:15:14Z</time>
      </trkpt>
      <trkpt lat="43.29788" lon="6.4022">
        <ele>615</ele>
        <time>2017-09-04T09:15:37Z</time>
      </trkpt>
      <trkpt lat="43.29775" lon="6.4017">
        <ele>618</ele>
        <time>2017-09-04T09:16:02Z</time>
      </trkpt>
      <trkpt lat="43.29759" lon="6.40135">
        <ele>617</ele>
        <time>2017-09-04T09:17:16Z</time>
      </trkpt>
      <trkpt lat="43.29724" lon="6.40106">
        <ele>619</ele>
        <time>2017-09-04T09:18:01Z</time>
      </trkpt>
      <trkpt lat="43.29685" lon="6.40098">
        <ele>621</ele>
        <time>2017-09-04T09:18:24Z</time>
      </trkpt>
      <trkpt lat="43.29646" lon="6.40091">
        <ele>620</ele>
        <time>2017-09-04T09:18:47Z</time>
      </trkpt>
      <trkpt lat="43.29609" lon="6.40067">
        <ele>621</ele>
        <time>2017-09-04T09:19:10Z</time>
      </trkpt>
      <trkpt lat="43.29581" lon="6.40024">
        <ele>626</ele>
        <time>2017-09-04T09:19:34Z</time>
      </trkpt>
      <trkpt lat="43.29548" lon="6.39996">
        <ele>631</ele>
        <time>2017-09-04T09:19:55Z</time>
      </trkpt>
      <trkpt lat="43.29512" lon="6.39967">
        <ele>633</ele>
        <time>2017-09-04T09:20:15Z</time>
      </trkpt>
      <trkpt lat="43.29483" lon="6.39928">
        <ele>635</ele>
        <time>2017-09-04T09:20:30Z</time>
      </trkpt>
      <trkpt lat="43.29468" lon="6.39876">
        <ele>635</ele>
        <time>2017-09-04T09:20:42Z</time>
      </trkpt>
      <trkpt lat="43.29461" lon="6.39819">
        <ele>632</ele>
        <time>2017-09-04T09:20:54Z</time>
      </trkpt>
      <trkpt lat="43.29443" lon="6.39772">
        <ele>630</ele>
        <time>2017-09-04T09:21:04Z</time>
      </trkpt>
      <trkpt lat="43.29425" lon="6.39718">
        <ele>629</ele>
        <time>2017-09-04T09:21:16Z</time>
      </trkpt>
      <trkpt lat="43.29419" lon="6.3966">
        <ele>629</ele>
        <time>2017-09-04T09:21:25Z</time>
      </trkpt>
      <trkpt lat="43.29413" lon="6.39607">
        <ele>630</ele>
        <time>2017-09-04T09:21:34Z</time>
      </trkpt>
      <trkpt lat="43.29402" lon="6.39554">
        <ele>632</ele>
        <time>2017-09-04T09:21:48Z</time>
      </trkpt>
      <trkpt lat="43.29404" lon="6.39497">
        <ele>632</ele>
        <time>2017-09-04T09:22:03Z</time>
      </trkpt>
      <trkpt lat="43.29397" lon="6.39442">
        <ele>633</ele>
        <time>2017-09-04T09:22:14Z</time>
      </trkpt>
      <trkpt lat="43.2939" lon="6.39385">
        <ele>634</ele>
        <time>2017-09-04T09:22:26Z</time>
      </trkpt>
      <trkpt lat="43.29378" lon="6.39332">
        <ele>633</ele>
        <time>2017-09-04T09:22:36Z</time>
      </trkpt>
      <trkpt lat="43.29337" lon="6.39312">
        <ele>635</ele>
        <time>2017-09-04T09:22:45Z</time>
      </trkpt>
      <trkpt lat="43.29298" lon="6.39297">
        <ele>634</ele>
        <time>2017-09-04T09:22:53Z</time>
      </trkpt>
      <trkpt lat="43.29272" lon="6.39248">
        <ele>631</ele>
        <time>2017-09-04T09:23:01Z</time>
      </trkpt>
      <trkpt lat="43.29251" lon="6.39201">
        <ele>630</ele>
        <time>2017-09-04T09:23:07Z</time>
      </trkpt>
      <trkpt lat="43.29214" lon="6.39174">
        <ele>629</ele>
        <time>2017-09-04T09:23:13Z</time>
      </trkpt>
      <trkpt lat="43.29176" lon="6.39161">
        <ele>629</ele>
        <time>2017-09-04T09:23:19Z</time>
      </trkpt>
      <trkpt lat="43.29136" lon="6.39152">
        <ele>629</ele>
        <time>2017-09-04T09:23:27Z</time>
      </trkpt>
      <trkpt lat="43.29097" lon="6.3916">
        <ele>631</ele>
        <time>2017-09-04T09:23:41Z</time>
      </trkpt>
      <trkpt lat="43.29056" lon="6.39156">
        <ele>632</ele>
        <time>2017-09-04T09:24:00Z</time>
      </trkpt>
      <trkpt lat="43.29022" lon="6.39126">
        <ele>635</ele>
        <time>2017-09-04T09:24:21Z</time>
      </trkpt>
      <trkpt lat="43.28995" lon="6.39083">
        <ele>642</ele>
        <time>2017-09-04T09:24:44Z</time>
      </trkpt>
      <trkpt lat="43.2898" lon="6.39031">
        <ele>644</ele>
        <time>2017-09-04T09:25:02Z</time>
      </trkpt>
      <trkpt lat="43.28972" lon="6.38976">
        <ele>646</ele>
        <time>2017-09-04T09:25:23Z</time>
      </trkpt>
      <trkpt lat="43.28958" lon="6.38922">
        <ele>647</ele>
        <time>2017-09-04T09:25:41Z</time>
      </trkpt>
      <trkpt lat="43.28934" lon="6.38879">
        <ele>650</ele>
        <time>2017-09-04T09:25:59Z</time>
      </trkpt>
      <trkpt lat="43.28901" lon="6.38848">
        <ele>650</ele>
        <time>2017-09-04T09:26:20Z</time>
      </trkpt>
      <trkpt lat="43.28863" lon="6.38822">
        <ele>652</ele>
        <time>2017-09-04T09:26:38Z</time>
      </trkpt>
      <trkpt lat="43.28834" lon="6.38784">
        <ele>652</ele>
        <time>2017-09-04T09:26:51Z</time>
      </trkpt>
      <trkpt lat="43.28822" lon="6.3873">
        <ele>654</ele>
        <time>2017-09-04T09:27:02Z</time>
      </trkpt>
      <trkpt lat="43.28829" lon="6.38673">
        <ele>654</ele>
        <time>2017-09-04T09:27:13Z</time>
      </trkpt>
      <trkpt lat="43.28846" lon="6.3862">
        <ele>653</ele>
        <time>2017-09-04T09:27:28Z</time>
      </trkpt>
      <trkpt lat="43.2887" lon="6.38574">
        <ele>652</ele>
        <time>2017-09-04T09:27:39Z</time>
      </trkpt>
      <trkpt lat="43.28904" lon="6.38541">
        <ele>652</ele>
        <time>2017-09-04T09:27:52Z</time>
      </trkpt>
      <trkpt lat="43.28941" lon="6.38511">
        <ele>652</ele>
        <time>2017-09-04T09:28:04Z</time>
      </trkpt>
      <trkpt lat="43.28961" lon="6.38463">
        <ele>651</ele>
        <time>2017-09-04T09:28:16Z</time>
      </trkpt>
      <trkpt lat="43.28965" lon="6.38409">
        <ele>654</ele>
        <time>2017-09-04T09:28:29Z</time>
      </trkpt>
      <trkpt lat="43.28969" lon="6.38356">
        <ele>655</ele>
        <time>2017-09-04T09:28:41Z</time>
      </trkpt>
      <trkpt lat="43.28983" lon="6.383">
        <ele>655</ele>
        <time>2017-09-04T09:28:54Z</time>
      </trkpt>
      <trkpt lat="43.28998" lon="6.3825">
        <ele>655</ele>
        <time>2017-09-04T09:29:05Z</time>
      </trkpt>
      <trkpt lat="43.28993" lon="6.38194">
        <ele>652</ele>
        <time>2017-09-04T09:29:15Z</time>
      </trkpt>
      <trkpt lat="43.28985" lon="6.38138">
        <ele>652</ele>
        <time>2017-09-04T09:29:24Z</time>
      </trkpt>
      <trkpt lat="43.28974" lon="6.38084">
        <ele>652</ele>
        <time>2017-09-04T09:29:34Z</time>
      </trkpt>
      <trkpt lat="43.28952" lon="6.38033">
        <ele>648</ele>
        <time>2017-09-04T09:29:44Z</time>
      </trkpt>
      <trkpt lat="43.28922" lon="6.37992">
        <ele>647</ele>
        <time>2017-09-04T09:29:52Z</time>
      </trkpt>
      <trkpt lat="43.28885" lon="6.37961">
        <ele>648</ele>
        <time>2017-09-04T09:29:59Z</time>
      </trkpt>
      <trkpt lat="43.28847" lon="6.3794">
        <ele>648</ele>
        <time>2017-09-04T09:30:06Z</time>
      </trkpt>
      <trkpt lat="43.28809" lon="6.37919">
        <ele>646</ele>
        <time>2017-09-04T09:30:14Z</time>
      </trkpt>
      <trkpt lat="43.28769" lon="6.37899">
        <ele>645</ele>
        <time>2017-09-04T09:30:23Z</time>
      </trkpt>
      <trkpt lat="43.2873" lon="6.37878">
        <ele>644</ele>
        <time>2017-09-04T09:30:35Z</time>
      </trkpt>
      <trkpt lat="43.28693" lon="6.37854">
        <ele>644</ele>
        <time>2017-09-04T09:30:46Z</time>
      </trkpt>
      <trkpt lat="43.28654" lon="6.37823">
        <ele>643</ele>
        <time>2017-09-04T09:30:54Z</time>
      </trkpt>
      <trkpt lat="43.28619" lon="6.37792">
        <ele>642</ele>
        <time>2017-09-04T09:31:00Z</time>
      </trkpt>
      <trkpt lat="43.28581" lon="6.37758">
        <ele>640</ele>
        <time>2017-09-04T09:31:06Z</time>
      </trkpt>
      <trkpt lat="43.28544" lon="6.37723">
        <ele>638</ele>
        <time>2017-09-04T09:31:11Z</time>
      </trkpt>
      <trkpt lat="43.28501" lon="6.37685">
        <ele>631</ele>
        <time>2017-09-04T09:31:16Z</time>
      </trkpt>
      <trkpt lat="43.28467" lon="6.37653">
        <ele>628</ele>
        <time>2017-09-04T09:31:20Z</time>
      </trkpt>
      <trkpt lat="43.28426" lon="6.37616">
        <ele>624</ele>
        <time>2017-09-04T09:31:25Z</time>
      </trkpt>
      <trkpt lat="43.28392" lon="6.37585">
        <ele>620</ele>
        <time>2017-09-04T09:31:30Z</time>
      </trkpt>
      <trkpt lat="43.28359" lon="6.37552">
        <ele>615</ele>
        <time>2017-09-04T09:31:35Z</time>
      </trkpt>
      <trkpt lat="43.28318" lon="6.37516">
        <ele>611</ele>
        <time>2017-09-04T09:31:40Z</time>
      </trkpt>
      <trkpt lat="43.28277" lon="6.3748">
        <ele>610</ele>
        <time>2017-09-04T09:31:46Z</time>
      </trkpt>
      <trkpt lat="43.28241" lon="6.37448">
        <ele>610</ele>
        <time>2017-09-04T09:31:55Z</time>
      </trkpt>
      <trkpt lat="43.2821" lon="6.37417">
        <ele>611</ele>
        <time>2017-09-04T09:32:08Z</time>
      </trkpt>
      <trkpt lat="43.28175" lon="6.37387">
        <ele>613</ele>
        <time>2017-09-04T09:32:20Z</time>
      </trkpt>
      <trkpt lat="43.28137" lon="6.37355">
        <ele>613</ele>
        <time>2017-09-04T09:32:31Z</time>
      </trkpt>
      <trkpt lat="43.281" lon="6.37325">
        <ele>613</ele>
        <time>2017-09-04T09:32:39Z</time>
      </trkpt>
      <trkpt lat="43.28065" lon="6.373">
        <ele>612</ele>
        <time>2017-09-04T09:32:46Z</time>
      </trkpt>
      <trkpt lat="43.28026" lon="6.37272">
        <ele>610</ele>
        <time>2017-09-04T09:32:53Z</time>
      </trkpt>
      <trkpt lat="43.27984" lon="6.37242">
        <ele>609</ele>
        <time>2017-09-04T09:33:00Z</time>
      </trkpt>
      <trkpt lat="43.27947" lon="6.37216">
        <ele>608</ele>
        <time>2017-09-04T09:33:06Z</time>
      </trkpt>
      <trkpt lat="43.27905" lon="6.37191">
        <ele>606</ele>
        <time>2017-09-04T09:33:13Z</time>
      </trkpt>
      <trkpt lat="43.2787" lon="6.37174">
        <ele>606</ele>
        <time>2017-09-04T09:33:49Z</time>
      </trkpt>
      <trkpt lat="43.27862" lon="6.37165">
        <ele>606</ele>
        <time>2017-09-04T09:34:09Z</time>
      </trkpt>
      <trkpt lat="43.27883" lon="6.3717">
        <ele>605</ele>
        <time>2017-09-04T09:34:33Z</time>
      </trkpt>
      <trkpt lat="43.27854" lon="6.37124">
        <ele>602</ele>
        <time>2017-09-04T09:34:43Z</time>
      </trkpt>
      <trkpt lat="43.27832" lon="6.37079">
        <ele>601</ele>
        <time>2017-09-04T09:34:49Z</time>
      </trkpt>
      <trkpt lat="43.27818" lon="6.37024">
        <ele>599</ele>
        <time>2017-09-04T09:34:55Z</time>
      </trkpt>
      <trkpt lat="43.27834" lon="6.36976">
        <ele>597</ele>
        <time>2017-09-04T09:35:02Z</time>
      </trkpt>
      <trkpt lat="43.27859" lon="6.36928">
        <ele>590</ele>
        <time>2017-09-04T09:35:09Z</time>
      </trkpt>
      <trkpt lat="43.27855" lon="6.36874">
        <ele>589</ele>
        <time>2017-09-04T09:35:16Z</time>
      </trkpt>
      <trkpt lat="43.2782" lon="6.36839">
        <ele>593</ele>
        <time>2017-09-04T09:35:22Z</time>
      </trkpt>
      <trkpt lat="43.27822" lon="6.36782">
        <ele>585</ele>
        <time>2017-09-04T09:35:28Z</time>
      </trkpt>
      <trkpt lat="43.27817" lon="6.36727">
        <ele>585</ele>
        <time>2017-09-04T09:35:34Z</time>
      </trkpt>
      <trkpt lat="43.27835" lon="6.36676">
        <ele>584</ele>
        <time>2017-09-04T09:35:40Z</time>
      </trkpt>
      <trkpt lat="43.27877" lon="6.36651">
        <ele>582</ele>
        <time>2017-09-04T09:35:46Z</time>
      </trkpt>
      <trkpt lat="43.27919" lon="6.36643">
        <ele>579</ele>
        <time>2017-09-04T09:35:51Z</time>
      </trkpt>
      <trkpt lat="43.27964" lon="6.36638">
        <ele>572</ele>
        <time>2017-09-04T09:35:56Z</time>
      </trkpt>
      <trkpt lat="43.28005" lon="6.36608">
        <ele>569</ele>
        <time>2017-09-04T09:36:02Z</time>
      </trkpt>
      <trkpt lat="43.2804" lon="6.36575">
        <ele>567</ele>
        <time>2017-09-04T09:36:07Z</time>
      </trkpt>
      <trkpt lat="43.28072" lon="6.36539">
        <ele>562</ele>
        <time>2017-09-04T09:36:13Z</time>
      </trkpt>
      <trkpt lat="43.28092" lon="6.36484">
        <ele>558</ele>
        <time>2017-09-04T09:36:18Z</time>
      </trkpt>
      <trkpt lat="43.28095" lon="6.36425">
        <ele>556</ele>
        <time>2017-09-04T09:36:23Z</time>
      </trkpt>
      <trkpt lat="43.28104" lon="6.36369">
        <ele>554</ele>
        <time>2017-09-04T09:36:29Z</time>
      </trkpt>
      <trkpt lat="43.28103" lon="6.36313">
        <ele>556</ele>
        <time>2017-09-04T09:36:36Z</time>
      </trkpt>
      <trkpt lat="43.28102" lon="6.36284">
        <ele>557</ele>
        <time>2017-09-04T09:36:53Z</time>
      </trkpt>
      <trkpt lat="43.28104" lon="6.36268">
        <ele>557</ele>
        <time>2017-09-04T09:38:39Z</time>
      </trkpt>
      <trkpt lat="43.28137" lon="6.36233">
        <ele>559</ele>
        <time>2017-09-04T09:39:01Z</time>
      </trkpt>
      <trkpt lat="43.28173" lon="6.36204">
        <ele>560</ele>
        <time>2017-09-04T09:39:27Z</time>
      </trkpt>
      <trkpt lat="43.28212" lon="6.36171">
        <ele>564</ele>
        <time>2017-09-04T09:39:54Z</time>
      </trkpt>
      <trkpt lat="43.28252" lon="6.36144">
        <ele>566</ele>
        <time>2017-09-04T09:40:23Z</time>
      </trkpt>
      <trkpt lat="43.28288" lon="6.36114">
        <ele>571</ele>
        <time>2017-09-04T09:40:51Z</time>
      </trkpt>
      <trkpt lat="43.28326" lon="6.36092">
        <ele>575</ele>
        <time>2017-09-04T09:41:16Z</time>
      </trkpt>
      <trkpt lat="43.28366" lon="6.36093">
        <ele>578</ele>
        <time>2017-09-04T09:41:44Z</time>
      </trkpt>
      <trkpt lat="43.28405" lon="6.36121">
        <ele>579</ele>
        <time>2017-09-04T09:42:50Z</time>
      </trkpt>
      <trkpt lat="43.2845" lon="6.36135">
        <ele>581</ele>
        <time>2017-09-04T09:43:18Z</time>
      </trkpt>
      <trkpt lat="43.28493" lon="6.36125">
        <ele>581</ele>
        <time>2017-09-04T09:43:44Z</time>
      </trkpt>
      <trkpt lat="43.28481" lon="6.36091">
        <ele>585</ele>
        <time>2017-09-04T09:44:08Z</time>
      </trkpt>
      <trkpt lat="43.28441" lon="6.36096">
        <ele>587</ele>
        <time>2017-09-04T09:44:34Z</time>
      </trkpt>
      <trkpt lat="43.28409" lon="6.36058">
        <ele>594</ele>
        <time>2017-09-04T09:44:54Z</time>
      </trkpt>
      <trkpt lat="43.28374" lon="6.36027">
        <ele>600</ele>
        <time>2017-09-04T09:45:16Z</time>
      </trkpt>
      <trkpt lat="43.2833" lon="6.36017">
        <ele>601</ele>
        <time>2017-09-04T09:45:36Z</time>
      </trkpt>
      <trkpt lat="43.28288" lon="6.36017">
        <ele>602</ele>
        <time>2017-09-04T09:45:57Z</time>
      </trkpt>
      <trkpt lat="43.28245" lon="6.36017">
        <ele>604</ele>
        <time>2017-09-04T09:46:20Z</time>
      </trkpt>
      <trkpt lat="43.2821" lon="6.3599">
        <ele>606</ele>
        <time>2017-09-04T09:46:41Z</time>
      </trkpt>
      <trkpt lat="43.28197" lon="6.35934">
        <ele>610</ele>
        <time>2017-09-04T09:47:00Z</time>
      </trkpt>
      <trkpt lat="43.28179" lon="6.35878">
        <ele>614</ele>
        <time>2017-09-04T09:47:19Z</time>
      </trkpt>
      <trkpt lat="43.28155" lon="6.35832">
        <ele>616</ele>
        <time>2017-09-04T09:47:42Z</time>
      </trkpt>
      <trkpt lat="43.28116" lon="6.35809">
        <ele>617</ele>
        <time>2017-09-04T09:48:08Z</time>
      </trkpt>
      <trkpt lat="43.28078" lon="6.35796">
        <ele>617</ele>
        <time>2017-09-04T09:48:32Z</time>
      </trkpt>
      <trkpt lat="43.28053" lon="6.3576">
        <ele>621</ele>
        <time>2017-09-04T09:48:57Z</time>
      </trkpt>
      <trkpt lat="43.28045" lon="6.357">
        <ele>626</ele>
        <time>2017-09-04T09:49:27Z</time>
      </trkpt>
      <trkpt lat="43.28028" lon="6.35649">
        <ele>631</ele>
        <time>2017-09-04T09:49:51Z</time>
      </trkpt>
      <trkpt lat="43.27989" lon="6.35641">
        <ele>628</ele>
        <time>2017-09-04T09:50:17Z</time>
      </trkpt>
      <trkpt lat="43.27954" lon="6.35616">
        <ele>631</ele>
        <time>2017-09-04T09:50:43Z</time>
      </trkpt>
      <trkpt lat="43.27924" lon="6.35584">
        <ele>635</ele>
        <time>2017-09-04T09:51:06Z</time>
      </trkpt>
      <trkpt lat="43.27882" lon="6.35582">
        <ele>634</ele>
        <time>2017-09-04T09:51:28Z</time>
      </trkpt>
      <trkpt lat="43.27843" lon="6.35572">
        <ele>638</ele>
        <time>2017-09-04T09:51:47Z</time>
      </trkpt>
      <trkpt lat="43.27826" lon="6.35539">
        <ele>638</ele>
        <time>2017-09-04T09:53:08Z</time>
      </trkpt>
      <trkpt lat="43.27852" lon="6.35487">
        <ele>639</ele>
        <time>2017-09-04T09:53:18Z</time>
      </trkpt>
      <trkpt lat="43.27867" lon="6.35428">
        <ele>639</ele>
        <time>2017-09-04T09:53:25Z</time>
      </trkpt>
      <trkpt lat="43.27876" lon="6.3537">
        <ele>640</ele>
        <time>2017-09-04T09:53:31Z</time>
      </trkpt>
      <trkpt lat="43.27887" lon="6.35311">
        <ele>640</ele>
        <time>2017-09-04T09:53:37Z</time>
      </trkpt>
      <trkpt lat="43.27893" lon="6.35255">
        <ele>637</ele>
        <time>2017-09-04T09:53:45Z</time>
      </trkpt>
      <trkpt lat="43.27892" lon="6.35203">
        <ele>630</ele>
        <time>2017-09-04T09:53:55Z</time>
      </trkpt>
      <trkpt lat="43.27909" lon="6.35151">
        <ele>628</ele>
        <time>2017-09-04T09:54:03Z</time>
      </trkpt>
      <trkpt lat="43.27933" lon="6.35107">
        <ele>624</ele>
        <time>2017-09-04T09:54:10Z</time>
      </trkpt>
      <trkpt lat="43.27969" lon="6.35074">
        <ele>622</ele>
        <time>2017-09-04T09:54:17Z</time>
      </trkpt>
      <trkpt lat="43.27992" lon="6.35026">
        <ele>620</ele>
        <time>2017-09-04T09:54:23Z</time>
      </trkpt>
      <trkpt lat="43.27993" lon="6.34962">
        <ele>614</ele>
        <time>2017-09-04T09:54:29Z</time>
      </trkpt>
      <trkpt lat="43.2799" lon="6.34905">
        <ele>610</ele>
        <time>2017-09-04T09:54:37Z</time>
      </trkpt>
      <trkpt lat="43.28006" lon="6.34854">
        <ele>611</ele>
        <time>2017-09-04T09:54:46Z</time>
      </trkpt>
      <trkpt lat="43.28045" lon="6.34827">
        <ele>609</ele>
        <time>2017-09-04T09:54:55Z</time>
      </trkpt>
      <trkpt lat="43.28075" lon="6.34789">
        <ele>603</ele>
        <time>2017-09-04T09:55:03Z</time>
      </trkpt>
      <trkpt lat="43.281" lon="6.3474">
        <ele>603</ele>
        <time>2017-09-04T09:55:11Z</time>
      </trkpt>
      <trkpt lat="43.2813" lon="6.34699">
        <ele>603</ele>
        <time>2017-09-04T09:55:19Z</time>
      </trkpt>
      <trkpt lat="43.28165" lon="6.34667">
        <ele>600</ele>
        <time>2017-09-04T09:55:26Z</time>
      </trkpt>
      <trkpt lat="43.28182" lon="6.34619">
        <ele>597</ele>
        <time>2017-09-04T09:55:33Z</time>
      </trkpt>
      <trkpt lat="43.28174" lon="6.34565">
        <ele>600</ele>
        <time>2017-09-04T09:55:41Z</time>
      </trkpt>
      <trkpt lat="43.28193" lon="6.34512">
        <ele>594</ele>
        <time>2017-09-04T09:55:49Z</time>
      </trkpt>
      <trkpt lat="43.28224" lon="6.34476">
        <ele>590</ele>
        <time>2017-09-04T09:55:56Z</time>
      </trkpt>
      <trkpt lat="43.28246" lon="6.34429">
        <ele>591</ele>
        <time>2017-09-04T09:56:03Z</time>
      </trkpt>
      <trkpt lat="43.2824" lon="6.34372">
        <ele>592</ele>
        <time>2017-09-04T09:56:10Z</time>
      </trkpt>
      <trkpt lat="43.28214" lon="6.34325">
        <ele>592</ele>
        <time>2017-09-04T09:56:17Z</time>
      </trkpt>
      <trkpt lat="43.28187" lon="6.34282">
        <ele>589</ele>
        <time>2017-09-04T09:56:24Z</time>
      </trkpt>
      <trkpt lat="43.28167" lon="6.34232">
        <ele>589</ele>
        <time>2017-09-04T09:56:31Z</time>
      </trkpt>
      <trkpt lat="43.28178" lon="6.34175">
        <ele>581</ele>
        <time>2017-09-04T09:56:37Z</time>
      </trkpt>
      <trkpt lat="43.28174" lon="6.34129">
        <ele>580</ele>
        <time>2017-09-04T09:56:44Z</time>
      </trkpt>
      <trkpt lat="43.28169" lon="6.34069">
        <ele>580</ele>
        <time>2017-09-04T09:57:09Z</time>
      </trkpt>
      <trkpt lat="43.28184" lon="6.34008">
        <ele>575</ele>
        <time>2017-09-04T09:57:18Z</time>
      </trkpt>
      <trkpt lat="43.28195" lon="6.33943">
        <ele>571</ele>
        <time>2017-09-04T09:57:26Z</time>
      </trkpt>
      <trkpt lat="43.28201" lon="6.3389">
        <ele>574</ele>
        <time>2017-09-04T09:57:33Z</time>
      </trkpt>
      <trkpt lat="43.28226" lon="6.33856">
        <ele>576</ele>
        <time>2017-09-04T09:57:40Z</time>
      </trkpt>
      <trkpt lat="43.28257" lon="6.33879">
        <ele>569</ele>
        <time>2017-09-04T09:57:47Z</time>
      </trkpt>
      <trkpt lat="43.28301" lon="6.33883">
        <ele>563</ele>
        <time>2017-09-04T09:57:54Z</time>
      </trkpt>
      <trkpt lat="43.2832" lon="6.33829">
        <ele>566</ele>
        <time>2017-09-04T09:58:02Z</time>
      </trkpt>
      <trkpt lat="43.2833" lon="6.33773">
        <ele>563</ele>
        <time>2017-09-04T09:58:08Z</time>
      </trkpt>
      <trkpt lat="43.28331" lon="6.33709">
        <ele>560</ele>
        <time>2017-09-04T09:58:15Z</time>
      </trkpt>
      <trkpt lat="43.28301" lon="6.3367">
        <ele>564</ele>
        <time>2017-09-04T09:58:21Z</time>
      </trkpt>
      <trkpt lat="43.28267" lon="6.33635">
        <ele>564</ele>
        <time>2017-09-04T09:58:27Z</time>
      </trkpt>
      <trkpt lat="43.2824" lon="6.33599">
        <ele>566</ele>
        <time>2017-09-04T09:58:33Z</time>
      </trkpt>
      <trkpt lat="43.28252" lon="6.33542">
        <ele>557</ele>
        <time>2017-09-04T09:58:41Z</time>
      </trkpt>
      <trkpt lat="43.28242" lon="6.33485">
        <ele>559</ele>
        <time>2017-09-04T09:58:48Z</time>
      </trkpt>
      <trkpt lat="43.28241" lon="6.3342">
        <ele>557</ele>
        <time>2017-09-04T09:58:55Z</time>
      </trkpt>
      <trkpt lat="43.28254" lon="6.33365">
        <ele>554</ele>
        <time>2017-09-04T09:59:01Z</time>
      </trkpt>
      <trkpt lat="43.28286" lon="6.33323">
        <ele>553</ele>
        <time>2017-09-04T09:59:07Z</time>
      </trkpt>
      <trkpt lat="43.28327" lon="6.333">
        <ele>550</ele>
        <time>2017-09-04T09:59:15Z</time>
      </trkpt>
      <trkpt lat="43.28359" lon="6.33269">
        <ele>544</ele>
        <time>2017-09-04T09:59:22Z</time>
      </trkpt>
      <trkpt lat="43.28367" lon="6.3321">
        <ele>545</ele>
        <time>2017-09-04T09:59:30Z</time>
      </trkpt>
      <trkpt lat="43.28382" lon="6.33161">
        <ele>545</ele>
        <time>2017-09-04T09:59:39Z</time>
      </trkpt>
      <trkpt lat="43.28418" lon="6.33139">
        <ele>540</ele>
        <time>2017-09-04T10:00:07Z</time>
      </trkpt>
      <trkpt lat="43.28455" lon="6.33129">
        <ele>540</ele>
        <time>2017-09-04T10:00:14Z</time>
      </trkpt>
      <trkpt lat="43.28499" lon="6.33127">
        <ele>538</ele>
        <time>2017-09-04T10:00:21Z</time>
      </trkpt>
      <trkpt lat="43.28542" lon="6.33126">
        <ele>536</ele>
        <time>2017-09-04T10:00:28Z</time>
      </trkpt>
      <trkpt lat="43.28586" lon="6.33116">
        <ele>530</ele>
        <time>2017-09-04T10:00:35Z</time>
      </trkpt>
      <trkpt lat="43.28606" lon="6.33059">
        <ele>528</ele>
        <time>2017-09-04T10:00:42Z</time>
      </trkpt>
      <trkpt lat="43.286" lon="6.33001">
        <ele>529</ele>
        <time>2017-09-04T10:00:48Z</time>
      </trkpt>
      <trkpt lat="43.28593" lon="6.32944">
        <ele>526</ele>
        <time>2017-09-04T10:00:56Z</time>
      </trkpt>
      <trkpt lat="43.28587" lon="6.3289">
        <ele>525</ele>
        <time>2017-09-04T10:01:03Z</time>
      </trkpt>
      <trkpt lat="43.28597" lon="6.32835">
        <ele>522</ele>
        <time>2017-09-04T10:01:14Z</time>
      </trkpt>
      <trkpt lat="43.28627" lon="6.32794">
        <ele>514</ele>
        <time>2017-09-04T10:01:23Z</time>
      </trkpt>
      <trkpt lat="43.28637" lon="6.32776">
        <ele>512</ele>
        <time>2017-09-04T10:03:01Z</time>
      </trkpt>
      <trkpt lat="43.28596" lon="6.32775">
        <ele>516</ele>
        <time>2017-09-04T10:03:21Z</time>
      </trkpt>
      <trkpt lat="43.28553" lon="6.32779">
        <ele>520</ele>
        <time>2017-09-04T10:03:40Z</time>
      </trkpt>
      <trkpt lat="43.28512" lon="6.32768">
        <ele>524</ele>
        <time>2017-09-04T10:04:00Z</time>
      </trkpt>
      <trkpt lat="43.28478" lon="6.32736">
        <ele>523</ele>
        <time>2017-09-04T10:04:23Z</time>
      </trkpt>
      <trkpt lat="43.28436" lon="6.32723">
        <ele>528</ele>
        <time>2017-09-04T10:04:46Z</time>
      </trkpt>
      <trkpt lat="43.28396" lon="6.32712">
        <ele>532</ele>
        <time>2017-09-04T10:05:10Z</time>
      </trkpt>
      <trkpt lat="43.28361" lon="6.32683">
        <ele>532</ele>
        <time>2017-09-04T10:05:31Z</time>
      </trkpt>
      <trkpt lat="43.28329" lon="6.32653">
        <ele>528</ele>
        <time>2017-09-04T10:05:52Z</time>
      </trkpt>
      <trkpt lat="43.2831" lon="6.32598">
        <ele>526</ele>
        <time>2017-09-04T10:07:05Z</time>
      </trkpt>
      <trkpt lat="43.28305" lon="6.32542">
        <ele>526</ele>
        <time>2017-09-04T10:07:21Z</time>
      </trkpt>
      <trkpt lat="43.28305" lon="6.32487">
        <ele>527</ele>
        <time>2017-09-04T10:07:32Z</time>
      </trkpt>
      <trkpt lat="43.28313" lon="6.32431">
        <ele>527</ele>
        <time>2017-09-04T10:07:43Z</time>
      </trkpt>
      <trkpt lat="43.28316" lon="6.32373">
        <ele>526</ele>
        <time>2017-09-04T10:07:51Z</time>
      </trkpt>
      <trkpt lat="43.28314" lon="6.3231">
        <ele>525</ele>
        <time>2017-09-04T10:07:59Z</time>
      </trkpt>
      <trkpt lat="43.2831" lon="6.32255">
        <ele>524</ele>
        <time>2017-09-04T10:08:08Z</time>
      </trkpt>
      <trkpt lat="43.28293" lon="6.32197">
        <ele>527</ele>
        <time>2017-09-04T10:08:21Z</time>
      </trkpt>
      <trkpt lat="43.28284" lon="6.3214">
        <ele>532</ele>
        <time>2017-09-04T10:08:35Z</time>
      </trkpt>
      <trkpt lat="43.28274" lon="6.32084">
        <ele>538</ele>
        <time>2017-09-04T10:09:10Z</time>
      </trkpt>
      <trkpt lat="43.2825" lon="6.32021">
        <ele>543</ele>
        <time>2017-09-04T10:09:59Z</time>
      </trkpt>
      <trkpt lat="43.28262" lon="6.31973">
        <ele>544</ele>
        <time>2017-09-04T10:10:26Z</time>
      </trkpt>
      <trkpt lat="43.28297" lon="6.31945">
        <ele>547</ele>
        <time>2017-09-04T10:10:47Z</time>
      </trkpt>
      <trkpt lat="43.28332" lon="6.31911">
        <ele>549</ele>
        <time>2017-09-04T10:11:04Z</time>
      </trkpt>
      <trkpt lat="43.28357" lon="6.31865">
        <ele>546</ele>
        <time>2017-09-04T10:11:18Z</time>
      </trkpt>
      <trkpt lat="43.28376" lon="6.31813">
        <ele>548</ele>
        <time>2017-09-04T10:11:34Z</time>
      </trkpt>
      <trkpt lat="43.28389" lon="6.31764">
        <ele>554</ele>
        <time>2017-09-04T10:11:55Z</time>
      </trkpt>
      <trkpt lat="43.28407" lon="6.31715">
        <ele>563</ele>
        <time>2017-09-04T10:12:29Z</time>
      </trkpt>
      <trkpt lat="43.28425" lon="6.31665">
        <ele>571</ele>
        <time>2017-09-04T10:13:02Z</time>
      </trkpt>
      <trkpt lat="43.2843" lon="6.3161">
        <ele>574</ele>
        <time>2017-09-04T10:13:28Z</time>
      </trkpt>
      <trkpt lat="43.28433" lon="6.31555">
        <ele>576</ele>
        <time>2017-09-04T10:13:51Z</time>
      </trkpt>
      <trkpt lat="43.28431" lon="6.31499">
        <ele>574</ele>
        <time>2017-09-04T10:14:18Z</time>
      </trkpt>
      <trkpt lat="43.28441" lon="6.31446">
        <ele>575</ele>
        <time>2017-09-04T10:14:47Z</time>
      </trkpt>
      <trkpt lat="43.28474" lon="6.31418">
        <ele>581</ele>
        <time>2017-09-04T10:15:14Z</time>
      </trkpt>
      <trkpt lat="43.28507" lon="6.31384">
        <ele>586</ele>
        <time>2017-09-04T10:15:42Z</time>
      </trkpt>
      <trkpt lat="43.28517" lon="6.31336">
        <ele>585</ele>
        <time>2017-09-04T10:16:12Z</time>
      </trkpt>
      <trkpt lat="43.28523" lon="6.31286">
        <ele>587</ele>
        <time>2017-09-04T10:16:44Z</time>
      </trkpt>
      <trkpt lat="43.28531" lon="6.31227">
        <ele>594</ele>
        <time>2017-09-04T10:17:17Z</time>
      </trkpt>
      <trkpt lat="43.28498" lon="6.3121">
        <ele>588</ele>
        <time>2017-09-04T10:17:39Z</time>
      </trkpt>
      <trkpt lat="43.28461" lon="6.31194">
        <ele>591</ele>
        <time>2017-09-04T10:17:58Z</time>
      </trkpt>
      <trkpt lat="43.28433" lon="6.31159">
        <ele>595</ele>
        <time>2017-09-04T10:18:19Z</time>
      </trkpt>
      <trkpt lat="43.28405" lon="6.31117">
        <ele>597</ele>
        <time>2017-09-04T10:18:41Z</time>
      </trkpt>
      <trkpt lat="43.28428" lon="6.31132">
        <ele>602</ele>
        <time>2017-09-04T10:19:06Z</time>
      </trkpt>
      <trkpt lat="43.28461" lon="6.31161">
        <ele>604</ele>
        <time>2017-09-04T10:19:34Z</time>
      </trkpt>
      <trkpt lat="43.28502" lon="6.31169">
        <ele>605</ele>
        <time>2017-09-04T10:20:05Z</time>
      </trkpt>
      <trkpt lat="43.2854" lon="6.31162">
        <ele>613</ele>
        <time>2017-09-04T10:20:36Z</time>
      </trkpt>
      <trkpt lat="43.28573" lon="6.31179">
        <ele>622</ele>
        <time>2017-09-04T10:21:30Z</time>
      </trkpt>
      <trkpt lat="43.28588" lon="6.31227">
        <ele>624</ele>
        <time>2017-09-04T10:22:00Z</time>
      </trkpt>
      <trkpt lat="43.28597" lon="6.3128">
        <ele>626</ele>
        <time>2017-09-04T10:22:31Z</time>
      </trkpt>
      <trkpt lat="43.2861" lon="6.3133">
        <ele>629</ele>
        <time>2017-09-04T10:23:02Z</time>
      </trkpt>
      <trkpt lat="43.28622" lon="6.31383">
        <ele>630</ele>
        <time>2017-09-04T10:23:31Z</time>
      </trkpt>
      <trkpt lat="43.28643" lon="6.31424">
        <ele>628</ele>
        <time>2017-09-04T10:24:01Z</time>
      </trkpt>
      <trkpt lat="43.28639" lon="6.31383">
        <ele>634</ele>
        <time>2017-09-04T10:24:49Z</time>
      </trkpt>
      <trkpt lat="43.28634" lon="6.3133">
        <ele>641</ele>
        <time>2017-09-04T10:25:15Z</time>
      </trkpt>
      <trkpt lat="43.2863" lon="6.31278">
        <ele>644</ele>
        <time>2017-09-04T10:25:46Z</time>
      </trkpt>
      <trkpt lat="43.28637" lon="6.31223">
        <ele>652</ele>
        <time>2017-09-04T10:26:19Z</time>
      </trkpt>
      <trkpt lat="43.28639" lon="6.31165">
        <ele>657</ele>
        <time>2017-09-04T10:26:55Z</time>
      </trkpt>
      <trkpt lat="43.28634" lon="6.31113">
        <ele>661</ele>
        <time>2017-09-04T10:27:30Z</time>
      </trkpt>
      <trkpt lat="43.28622" lon="6.31059">
        <ele>665</ele>
        <time>2017-09-04T10:28:04Z</time>
      </trkpt>
      <trkpt lat="43.28597" lon="6.31018">
        <ele>664</ele>
        <time>2017-09-04T10:28:34Z</time>
      </trkpt>
      <trkpt lat="43.28561" lon="6.31001">
        <ele>665</ele>
        <time>2017-09-04T10:29:30Z</time>
      </trkpt>
      <trkpt lat="43.28525" lon="6.30976">
        <ele>667</ele>
        <time>2017-09-04T10:29:59Z</time>
      </trkpt>
      <trkpt lat="43.28487" lon="6.30941">
        <ele>669</ele>
        <time>2017-09-04T10:30:32Z</time>
      </trkpt>
      <trkpt lat="43.28462" lon="6.30897">
        <ele>671</ele>
        <time>2017-09-04T10:30:53Z</time>
      </trkpt>
      <trkpt lat="43.28438" lon="6.3084">
        <ele>670</ele>
        <time>2017-09-04T10:31:05Z</time>
      </trkpt>
      <trkpt lat="43.28408" lon="6.30799">
        <ele>671</ele>
        <time>2017-09-04T10:31:14Z</time>
      </trkpt>
      <trkpt lat="43.28375" lon="6.30755">
        <ele>671</ele>
        <time>2017-09-04T10:31:28Z</time>
      </trkpt>
      <trkpt lat="43.28342" lon="6.30708">
        <ele>671</ele>
        <time>2017-09-04T10:31:38Z</time>
      </trkpt>
      <trkpt lat="43.28309" lon="6.30665">
        <ele>670</ele>
        <time>2017-09-04T10:31:48Z</time>
      </trkpt>
      <trkpt lat="43.28278" lon="6.30622">
        <ele>666</ele>
        <time>2017-09-04T10:31:56Z</time>
      </trkpt>
      <trkpt lat="43.28255" lon="6.30578">
        <ele>665</ele>
        <time>2017-09-04T10:32:05Z</time>
      </trkpt>
      <trkpt lat="43.28252" lon="6.30515">
        <ele>662</ele>
        <time>2017-09-04T10:32:19Z</time>
      </trkpt>
      <trkpt lat="43.28246" lon="6.30456">
        <ele>661</ele>
        <time>2017-09-04T10:32:27Z</time>
      </trkpt>
      <trkpt lat="43.28232" lon="6.30403">
        <ele>662</ele>
        <time>2017-09-04T10:32:42Z</time>
      </trkpt>
      <trkpt lat="43.2823" lon="6.30344">
        <ele>660</ele>
        <time>2017-09-04T10:32:52Z</time>
      </trkpt>
      <trkpt lat="43.28232" lon="6.30285">
        <ele>660</ele>
        <time>2017-09-04T10:33:01Z</time>
      </trkpt>
      <trkpt lat="43.28229" lon="6.30227">
        <ele>662</ele>
        <time>2017-09-04T10:33:10Z</time>
      </trkpt>
      <trkpt lat="43.28216" lon="6.30171">
        <ele>662</ele>
        <time>2017-09-04T10:33:26Z</time>
      </trkpt>
      <trkpt lat="43.282" lon="6.30107">
        <ele>662</ele>
        <time>2017-09-04T10:33:49Z</time>
      </trkpt>
      <trkpt lat="43.28185" lon="6.30048">
        <ele>665</ele>
        <time>2017-09-04T10:34:10Z</time>
      </trkpt>
      <trkpt lat="43.28177" lon="6.29987">
        <ele>666</ele>
        <time>2017-09-04T10:34:29Z</time>
      </trkpt>
      <trkpt lat="43.28176" lon="6.29928">
        <ele>666</ele>
        <time>2017-09-04T10:34:47Z</time>
      </trkpt>
      <trkpt lat="43.28155" lon="6.2987">
        <ele>671</ele>
        <time>2017-09-04T10:35:17Z</time>
      </trkpt>
      <trkpt lat="43.28132" lon="6.29814">
        <ele>675</ele>
        <time>2017-09-04T10:35:37Z</time>
      </trkpt>
      <trkpt lat="43.28106" lon="6.29767">
        <ele>678</ele>
        <time>2017-09-04T10:36:01Z</time>
      </trkpt>
      <trkpt lat="43.28077" lon="6.29733">
        <ele>681</ele>
        <time>2017-09-04T10:36:25Z</time>
      </trkpt>
      <trkpt lat="43.28038" lon="6.29717">
        <ele>681</ele>
        <time>2017-09-04T10:36:49Z</time>
      </trkpt>
      <trkpt lat="43.27997" lon="6.29707">
        <ele>684</ele>
        <time>2017-09-04T10:37:12Z</time>
      </trkpt>
      <trkpt lat="43.27957" lon="6.2971">
        <ele>686</ele>
        <time>2017-09-04T10:37:38Z</time>
      </trkpt>
      <trkpt lat="43.27917" lon="6.29714">
        <ele>688</ele>
        <time>2017-09-04T10:38:02Z</time>
      </trkpt>
      <trkpt lat="43.27905" lon="6.29669">
        <ele>687</ele>
        <time>2017-09-04T10:38:27Z</time>
      </trkpt>
      <trkpt lat="43.27936" lon="6.29632">
        <ele>693</ele>
        <time>2017-09-04T10:39:19Z</time>
      </trkpt>
      <trkpt lat="43.27966" lon="6.29592">
        <ele>697</ele>
        <time>2017-09-04T10:39:42Z</time>
      </trkpt>
      <trkpt lat="43.27986" lon="6.2954">
        <ele>699</ele>
        <time>2017-09-04T10:40:10Z</time>
      </trkpt>
      <trkpt lat="43.28003" lon="6.29488">
        <ele>702</ele>
        <time>2017-09-04T10:40:35Z</time>
      </trkpt>
      <trkpt lat="43.28015" lon="6.29429">
        <ele>706</ele>
        <time>2017-09-04T10:40:59Z</time>
      </trkpt>
      <trkpt lat="43.28011" lon="6.29371">
        <ele>707</ele>
        <time>2017-09-04T10:41:22Z</time>
      </trkpt>
      <trkpt lat="43.28002" lon="6.29317">
        <ele>708</ele>
        <time>2017-09-04T10:41:41Z</time>
      </trkpt>
      <trkpt lat="43.2799" lon="6.29264">
        <ele>708</ele>
        <time>2017-09-04T10:42:03Z</time>
      </trkpt>
      <trkpt lat="43.27984" lon="6.29211">
        <ele>708</ele>
        <time>2017-09-04T10:42:25Z</time>
      </trkpt>
      <trkpt lat="43.28003" lon="6.29165">
        <ele>718</ele>
        <time>2017-09-04T10:42:55Z</time>
      </trkpt>
      <trkpt lat="43.28019" lon="6.29113">
        <ele>721</ele>
        <time>2017-09-04T10:43:28Z</time>
      </trkpt>
      <trkpt lat="43.28024" lon="6.29053">
        <ele>717</ele>
        <time>2017-09-04T10:44:24Z</time>
      </trkpt>
      <trkpt lat="43.28054" lon="6.29039">
        <ele>721</ele>
        <time>2017-09-04T10:44:48Z</time>
      </trkpt>
      <trkpt lat="43.2809" lon="6.29067">
        <ele>726</ele>
        <time>2017-09-04T10:45:18Z</time>
      </trkpt>
      <trkpt lat="43.28124" lon="6.29093">
        <ele>729</ele>
        <time>2017-09-04T10:45:45Z</time>
      </trkpt>
      <trkpt lat="43.28163" lon="6.29129">
        <ele>728</ele>
        <time>2017-09-04T10:46:14Z</time>
      </trkpt>
      <trkpt lat="43.28179" lon="6.29181">
        <ele>731</ele>
        <time>2017-09-04T10:46:41Z</time>
      </trkpt>
      <trkpt lat="43.28187" lon="6.29237">
        <ele>736</ele>
        <time>2017-09-04T10:47:10Z</time>
      </trkpt>
      <trkpt lat="43.28192" lon="6.29293">
        <ele>743</ele>
        <time>2017-09-04T10:47:40Z</time>
      </trkpt>
      <trkpt lat="43.2821" lon="6.29345">
        <ele>747</ele>
        <time>2017-09-04T10:48:06Z</time>
      </trkpt>
      <trkpt lat="43.28226" lon="6.2939">
        <ele>749</ele>
        <time>2017-09-04T10:48:29Z</time>
      </trkpt>
      <trkpt lat="43.28233" lon="6.29446">
        <ele>750</ele>
        <time>2017-09-04T10:48:55Z</time>
      </trkpt>
      <trkpt lat="43.28209" lon="6.29476">
        <ele>752</ele>
        <time>2017-09-04T10:49:23Z</time>
      </trkpt>
      <trkpt lat="43.28191" lon="6.29421">
        <ele>759</ele>
        <time>2017-09-04T10:50:13Z</time>
      </trkpt>
      <trkpt lat="43.28172" lon="6.29372">
        <ele>759</ele>
        <time>2017-09-04T10:50:41Z</time>
      </trkpt>
      <trkpt lat="43.28147" lon="6.29327">
        <ele>759</ele>
        <time>2017-09-04T10:51:04Z</time>
      </trkpt>
      <trkpt lat="43.28128" lon="6.2931">
        <ele>762</ele>
        <time>2017-09-04T10:51:38Z</time>
      </trkpt>
      <trkpt lat="43.28117" lon="6.29331">
        <ele>762</ele>
        <time>2017-09-04T10:56:28Z</time>
      </trkpt>
      <trkpt lat="43.2813" lon="6.29324">
        <ele>762</ele>
        <time>2017-09-04T10:57:50Z</time>
      </trkpt>
      <trkpt lat="43.28138" lon="6.2932">
        <ele>760</ele>
        <time>2017-09-04T10:58:22Z</time>
      </trkpt>
      <trkpt lat="43.2814" lon="6.29319">
        <ele>760</ele>
        <time>2017-09-04T10:58:57Z</time>
      </trkpt>
      <trkpt lat="43.2815" lon="6.29318">
        <ele>758</ele>
        <time>2017-09-04T10:59:42Z</time>
      </trkpt>
      <trkpt lat="43.2815" lon="6.29316">
        <ele>758</ele>
        <time>2017-09-04T11:00:39Z</time>
      </trkpt>
      <trkpt lat="43.28127" lon="6.2931">
        <ele>762</ele>
        <time>2017-09-04T11:05:27Z</time>
      </trkpt>
      <trkpt lat="43.28121" lon="6.29358">
        <ele>762</ele>
        <time>2017-09-04T11:05:56Z</time>
      </trkpt>
      <trkpt lat="43.28108" lon="6.29397">
        <ele>754</ele>
        <time>2017-09-04T11:06:09Z</time>
      </trkpt>
      <trkpt lat="43.28094" lon="6.2944">
        <ele>743</ele>
        <time>2017-09-04T11:06:19Z</time>
      </trkpt>
      <trkpt lat="43.2808" lon="6.29474">
        <ele>735</ele>
        <time>2017-09-04T11:06:28Z</time>
      </trkpt>
      <trkpt lat="43.28075" lon="6.29493">
        <ele>733</ele>
        <time>2017-09-04T11:06:36Z</time>
      </trkpt>
      <trkpt lat="43.28074" lon="6.29507">
        <ele>733</ele>
        <time>2017-09-04T11:06:45Z</time>
      </trkpt>
      <trkpt lat="43.28082" lon="6.29481">
        <ele>736</ele>
        <time>2017-09-04T11:06:56Z</time>
      </trkpt>
      <trkpt lat="43.28112" lon="6.29404">
        <ele>755</ele>
        <time>2017-09-04T11:07:12Z</time>
      </trkpt>
      <trkpt lat="43.28125" lon="6.29289">
        <ele>762</ele>
        <time>2017-09-04T11:14:49Z</time>
      </trkpt>
      <trkpt lat="43.28115" lon="6.29241">
        <ele>754</ele>
        <time>2017-09-04T11:16:35Z</time>
      </trkpt>
      <trkpt lat="43.28108" lon="6.29173">
        <ele>745</ele>
        <time>2017-09-04T11:16:55Z</time>
      </trkpt>
      <trkpt lat="43.28147" lon="6.2917">
        <ele>739</ele>
        <time>2017-09-04T11:17:20Z</time>
      </trkpt>
      <trkpt lat="43.28174" lon="6.29221">
        <ele>738</ele>
        <time>2017-09-04T11:17:36Z</time>
      </trkpt>
      <trkpt lat="43.28176" lon="6.29184">
        <ele>732</ele>
        <time>2017-09-04T11:17:59Z</time>
      </trkpt>
      <trkpt lat="43.28155" lon="6.29127">
        <ele>730</ele>
        <time>2017-09-04T11:18:09Z</time>
      </trkpt>
      <trkpt lat="43.28129" lon="6.29091">
        <ele>728</ele>
        <time>2017-09-04T11:18:20Z</time>
      </trkpt>
      <trkpt lat="43.28167" lon="6.2911">
        <ele>725</ele>
        <time>2017-09-04T11:18:30Z</time>
      </trkpt>
      <trkpt lat="43.28192" lon="6.29096">
        <ele>716</ele>
        <time>2017-09-04T11:18:38Z</time>
      </trkpt>
      <trkpt lat="43.28162" lon="6.29057">
        <ele>715</ele>
        <time>2017-09-04T11:18:46Z</time>
      </trkpt>
      <trkpt lat="43.28125" lon="6.2903">
        <ele>713</ele>
        <time>2017-09-04T11:18:52Z</time>
      </trkpt>
      <trkpt lat="43.28085" lon="6.29001">
        <ele>710</ele>
        <time>2017-09-04T11:18:58Z</time>
      </trkpt>
      <trkpt lat="43.28053" lon="6.28965">
        <ele>707</ele>
        <time>2017-09-04T11:19:04Z</time>
      </trkpt>
      <trkpt lat="43.28032" lon="6.28912">
        <ele>703</ele>
        <time>2017-09-04T11:19:11Z</time>
      </trkpt>
      <trkpt lat="43.28034" lon="6.28923">
        <ele>704</ele>
        <time>2017-09-04T11:19:56Z</time>
      </trkpt>
      <trkpt lat="43.28059" lon="6.28972">
        <ele>707</ele>
        <time>2017-09-04T11:20:18Z</time>
      </trkpt>
      <trkpt lat="43.28091" lon="6.29009">
        <ele>711</ele>
        <time>2017-09-04T11:20:41Z</time>
      </trkpt>
      <trkpt lat="43.28134" lon="6.29041">
        <ele>715</ele>
        <time>2017-09-04T11:21:09Z</time>
      </trkpt>
      <trkpt lat="43.28177" lon="6.2907">
        <ele>715</ele>
        <time>2017-09-04T11:21:36Z</time>
      </trkpt>
      <trkpt lat="43.28185" lon="6.29117">
        <ele>721</ele>
        <time>2017-09-04T11:22:00Z</time>
      </trkpt>
      <trkpt lat="43.28149" lon="6.29096">
        <ele>725</ele>
        <time>2017-09-04T11:22:28Z</time>
      </trkpt>
      <trkpt lat="43.28133" lon="6.29102">
        <ele>730</ele>
        <time>2017-09-04T11:22:53Z</time>
      </trkpt>
      <trkpt lat="43.28164" lon="6.29138">
        <ele>729</ele>
        <time>2017-09-04T11:23:21Z</time>
      </trkpt>
      <trkpt lat="43.28178" lon="6.29194">
        <ele>733</ele>
        <time>2017-09-04T11:23:48Z</time>
      </trkpt>
      <trkpt lat="43.28185" lon="6.29252">
        <ele>739</ele>
        <time>2017-09-04T11:24:18Z</time>
      </trkpt>
      <trkpt lat="43.28194" lon="6.29312">
        <ele>746</ele>
        <time>2017-09-04T11:24:43Z</time>
      </trkpt>
      <trkpt lat="43.28214" lon="6.2936">
        <ele>748</ele>
        <time>2017-09-04T11:25:07Z</time>
      </trkpt>
      <trkpt lat="43.28231" lon="6.29406">
        <ele>750</ele>
        <time>2017-09-04T11:25:30Z</time>
      </trkpt>
      <trkpt lat="43.28232" lon="6.29463">
        <ele>748</ele>
        <time>2017-09-04T11:25:54Z</time>
      </trkpt>
      <trkpt lat="43.28235" lon="6.29451">
        <ele>748</ele>
        <time>2017-09-04T11:26:53Z</time>
      </trkpt>
      <trkpt lat="43.28224" lon="6.29392">
        <ele>750</ele>
        <time>2017-09-04T11:27:12Z</time>
      </trkpt>
      <trkpt lat="43.282" lon="6.29334">
        <ele>747</ele>
        <time>2017-09-04T11:27:21Z</time>
      </trkpt>
      <trkpt lat="43.2819" lon="6.29273">
        <ele>741</ele>
        <time>2017-09-04T11:27:30Z</time>
      </trkpt>
      <trkpt lat="43.28181" lon="6.29212">
        <ele>734</ele>
        <time>2017-09-04T11:27:40Z</time>
      </trkpt>
      <trkpt lat="43.28165" lon="6.29146">
        <ele>730</ele>
        <time>2017-09-04T11:28:01Z</time>
      </trkpt>
      <trkpt lat="43.28134" lon="6.29111">
        <ele>732</ele>
        <time>2017-09-04T11:28:10Z</time>
      </trkpt>
      <trkpt lat="43.28149" lon="6.29095">
        <ele>725</ele>
        <time>2017-09-04T11:28:21Z</time>
      </trkpt>
      <trkpt lat="43.28184" lon="6.29123">
        <ele>722</ele>
        <time>2017-09-04T11:28:31Z</time>
      </trkpt>
      <trkpt lat="43.28191" lon="6.29074">
        <ele>713</ele>
        <time>2017-09-04T11:29:46Z</time>
      </trkpt>
      <trkpt lat="43.28208" lon="6.29068">
        <ele>708</ele>
        <time>2017-09-04T11:30:05Z</time>
      </trkpt>
      <trkpt lat="43.2823" lon="6.2912">
        <ele>705</ele>
        <time>2017-09-04T11:30:21Z</time>
      </trkpt>
      <trkpt lat="43.28243" lon="6.29178">
        <ele>707</ele>
        <time>2017-09-04T11:30:41Z</time>
      </trkpt>
      <trkpt lat="43.28266" lon="6.29231">
        <ele>706</ele>
        <time>2017-09-04T11:30:59Z</time>
      </trkpt>
      <trkpt lat="43.28299" lon="6.29275">
        <ele>704</ele>
        <time>2017-09-04T11:31:10Z</time>
      </trkpt>
      <trkpt lat="43.28334" lon="6.29287">
        <ele>696</ele>
        <time>2017-09-04T11:31:59Z</time>
      </trkpt>
      <trkpt lat="43.28309" lon="6.29236">
        <ele>686</ele>
        <time>2017-09-04T11:33:15Z</time>
      </trkpt>
      <trkpt lat="43.28298" lon="6.29178">
        <ele>675</ele>
        <time>2017-09-04T11:33:35Z</time>
      </trkpt>
      <trkpt lat="43.28298" lon="6.29121">
        <ele>669</ele>
        <time>2017-09-04T11:33:52Z</time>
      </trkpt>
      <trkpt lat="43.28322" lon="6.2917">
        <ele>662</ele>
        <time>2017-09-04T11:34:25Z</time>
      </trkpt>
      <trkpt lat="43.28345" lon="6.29203">
        <ele>660</ele>
        <time>2017-09-04T11:34:37Z</time>
      </trkpt>
      <trkpt lat="43.2833" lon="6.29149">
        <ele>655</ele>
        <time>2017-09-04T11:34:49Z</time>
      </trkpt>
      <trkpt lat="43.28334" lon="6.29113">
        <ele>649</ele>
        <time>2017-09-04T11:35:27Z</time>
      </trkpt>
      <trkpt lat="43.28344" lon="6.2906">
        <ele>645</ele>
        <time>2017-09-04T11:35:43Z</time>
      </trkpt>
      <trkpt lat="43.28361" lon="6.29102">
        <ele>635</ele>
        <time>2017-09-04T11:36:06Z</time>
      </trkpt>
      <trkpt lat="43.28389" lon="6.2901">
        <ele>622</ele>
        <time>2017-09-04T11:42:39Z</time>
      </trkpt>
      <trkpt lat="43.28408" lon="6.28958">
        <ele>613</ele>
        <time>2017-09-04T11:42:58Z</time>
      </trkpt>
      <trkpt lat="43.28424" lon="6.28908">
        <ele>607</ele>
        <time>2017-09-04T11:43:12Z</time>
      </trkpt>
      <trkpt lat="43.2844" lon="6.28858">
        <ele>600</ele>
        <time>2017-09-04T11:43:26Z</time>
      </trkpt>
      <trkpt lat="43.28452" lon="6.28806">
        <ele>592</ele>
        <time>2017-09-04T11:43:39Z</time>
      </trkpt>
      <trkpt lat="43.28447" lon="6.28769">
        <ele>586</ele>
        <time>2017-09-04T11:44:13Z</time>
      </trkpt>
      <trkpt lat="43.28486" lon="6.28736">
        <ele>570</ele>
        <time>2017-09-04T11:45:07Z</time>
      </trkpt>
      <trkpt lat="43.28519" lon="6.28692">
        <ele>558</ele>
        <time>2017-09-04T11:45:47Z</time>
      </trkpt>
      <trkpt lat="43.2855" lon="6.28649">
        <ele>552</ele>
        <time>2017-09-04T11:46:16Z</time>
      </trkpt>
      <trkpt lat="43.28591" lon="6.28635">
        <ele>542</ele>
        <time>2017-09-04T11:46:38Z</time>
      </trkpt>
      <trkpt lat="43.28623" lon="6.28594">
        <ele>532</ele>
        <time>2017-09-04T11:47:02Z</time>
      </trkpt>
      <trkpt lat="43.28667" lon="6.28573">
        <ele>522</ele>
        <time>2017-09-04T11:47:29Z</time>
      </trkpt>
      <trkpt lat="43.28699" lon="6.28535">
        <ele>520</ele>
        <time>2017-09-04T11:47:45Z</time>
      </trkpt>
      <trkpt lat="43.28735" lon="6.28501">
        <ele>515</ele>
        <time>2017-09-04T11:48:17Z</time>
      </trkpt>
      <trkpt lat="43.28764" lon="6.28459">
        <ele>510</ele>
        <time>2017-09-04T11:48:31Z</time>
      </trkpt>
      <trkpt lat="43.28801" lon="6.28431">
        <ele>505</ele>
        <time>2017-09-04T11:48:51Z</time>
      </trkpt>
      <trkpt lat="43.28841" lon="6.28419">
        <ele>501</ele>
        <time>2017-09-04T11:49:06Z</time>
      </trkpt>
      <trkpt lat="43.28877" lon="6.2841">
        <ele>495</ele>
        <time>2017-09-04T11:49:44Z</time>
      </trkpt>
      <trkpt lat="43.2886" lon="6.28362">
        <ele>484</ele>
        <time>2017-09-04T11:49:57Z</time>
      </trkpt>
      <trkpt lat="43.2883" lon="6.28334">
        <ele>478</ele>
        <time>2017-09-04T11:50:12Z</time>
      </trkpt>
      <trkpt lat="43.28856" lon="6.2829">
        <ele>466</ele>
        <time>2017-09-04T11:50:27Z</time>
      </trkpt>
      <trkpt lat="43.28864" lon="6.28235">
        <ele>456</ele>
        <time>2017-09-04T11:50:43Z</time>
      </trkpt>
      <trkpt lat="43.28877" lon="6.28174">
        <ele>446</ele>
        <time>2017-09-04T11:51:26Z</time>
      </trkpt>
      <trkpt lat="43.28904" lon="6.28125">
        <ele>435</ele>
        <time>2017-09-04T11:51:58Z</time>
      </trkpt>
      <trkpt lat="43.28911" lon="6.28069">
        <ele>424</ele>
        <time>2017-09-04T11:52:56Z</time>
      </trkpt>
      <trkpt lat="43.28902" lon="6.28012">
        <ele>419</ele>
        <time>2017-09-04T11:53:08Z</time>
      </trkpt>
      <trkpt lat="43.28895" lon="6.27959">
        <ele>413</ele>
        <time>2017-09-04T11:53:27Z</time>
      </trkpt>
      <trkpt lat="43.28904" lon="6.27899">
        <ele>404</ele>
        <time>2017-09-04T11:53:44Z</time>
      </trkpt>
      <trkpt lat="43.28922" lon="6.27845">
        <ele>397</ele>
        <time>2017-09-04T11:53:57Z</time>
      </trkpt>
      <trkpt lat="43.28942" lon="6.27869">
        <ele>396</ele>
        <time>2017-09-04T11:54:15Z</time>
      </trkpt>
      <trkpt lat="43.28966" lon="6.27819">
        <ele>384</ele>
        <time>2017-09-04T11:54:35Z</time>
      </trkpt>
      <trkpt lat="43.2899" lon="6.2777">
        <ele>372</ele>
        <time>2017-09-04T11:54:51Z</time>
      </trkpt>
      <trkpt lat="43.29011" lon="6.27716">
        <ele>362</ele>
        <time>2017-09-04T11:55:05Z</time>
      </trkpt>
      <trkpt lat="43.2902" lon="6.27662">
        <ele>354</ele>
        <time>2017-09-04T11:55:17Z</time>
      </trkpt>
      <trkpt lat="43.29043" lon="6.27621">
        <ele>347</ele>
        <time>2017-09-04T11:55:32Z</time>
      </trkpt>
      <trkpt lat="43.29069" lon="6.2762">
        <ele>340</ele>
        <time>2017-09-04T11:55:50Z</time>
      </trkpt>
      <trkpt lat="43.29078" lon="6.2758">
        <ele>335</ele>
        <time>2017-09-04T11:56:19Z</time>
      </trkpt>
      <trkpt lat="43.29094" lon="6.27552">
        <ele>325</ele>
        <time>2017-09-04T11:56:33Z</time>
      </trkpt>
      <trkpt lat="43.29074" lon="6.275">
        <ele>319</ele>
        <time>2017-09-04T11:56:46Z</time>
      </trkpt>
      <trkpt lat="43.29085" lon="6.27458">
        <ele>311</ele>
        <time>2017-09-04T11:57:13Z</time>
      </trkpt>
      <trkpt lat="43.29101" lon="6.27404">
        <ele>299</ele>
        <time>2017-09-04T11:57:29Z</time>
      </trkpt>
      <trkpt lat="43.29116" lon="6.2734">
        <ele>287</ele>
        <time>2017-09-04T11:58:18Z</time>
      </trkpt>
      <trkpt lat="43.29137" lon="6.27291">
        <ele>283</ele>
        <time>2017-09-04T11:58:29Z</time>
      </trkpt>
      <trkpt lat="43.29165" lon="6.27244">
        <ele>272</ele>
        <time>2017-09-04T11:58:56Z</time>
      </trkpt>
      <trkpt lat="43.29183" lon="6.27188">
        <ele>266</ele>
        <time>2017-09-04T11:59:15Z</time>
      </trkpt>
      <trkpt lat="43.29215" lon="6.27151">
        <ele>258</ele>
        <time>2017-09-04T11:59:31Z</time>
      </trkpt>
      <trkpt lat="43.29235" lon="6.27094">
        <ele>249</ele>
        <time>2017-09-04T11:59:57Z</time>
      </trkpt>
      <trkpt lat="43.29225" lon="6.2705">
        <ele>249</ele>
        <time>2017-09-04T12:00:07Z</time>
      </trkpt>
      <trkpt lat="43.29227" lon="6.26994">
        <ele>249</ele>
        <time>2017-09-04T12:01:01Z</time>
      </trkpt>
      <trkpt lat="43.2923" lon="6.26937">
        <ele>249</ele>
        <time>2017-09-04T12:01:18Z</time>
      </trkpt>
      <trkpt lat="43.2923" lon="6.26878">
        <ele>252</ele>
        <time>2017-09-04T12:01:35Z</time>
      </trkpt>
      <trkpt lat="43.2924" lon="6.26818">
        <ele>251</ele>
        <time>2017-09-04T12:02:11Z</time>
      </trkpt>
      <trkpt lat="43.29254" lon="6.26764">
        <ele>247</ele>
        <time>2017-09-04T12:02:19Z</time>
      </trkpt>
      <trkpt lat="43.29262" lon="6.26707">
        <ele>245</ele>
        <time>2017-09-04T12:02:27Z</time>
      </trkpt>
      <trkpt lat="43.29261" lon="6.26651">
        <ele>245</ele>
        <time>2017-09-04T12:02:35Z</time>
      </trkpt>
      <trkpt lat="43.29275" lon="6.26593">
        <ele>239</ele>
        <time>2017-09-04T12:02:43Z</time>
      </trkpt>
      <trkpt lat="43.29289" lon="6.26539">
        <ele>232</ele>
        <time>2017-09-04T12:02:50Z</time>
      </trkpt>
      <trkpt lat="43.293" lon="6.26479">
        <ele>228</ele>
        <time>2017-09-04T12:02:57Z</time>
      </trkpt>
      <trkpt lat="43.29299" lon="6.26423">
        <ele>226</ele>
        <time>2017-09-04T12:03:03Z</time>
      </trkpt>
      <trkpt lat="43.29295" lon="6.26364">
        <ele>226</ele>
        <time>2017-09-04T12:03:10Z</time>
      </trkpt>
      <trkpt lat="43.29289" lon="6.2631">
        <ele>225</ele>
        <time>2017-09-04T12:03:16Z</time>
      </trkpt>
      <trkpt lat="43.29295" lon="6.26254">
        <ele>223</ele>
        <time>2017-09-04T12:03:22Z</time>
      </trkpt>
      <trkpt lat="43.29293" lon="6.26193">
        <ele>221</ele>
        <time>2017-09-04T12:03:29Z</time>
      </trkpt>
      <trkpt lat="43.29297" lon="6.26137">
        <ele>220</ele>
        <time>2017-09-04T12:03:35Z</time>
      </trkpt>
      <trkpt lat="43.29295" lon="6.2608">
        <ele>220</ele>
        <time>2017-09-04T12:03:42Z</time>
      </trkpt>
      <trkpt lat="43.29293" lon="6.26017">
        <ele>219</ele>
        <time>2017-09-04T12:03:48Z</time>
      </trkpt>
      <trkpt lat="43.29297" lon="6.25967">
        <ele>217</ele>
        <time>2017-09-04T12:03:57Z</time>
      </trkpt>
      <trkpt lat="43.29294" lon="6.25956">
        <ele>216</ele>
        <time>2017-09-04T12:05:04Z</time>
      </trkpt>
      <trkpt lat="43.29316" lon="6.25948">
        <ele>216</ele>
        <time>2017-09-04T12:11:16Z</time>
      </trkpt>
      <trkpt lat="43.29342" lon="6.25904">
        <ele>212</ele>
        <time>2017-09-04T12:11:26Z</time>
      </trkpt>
      <trkpt lat="43.29371" lon="6.25864">
        <ele>211</ele>
        <time>2017-09-04T12:11:35Z</time>
      </trkpt>
      <trkpt lat="43.29402" lon="6.25822">
        <ele>207</ele>
        <time>2017-09-04T12:11:44Z</time>
      </trkpt>
      <trkpt lat="43.29435" lon="6.25783">
        <ele>206</ele>
        <time>2017-09-04T12:11:52Z</time>
      </trkpt>
      <trkpt lat="43.29463" lon="6.2574">
        <ele>207</ele>
        <time>2017-09-04T12:12:02Z</time>
      </trkpt>
      <trkpt lat="43.29501" lon="6.25717">
        <ele>208</ele>
        <time>2017-09-04T12:12:18Z</time>
      </trkpt>
      <trkpt lat="43.29524" lon="6.25674">
        <ele>209</ele>
        <time>2017-09-04T12:12:37Z</time>
      </trkpt>
      <trkpt lat="43.29541" lon="6.25624">
        <ele>209</ele>
        <time>2017-09-04T12:12:52Z</time>
      </trkpt>
      <trkpt lat="43.2953" lon="6.25567">
        <ele>207</ele>
        <time>2017-09-04T12:14:28Z</time>
      </trkpt>
      <trkpt lat="43.29517" lon="6.2551">
        <ele>204</ele>
        <time>2017-09-04T12:14:37Z</time>
      </trkpt>
      <trkpt lat="43.295" lon="6.25456">
        <ele>200</ele>
        <time>2017-09-04T12:14:44Z</time>
      </trkpt>
      <trkpt lat="43.29483" lon="6.25398">
        <ele>198</ele>
        <time>2017-09-04T12:14:50Z</time>
      </trkpt>
      <trkpt lat="43.2948" lon="6.25343">
        <ele>197</ele>
        <time>2017-09-04T12:14:55Z</time>
      </trkpt>
      <trkpt lat="43.29483" lon="6.25285">
        <ele>196</ele>
        <time>2017-09-04T12:15:01Z</time>
      </trkpt>
      <trkpt lat="43.29497" lon="6.2523">
        <ele>196</ele>
        <time>2017-09-04T12:15:09Z</time>
      </trkpt>
      <trkpt lat="43.29498" lon="6.25167">
        <ele>193</ele>
        <time>2017-09-04T12:15:17Z</time>
      </trkpt>
      <trkpt lat="43.295" lon="6.25106">
        <ele>191</ele>
        <time>2017-09-04T12:15:23Z</time>
      </trkpt>
      <trkpt lat="43.29506" lon="6.25044">
        <ele>189</ele>
        <time>2017-09-04T12:15:29Z</time>
      </trkpt>
      <trkpt lat="43.29499" lon="6.24986">
        <ele>186</ele>
        <time>2017-09-04T12:15:35Z</time>
      </trkpt>
      <trkpt lat="43.29505" lon="6.24928">
        <ele>185</ele>
        <time>2017-09-04T12:15:41Z</time>
      </trkpt>
      <trkpt lat="43.29517" lon="6.24874">
        <ele>183</ele>
        <time>2017-09-04T12:15:47Z</time>
      </trkpt>
      <trkpt lat="43.29521" lon="6.24816">
        <ele>182</ele>
        <time>2017-09-04T12:15:54Z</time>
      </trkpt>
      <trkpt lat="43.2951" lon="6.24759">
        <ele>180</ele>
        <time>2017-09-04T12:16:01Z</time>
      </trkpt>
      <trkpt lat="43.29507" lon="6.24705">
        <ele>180</ele>
        <time>2017-09-04T12:16:09Z</time>
      </trkpt>
      <trkpt lat="43.29513" lon="6.24649">
        <ele>180</ele>
        <time>2017-09-04T12:16:20Z</time>
      </trkpt>
      <trkpt lat="43.29523" lon="6.24591">
        <ele>178</ele>
        <time>2017-09-04T12:16:28Z</time>
      </trkpt>
      <trkpt lat="43.29535" lon="6.24535">
        <ele>176</ele>
        <time>2017-09-04T12:16:35Z</time>
      </trkpt>
      <trkpt lat="43.29536" lon="6.24479">
        <ele>175</ele>
        <time>2017-09-04T12:16:43Z</time>
      </trkpt>
      <trkpt lat="43.29531" lon="6.24424">
        <ele>175</ele>
        <time>2017-09-04T12:16:53Z</time>
      </trkpt>
      <trkpt lat="43.29534" lon="6.24368">
        <ele>175</ele>
        <time>2017-09-04T12:17:03Z</time>
      </trkpt>
      <trkpt lat="43.29539" lon="6.24314">
        <ele>176</ele>
        <time>2017-09-04T12:17:12Z</time>
      </trkpt>
      <trkpt lat="43.29533" lon="6.24253">
        <ele>176</ele>
        <time>2017-09-04T12:17:20Z</time>
      </trkpt>
      <trkpt lat="43.29525" lon="6.24198">
        <ele>176</ele>
        <time>2017-09-04T12:17:27Z</time>
      </trkpt>
      <trkpt lat="43.2952" lon="6.24141">
        <ele>176</ele>
        <time>2017-09-04T12:17:34Z</time>
      </trkpt>
      <trkpt lat="43.29514" lon="6.24086">
        <ele>176</ele>
        <time>2017-09-04T12:17:41Z</time>
      </trkpt>
      <trkpt lat="43.29499" lon="6.24033">
        <ele>173</ele>
        <time>2017-09-04T12:17:49Z</time>
      </trkpt>
      <trkpt lat="43.2948" lon="6.23983">
        <ele>171</ele>
        <time>2017-09-04T12:17:57Z</time>
      </trkpt>
      <trkpt lat="43.29478" lon="6.23921">
        <ele>170</ele>
        <time>2017-09-04T12:18:05Z</time>
      </trkpt>
      <trkpt lat="43.29485" lon="6.23861">
        <ele>168</ele>
        <time>2017-09-04T12:18:13Z</time>
      </trkpt>
      <trkpt lat="43.29487" lon="6.23806">
        <ele>167</ele>
        <time>2017-09-04T12:18:20Z</time>
      </trkpt>
      <trkpt lat="43.29494" lon="6.23751">
        <ele>166</ele>
        <time>2017-09-04T12:18:27Z</time>
      </trkpt>
      <trkpt lat="43.29502" lon="6.23693">
        <ele>165</ele>
        <time>2017-09-04T12:18:35Z</time>
      </trkpt>
      <trkpt lat="43.29502" lon="6.23636">
        <ele>164</ele>
        <time>2017-09-04T12:18:44Z</time>
      </trkpt>
      <trkpt lat="43.29495" lon="6.23579">
        <ele>164</ele>
        <time>2017-09-04T12:18:54Z</time>
      </trkpt>
      <trkpt lat="43.29485" lon="6.23527">
        <ele>163</ele>
        <time>2017-09-04T12:19:03Z</time>
      </trkpt>
      <trkpt lat="43.29474" lon="6.23475">
        <ele>162</ele>
        <time>2017-09-04T12:19:11Z</time>
      </trkpt>
      <trkpt lat="43.29458" lon="6.23417">
        <ele>162</ele>
        <time>2017-09-04T12:19:19Z</time>
      </trkpt>
      <trkpt lat="43.29443" lon="6.23359">
        <ele>161</ele>
        <time>2017-09-04T12:19:27Z</time>
      </trkpt>
      <trkpt lat="43.29448" lon="6.23303">
        <ele>160</ele>
        <time>2017-09-04T12:19:34Z</time>
      </trkpt>
      <trkpt lat="43.29471" lon="6.23254">
        <ele>159</ele>
        <time>2017-09-04T12:19:42Z</time>
      </trkpt>
      <trkpt lat="43.29492" lon="6.23203">
        <ele>159</ele>
        <time>2017-09-04T12:19:51Z</time>
      </trkpt>
      <trkpt lat="43.29515" lon="6.23152">
        <ele>160</ele>
        <time>2017-09-04T12:20:00Z</time>
      </trkpt>
      <trkpt lat="43.29536" lon="6.23101">
        <ele>161</ele>
        <time>2017-09-04T12:20:09Z</time>
      </trkpt>
      <trkpt lat="43.29559" lon="6.23055">
        <ele>161</ele>
        <time>2017-09-04T12:20:19Z</time>
      </trkpt>
      <trkpt lat="43.29597" lon="6.23032">
        <ele>162</ele>
        <time>2017-09-04T12:20:30Z</time>
      </trkpt>
      <trkpt lat="43.29633" lon="6.23007">
        <ele>162</ele>
        <time>2017-09-04T12:20:40Z</time>
      </trkpt>
      <trkpt lat="43.2967" lon="6.22976">
        <ele>163</ele>
        <time>2017-09-04T12:20:49Z</time>
      </trkpt>
      <trkpt lat="43.29703" lon="6.22944">
        <ele>164</ele>
        <time>2017-09-04T12:20:59Z</time>
      </trkpt>
      <trkpt lat="43.29739" lon="6.22916">
        <ele>164</ele>
        <time>2017-09-04T12:21:09Z</time>
      </trkpt>
      <trkpt lat="43.29779" lon="6.22894">
        <ele>165</ele>
        <time>2017-09-04T12:21:18Z</time>
      </trkpt>
      <trkpt lat="43.29822" lon="6.22876">
        <ele>166</ele>
        <time>2017-09-04T12:21:26Z</time>
      </trkpt>
      <trkpt lat="43.29862" lon="6.22868">
        <ele>166</ele>
        <time>2017-09-04T12:21:35Z</time>
      </trkpt>
      <trkpt lat="43.29905" lon="6.22854">
        <ele>167</ele>
        <time>2017-09-04T12:22:13Z</time>
      </trkpt>
      <trkpt lat="43.29945" lon="6.22839">
        <ele>168</ele>
        <time>2017-09-04T12:22:25Z</time>
      </trkpt>
      <trkpt lat="43.29983" lon="6.22828">
        <ele>168</ele>
        <time>2017-09-04T12:23:05Z</time>
      </trkpt>
      <trkpt lat="43.30019" lon="6.22803">
        <ele>169</ele>
        <time>2017-09-04T12:23:23Z</time>
      </trkpt>
      <trkpt lat="43.30094" lon="6.22802">
        <ele>171</ele>
        <time>2017-09-04T12:24:34Z</time>
      </trkpt>
      <trkpt lat="43.30103" lon="6.22847">
        <ele>171</ele>
        <time>2017-09-04T12:25:02Z</time>
      </trkpt>
      <trkpt lat="43.30087" lon="6.22893">
        <ele>170</ele>
        <time>2017-09-04T12:25:21Z</time>
      </trkpt>
      <trkpt lat="43.30087" lon="6.22953">
        <ele>169</ele>
        <time>2017-09-04T12:25:41Z</time>
      </trkpt>
      <trkpt lat="43.30104" lon="6.23007">
        <ele>169</ele>
        <time>2017-09-04T12:25:55Z</time>
      </trkpt>
      <trkpt lat="43.30117" lon="6.23058">
        <ele>169</ele>
        <time>2017-09-04T12:26:10Z</time>
      </trkpt>
      <trkpt lat="43.30132" lon="6.23115">
        <ele>168</ele>
        <time>2017-09-04T12:26:23Z</time>
      </trkpt>
      <trkpt lat="43.30144" lon="6.23172">
        <ele>168</ele>
        <time>2017-09-04T12:26:34Z</time>
      </trkpt>
      <trkpt lat="43.30161" lon="6.23223">
        <ele>168</ele>
        <time>2017-09-04T12:26:45Z</time>
      </trkpt>
      <trkpt lat="43.30174" lon="6.23274">
        <ele>168</ele>
        <time>2017-09-04T12:26:57Z</time>
      </trkpt>
      <trkpt lat="43.30188" lon="6.23327">
        <ele>168</ele>
        <time>2017-09-04T12:27:09Z</time>
      </trkpt>
      <trkpt lat="43.30198" lon="6.23382">
        <ele>168</ele>
        <time>2017-09-04T12:27:20Z</time>
      </trkpt>
      <trkpt lat="43.30205" lon="6.23437">
        <ele>169</ele>
        <time>2017-09-04T12:27:30Z</time>
      </trkpt>
      <trkpt lat="43.30215" lon="6.23494">
        <ele>170</ele>
        <time>2017-09-04T12:27:41Z</time>
      </trkpt>
      <trkpt lat="43.30181" lon="6.23522">
        <ele>169</ele>
        <time>2017-09-04T12:27:57Z</time>
      </trkpt>
      <trkpt lat="43.3019" lon="6.23565">
        <ele>170</ele>
        <time>2017-09-04T12:28:12Z</time>
      </trkpt>
      <trkpt lat="43.30211" lon="6.236">
        <ele>171</ele>
        <time>2017-09-04T12:28:45Z</time>
      </trkpt>
      <trkpt lat="43.30217" lon="6.2356">
        <ele>170</ele>
        <time>2017-09-04T12:29:02Z</time>
      </trkpt>
      <trkpt lat="43.30216" lon="6.23505">
        <ele>170</ele>
        <time>2017-09-04T12:29:18Z</time>
      </trkpt>
      <trkpt lat="43.30207" lon="6.23448">
        <ele>169</ele>
        <time>2017-09-04T12:29:28Z</time>
      </trkpt>
      <trkpt lat="43.30199" lon="6.23397">
        <ele>168</ele>
        <time>2017-09-04T12:29:35Z</time>
      </trkpt>
      <trkpt lat="43.30189" lon="6.23337">
        <ele>168</ele>
        <time>2017-09-04T12:29:43Z</time>
      </trkpt>
      <trkpt lat="43.30176" lon="6.23282">
        <ele>168</ele>
        <time>2017-09-04T12:29:52Z</time>
      </trkpt>
      <trkpt lat="43.30162" lon="6.23232">
        <ele>168</ele>
        <time>2017-09-04T12:30:02Z</time>
      </trkpt>
      <trkpt lat="43.30147" lon="6.23183">
        <ele>168</ele>
        <time>2017-09-04T12:30:11Z</time>
      </trkpt>
      <trkpt lat="43.30136" lon="6.23129">
        <ele>168</ele>
        <time>2017-09-04T12:30:22Z</time>
      </trkpt>
      <trkpt lat="43.30126" lon="6.23076">
        <ele>169</ele>
        <time>2017-09-04T12:30:34Z</time>
      </trkpt>
      <trkpt lat="43.30153" lon="6.23034">
        <ele>169</ele>
        <time>2017-09-04T12:30:50Z</time>
      </trkpt>
      <trkpt lat="43.30156" lon="6.22988">
        <ele>170</ele>
        <time>2017-09-04T12:31:05Z</time>
      </trkpt>
      <trkpt lat="43.30137" lon="6.22938">
        <ele>170</ele>
        <time>2017-09-04T12:31:19Z</time>
      </trkpt>
      <trkpt lat="43.301" lon="6.22956">
        <ele>169</ele>
        <time>2017-09-04T12:31:33Z</time>
      </trkpt>
      <trkpt lat="43.30086" lon="6.22902">
        <ele>169</ele>
        <time>2017-09-04T12:32:06Z</time>
      </trkpt>
      <trkpt lat="43.30078" lon="6.22836">
        <ele>170</ele>
        <time>2017-09-04T12:32:23Z</time>
      </trkpt>
      <trkpt lat="43.30076" lon="6.22754">
        <ele>171</ele>
        <time>2017-09-04T12:33:18Z</time>
      </trkpt>
      <trkpt lat="43.30078" lon="6.22688">
        <ele>172</ele>
        <time>2017-09-04T12:33:56Z</time>
      </trkpt>
      <trkpt lat="43.30066" lon="6.22622">
        <ele>173</ele>
        <time>2017-09-04T12:34:12Z</time>
      </trkpt>
      <trkpt lat="43.30061" lon="6.22566">
        <ele>173</ele>
        <time>2017-09-04T12:34:46Z</time>
      </trkpt>
      <trkpt lat="43.3002" lon="6.22498">
        <ele>173</ele>
        <time>2017-09-04T12:35:11Z</time>
      </trkpt>
      <trkpt lat="43.29994" lon="6.2245">
        <ele>173</ele>
        <time>2017-09-04T12:35:23Z</time>
      </trkpt>
      <trkpt lat="43.29974" lon="6.22404">
        <ele>173</ele>
        <time>2017-09-04T12:35:33Z</time>
      </trkpt>
      <trkpt lat="43.29953" lon="6.22358">
        <ele>173</ele>
        <time>2017-09-04T12:35:45Z</time>
      </trkpt>
      <trkpt lat="43.2993" lon="6.22307">
        <ele>173</ele>
        <time>2017-09-04T12:35:55Z</time>
      </trkpt>
      <trkpt lat="43.29909" lon="6.22254">
        <ele>172</ele>
        <time>2017-09-04T12:36:05Z</time>
      </trkpt>
      <trkpt lat="43.29887" lon="6.22201">
        <ele>171</ele>
        <time>2017-09-04T12:36:15Z</time>
      </trkpt>
      <trkpt lat="43.29865" lon="6.22152">
        <ele>170</ele>
        <time>2017-09-04T12:36:26Z</time>
      </trkpt>
      <trkpt lat="43.29847" lon="6.22098">
        <ele>169</ele>
        <time>2017-09-04T12:36:36Z</time>
      </trkpt>
      <trkpt lat="43.29841" lon="6.22043">
        <ele>168</ele>
        <time>2017-09-04T12:36:51Z</time>
      </trkpt>
      <trkpt lat="43.29847" lon="6.22086">
        <ele>169</ele>
        <time>2017-09-04T12:38:40Z</time>
      </trkpt>
      <trkpt lat="43.2986" lon="6.2214">
        <ele>170</ele>
        <time>2017-09-04T12:38:54Z</time>
      </trkpt>
      <trkpt lat="43.2988" lon="6.22193">
        <ele>171</ele>
        <time>2017-09-04T12:39:06Z</time>
      </trkpt>
      <trkpt lat="43.29907" lon="6.22241">
        <ele>172</ele>
        <time>2017-09-04T12:39:22Z</time>
      </trkpt>
      <trkpt lat="43.29926" lon="6.22293">
        <ele>172</ele>
        <time>2017-09-04T12:39:34Z</time>
      </trkpt>
      <trkpt lat="43.29949" lon="6.22339">
        <ele>173</ele>
        <time>2017-09-04T12:39:46Z</time>
      </trkpt>
      <trkpt lat="43.29967" lon="6.22388">
        <ele>173</ele>
        <time>2017-09-04T12:39:57Z</time>
      </trkpt>
      <trkpt lat="43.29993" lon="6.22432">
        <ele>174</ele>
        <time>2017-09-04T12:40:09Z</time>
      </trkpt>
      <trkpt lat="43.30016" lon="6.2248">
        <ele>173</ele>
        <time>2017-09-04T12:40:24Z</time>
      </trkpt>
      <trkpt lat="43.30047" lon="6.22517">
        <ele>174</ele>
        <time>2017-09-04T12:40:44Z</time>
      </trkpt>
      <trkpt lat="43.30064" lon="6.22571">
        <ele>174</ele>
        <time>2017-09-04T12:41:00Z</time>
      </trkpt>
      <trkpt lat="43.30077" lon="6.22623">
        <ele>173</ele>
        <time>2017-09-04T12:41:13Z</time>
      </trkpt>
      <trkpt lat="43.30087" lon="6.22685">
        <ele>172</ele>
        <time>2017-09-04T12:47:29Z</time>
      </trkpt>
      <trkpt lat="43.30091" lon="6.22746">
        <ele>172</ele>
        <time>2017-09-04T12:47:40Z</time>
      </trkpt>
      <trkpt lat="43.30067" lon="6.2279">
        <ele>171</ele>
        <time>2017-09-04T12:47:55Z</time>
      </trkpt>
      <trkpt lat="43.30019" lon="6.22803">
        <ele>169</ele>
        <time>2017-09-04T12:48:07Z</time>
      </trkpt>
      <trkpt lat="43.29984" lon="6.22828">
        <ele>168</ele>
        <time>2017-09-04T12:48:24Z</time>
      </trkpt>
      <trkpt lat="43.29992" lon="6.22817">
        <ele>168</ele>
        <time>2017-09-04T12:48:53Z</time>
      </trkpt>
      <trkpt lat="43.29959" lon="6.22817">
        <ele>168</ele>
        <time>2017-09-04T12:49:08Z</time>
      </trkpt>
      <trkpt lat="43.29926" lon="6.22837">
        <ele>168</ele>
        <time>2017-09-04T12:49:23Z</time>
      </trkpt>
      <trkpt lat="43.29887" lon="6.22836">
        <ele>167</ele>
        <time>2017-09-04T12:49:39Z</time>
      </trkpt>
      <trkpt lat="43.29879" lon="6.22778">
        <ele>168</ele>
        <time>2017-09-04T12:49:54Z</time>
      </trkpt>
      <trkpt lat="43.29873" lon="6.22722">
        <ele>168</ele>
        <time>2017-09-04T12:50:07Z</time>
      </trkpt>
      <trkpt lat="43.29861" lon="6.22668">
        <ele>168</ele>
        <time>2017-09-04T12:50:20Z</time>
      </trkpt>
      <trkpt lat="43.29831" lon="6.22631">
        <ele>168</ele>
        <time>2017-09-04T12:50:33Z</time>
      </trkpt>
      <trkpt lat="43.29796" lon="6.22606">
        <ele>168</ele>
        <time>2017-09-04T12:50:48Z</time>
      </trkpt>
      <trkpt lat="43.29757" lon="6.22605">
        <ele>167</ele>
        <time>2017-09-04T12:50:58Z</time>
      </trkpt>
      <trkpt lat="43.29717" lon="6.22589">
        <ele>167</ele>
        <time>2017-09-04T12:51:09Z</time>
      </trkpt>
      <trkpt lat="43.29677" lon="6.22578">
        <ele>167</ele>
        <time>2017-09-04T12:51:19Z</time>
      </trkpt>
      <trkpt lat="43.29635" lon="6.226">
        <ele>166</ele>
        <time>2017-09-04T12:51:29Z</time>
      </trkpt>
      <trkpt lat="43.29596" lon="6.22587">
        <ele>165</ele>
        <time>2017-09-04T12:51:38Z</time>
      </trkpt>
      <trkpt lat="43.29554" lon="6.2259">
        <ele>164</ele>
        <time>2017-09-04T12:51:48Z</time>
      </trkpt>
      <trkpt lat="43.29576" lon="6.22591">
        <ele>165</ele>
        <time>2017-09-04T12:54:18Z</time>
      </trkpt>
      <trkpt lat="43.29618" lon="6.226">
        <ele>166</ele>
        <time>2017-09-04T12:54:31Z</time>
      </trkpt>
      <trkpt lat="43.29658" lon="6.2259">
        <ele>167</ele>
        <time>2017-09-04T12:54:44Z</time>
      </trkpt>
      <trkpt lat="43.29699" lon="6.22586">
        <ele>167</ele>
        <time>2017-09-04T12:54:58Z</time>
      </trkpt>
      <trkpt lat="43.29741" lon="6.22601">
        <ele>167</ele>
        <time>2017-09-04T12:55:09Z</time>
      </trkpt>
      <trkpt lat="43.29781" lon="6.22608">
        <ele>168</ele>
        <time>2017-09-04T12:55:20Z</time>
      </trkpt>
      <trkpt lat="43.29818" lon="6.22623">
        <ele>168</ele>
        <time>2017-09-04T12:55:33Z</time>
      </trkpt>
      <trkpt lat="43.29853" lon="6.22657">
        <ele>168</ele>
        <time>2017-09-04T12:55:43Z</time>
      </trkpt>
      <trkpt lat="43.29872" lon="6.2271">
        <ele>168</ele>
        <time>2017-09-04T12:55:53Z</time>
      </trkpt>
      <trkpt lat="43.29878" lon="6.22767">
        <ele>168</ele>
        <time>2017-09-04T12:56:01Z</time>
      </trkpt>
      <trkpt lat="43.29881" lon="6.22826">
        <ele>167</ele>
        <time>2017-09-04T12:56:08Z</time>
      </trkpt>
      <trkpt lat="43.29905" lon="6.22854">
        <ele>167</ele>
        <time>2017-09-04T12:56:19Z</time>
      </trkpt>
      <trkpt lat="43.29946" lon="6.22838">
        <ele>168</ele>
        <time>2017-09-04T12:56:31Z</time>
      </trkpt>
      <trkpt lat="43.29976" lon="6.22823">
        <ele>168</ele>
        <time>2017-09-04T12:56:43Z</time>
      </trkpt>
      <trkpt lat="43.2996" lon="6.22769">
        <ele>169</ele>
        <time>2017-09-04T12:56:53Z</time>
      </trkpt>
      <trkpt lat="43.29945" lon="6.22714">
        <ele>169</ele>
        <time>2017-09-04T12:57:04Z</time>
      </trkpt>
      <trkpt lat="43.2993" lon="6.22663">
        <ele>169</ele>
        <time>2017-09-04T12:57:13Z</time>
      </trkpt>
      <trkpt lat="43.29916" lon="6.22608">
        <ele>169</ele>
        <time>2017-09-04T12:57:23Z</time>
      </trkpt>
      <trkpt lat="43.29902" lon="6.22555">
        <ele>170</ele>
        <time>2017-09-04T12:57:37Z</time>
      </trkpt>
      <trkpt lat="43.29884" lon="6.22558">
        <ele>169</ele>
        <time>2017-09-04T12:58:05Z</time>
      </trkpt>
      <trkpt lat="43.29855" lon="6.22584">
        <ele>169</ele>
        <time>2017-09-04T12:58:20Z</time>
      </trkpt>
      <trkpt lat="43.29878" lon="6.22577">
        <ele>169</ele>
        <time>2017-09-04T12:58:36Z</time>
      </trkpt>
      <trkpt lat="43.29871" lon="6.22525">
        <ele>169</ele>
        <time>2017-09-04T12:58:50Z</time>
      </trkpt>
      <trkpt lat="43.2986" lon="6.22474">
        <ele>170</ele>
        <time>2017-09-04T12:59:07Z</time>
      </trkpt>
      <trkpt lat="43.29845" lon="6.22417">
        <ele>170</ele>
        <time>2017-09-04T12:59:23Z</time>
      </trkpt>
      <trkpt lat="43.29833" lon="6.2236">
        <ele>169</ele>
        <time>2017-09-04T12:59:36Z</time>
      </trkpt>
      <trkpt lat="43.29842" lon="6.22379">
        <ele>170</ele>
        <time>2017-09-04T12:59:53Z</time>
      </trkpt>
      <trkpt lat="43.29854" lon="6.22434">
        <ele>170</ele>
        <time>2017-09-04T13:00:05Z</time>
      </trkpt>
      <trkpt lat="43.29869" lon="6.22488">
        <ele>170</ele>
        <time>2017-09-04T13:00:23Z</time>
      </trkpt>
      <trkpt lat="43.29879" lon="6.22537">
        <ele>169</ele>
        <time>2017-09-04T13:00:36Z</time>
      </trkpt>
      <trkpt lat="43.2989" lon="6.22498">
        <ele>170</ele>
        <time>2017-09-04T13:00:52Z</time>
      </trkpt>
      <trkpt lat="43.29875" lon="6.22444">
        <ele>170</ele>
        <time>2017-09-04T13:01:02Z</time>
      </trkpt>
      <trkpt lat="43.2986" lon="6.22391">
        <ele>170</ele>
        <time>2017-09-04T13:01:11Z</time>
      </trkpt>
      <trkpt lat="43.29845" lon="6.22336">
        <ele>170</ele>
        <time>2017-09-04T13:01:21Z</time>
      </trkpt>
      <trkpt lat="43.29832" lon="6.22283">
        <ele>169</ele>
        <time>2017-09-04T13:01:32Z</time>
      </trkpt>
      <trkpt lat="43.29824" lon="6.2223">
        <ele>169</ele>
        <time>2017-09-04T13:01:43Z</time>
      </trkpt>
      <trkpt lat="43.29822" lon="6.22174">
        <ele>169</ele>
        <time>2017-09-04T13:01:52Z</time>
      </trkpt>
      <trkpt lat="43.29826" lon="6.22118">
        <ele>169</ele>
        <time>2017-09-04T13:02:02Z</time>
      </trkpt>
      <trkpt lat="43.29826" lon="6.22064">
        <ele>168</ele>
        <time>2017-09-04T13:02:12Z</time>
      </trkpt>
      <trkpt lat="43.29808" lon="6.22015">
        <ele>167</ele>
        <time>2017-09-04T13:02:21Z</time>
      </trkpt>
      <trkpt lat="43.29789" lon="6.21987">
        <ele>167</ele>
        <time>2017-09-04T13:02:39Z</time>
      </trkpt>
      <trkpt lat="43.29764" lon="6.2194">
        <ele>167</ele>
        <time>2017-09-04T13:02:49Z</time>
      </trkpt>
      <trkpt lat="43.29732" lon="6.21941">
        <ele>167</ele>
        <time>2017-09-04T13:03:00Z</time>
      </trkpt>
      <trkpt lat="43.297" lon="6.21941">
        <ele>167</ele>
        <time>2017-09-04T13:03:15Z</time>
      </trkpt>
      <trkpt lat="43.2969" lon="6.21883">
        <ele>167</ele>
        <time>2017-09-04T13:03:28Z</time>
      </trkpt>
      <trkpt lat="43.29686" lon="6.2183">
        <ele>168</ele>
        <time>2017-09-04T13:03:41Z</time>
      </trkpt>
      <trkpt lat="43.29683" lon="6.21773">
        <ele>168</ele>
        <time>2017-09-04T13:03:53Z</time>
      </trkpt>
      <trkpt lat="43.29682" lon="6.21714">
        <ele>168</ele>
        <time>2017-09-04T13:04:08Z</time>
      </trkpt>
      <trkpt lat="43.29681" lon="6.21658">
        <ele>169</ele>
        <time>2017-09-04T13:04:24Z</time>
      </trkpt>
      <trkpt lat="43.29679" lon="6.21602">
        <ele>170</ele>
        <time>2017-09-04T13:04:40Z</time>
      </trkpt>
      <trkpt lat="43.29664" lon="6.2155">
        <ele>170</ele>
        <time>2017-09-04T13:04:54Z</time>
      </trkpt>
      <trkpt lat="43.29652" lon="6.21498">
        <ele>169</ele>
        <time>2017-09-04T13:05:06Z</time>
      </trkpt>
      <trkpt lat="43.29641" lon="6.21446">
        <ele>167</ele>
        <time>2017-09-04T13:05:17Z</time>
      </trkpt>
      <trkpt lat="43.2963" lon="6.21389">
        <ele>167</ele>
        <time>2017-09-04T13:05:27Z</time>
      </trkpt>
      <trkpt lat="43.29622" lon="6.21331">
        <ele>167</ele>
        <time>2017-09-04T13:05:39Z</time>
      </trkpt>
      <trkpt lat="43.29619" lon="6.21273">
        <ele>167</ele>
        <time>2017-09-04T13:05:52Z</time>
      </trkpt>
      <trkpt lat="43.29616" lon="6.21218">
        <ele>167</ele>
        <time>2017-09-04T13:06:03Z</time>
      </trkpt>
      <trkpt lat="43.29607" lon="6.21162">
        <ele>166</ele>
        <time>2017-09-04T13:06:14Z</time>
      </trkpt>
      <trkpt lat="43.29598" lon="6.21111">
        <ele>166</ele>
        <time>2017-09-04T13:06:30Z</time>
      </trkpt>
      <trkpt lat="43.29589" lon="6.21059">
        <ele>166</ele>
        <time>2017-09-04T13:06:42Z</time>
      </trkpt>
      <trkpt lat="43.2958" lon="6.21003">
        <ele>166</ele>
        <time>2017-09-04T13:06:54Z</time>
      </trkpt>
      <trkpt lat="43.29571" lon="6.2095">
        <ele>166</ele>
        <time>2017-09-04T13:07:04Z</time>
      </trkpt>
      <trkpt lat="43.29559" lon="6.20898">
        <ele>165</ele>
        <time>2017-09-04T13:07:14Z</time>
      </trkpt>
      <trkpt lat="43.29544" lon="6.20843">
        <ele>165</ele>
        <time>2017-09-04T13:07:24Z</time>
      </trkpt>
      <trkpt lat="43.29532" lon="6.2079">
        <ele>165</ele>
        <time>2017-09-04T13:07:34Z</time>
      </trkpt>
      <trkpt lat="43.2952" lon="6.20739">
        <ele>166</ele>
        <time>2017-09-04T13:07:48Z</time>
      </trkpt>
      <trkpt lat="43.29505" lon="6.20689">
        <ele>166</ele>
        <time>2017-09-04T13:08:00Z</time>
      </trkpt>
      <trkpt lat="43.29495" lon="6.20635">
        <ele>166</ele>
        <time>2017-09-04T13:08:11Z</time>
      </trkpt>
      <trkpt lat="43.29511" lon="6.20584">
        <ele>168</ele>
        <time>2017-09-04T13:08:24Z</time>
      </trkpt>
      <trkpt lat="43.29524" lon="6.20531">
        <ele>169</ele>
        <time>2017-09-04T13:08:54Z</time>
      </trkpt>
      <trkpt lat="43.29541" lon="6.20477">
        <ele>170</ele>
        <time>2017-09-04T13:09:08Z</time>
      </trkpt>
      <trkpt lat="43.29558" lon="6.20425">
        <ele>171</ele>
        <time>2017-09-04T13:09:21Z</time>
      </trkpt>
      <trkpt lat="43.29584" lon="6.20377">
        <ele>172</ele>
        <time>2017-09-04T13:09:33Z</time>
      </trkpt>
      <trkpt lat="43.2961" lon="6.20334">
        <ele>173</ele>
        <time>2017-09-04T13:09:47Z</time>
      </trkpt>
      <trkpt lat="43.29628" lon="6.20285">
        <ele>173</ele>
        <time>2017-09-04T13:09:58Z</time>
      </trkpt>
      <trkpt lat="43.29643" lon="6.20233">
        <ele>173</ele>
        <time>2017-09-04T13:10:09Z</time>
      </trkpt>
      <trkpt lat="43.29656" lon="6.20178">
        <ele>173</ele>
        <time>2017-09-04T13:10:23Z</time>
      </trkpt>
      <trkpt lat="43.29668" lon="6.20126">
        <ele>172</ele>
        <time>2017-09-04T13:10:34Z</time>
      </trkpt>
      <trkpt lat="43.2966" lon="6.20082">
        <ele>171</ele>
        <time>2017-09-04T13:10:47Z</time>
      </trkpt>
      <trkpt lat="43.29618" lon="6.2008">
        <ele>170</ele>
        <time>2017-09-04T13:11:32Z</time>
      </trkpt>
      <trkpt lat="43.29574" lon="6.2008">
        <ele>169</ele>
        <time>2017-09-04T13:11:42Z</time>
      </trkpt>
      <trkpt lat="43.29532" lon="6.20084">
        <ele>169</ele>
        <time>2017-09-04T13:11:51Z</time>
      </trkpt>
      <trkpt lat="43.29502" lon="6.2006">
        <ele>170</ele>
        <time>2017-09-04T13:12:03Z</time>
      </trkpt>
      <trkpt lat="43.29519" lon="6.20021">
        <ele>171</ele>
        <time>2017-09-04T13:12:17Z</time>
      </trkpt>
      <trkpt lat="43.29563" lon="6.20019">
        <ele>170</ele>
        <time>2017-09-04T13:12:52Z</time>
      </trkpt>
      <trkpt lat="43.29606" lon="6.20023">
        <ele>169</ele>
        <time>2017-09-04T13:13:03Z</time>
      </trkpt>
      <trkpt lat="43.29646" lon="6.20026">
        <ele>170</ele>
        <time>2017-09-04T13:13:14Z</time>
      </trkpt>
      <trkpt lat="43.29687" lon="6.20027">
        <ele>172</ele>
        <time>2017-09-04T13:13:25Z</time>
      </trkpt>
      <trkpt lat="43.29718" lon="6.19992">
        <ele>172</ele>
        <time>2017-09-04T13:13:41Z</time>
      </trkpt>
      <trkpt lat="43.29747" lon="6.19953">
        <ele>175</ele>
        <time>2017-09-04T13:13:56Z</time>
      </trkpt>
      <trkpt lat="43.29761" lon="6.19903">
        <ele>176</ele>
        <time>2017-09-04T13:14:08Z</time>
      </trkpt>
      <trkpt lat="43.29753" lon="6.1985">
        <ele>177</ele>
        <time>2017-09-04T13:14:17Z</time>
      </trkpt>
      <trkpt lat="43.29756" lon="6.19801">
        <ele>179</ele>
        <time>2017-09-04T13:14:26Z</time>
      </trkpt>
      <trkpt lat="43.29785" lon="6.19761">
        <ele>179</ele>
        <time>2017-09-04T13:14:38Z</time>
      </trkpt>
      <trkpt lat="43.29797" lon="6.1971">
        <ele>180</ele>
        <time>2017-09-04T13:14:54Z</time>
      </trkpt>
      <trkpt lat="43.29817" lon="6.19663">
        <ele>180</ele>
        <time>2017-09-04T13:15:12Z</time>
      </trkpt>
      <trkpt lat="43.29836" lon="6.19614">
        <ele>181</ele>
        <time>2017-09-04T13:15:33Z</time>
      </trkpt>
      <trkpt lat="43.29831" lon="6.1956">
        <ele>184</ele>
        <time>2017-09-04T13:15:52Z</time>
      </trkpt>
      <trkpt lat="43.29843" lon="6.19507">
        <ele>186</ele>
        <time>2017-09-04T13:16:09Z</time>
      </trkpt>
      <trkpt lat="43.29827" lon="6.19454">
        <ele>187</ele>
        <time>2017-09-04T13:16:34Z</time>
      </trkpt>
      <trkpt lat="43.29826" lon="6.19408">
        <ele>188</ele>
        <time>2017-09-04T13:16:50Z</time>
      </trkpt>
      <trkpt lat="43.29857" lon="6.19372">
        <ele>190</ele>
        <time>2017-09-04T13:17:06Z</time>
      </trkpt>
      <trkpt lat="43.29894" lon="6.19389">
        <ele>190</ele>
        <time>2017-09-04T13:17:15Z</time>
      </trkpt>
      <trkpt lat="43.29926" lon="6.19363">
        <ele>189</ele>
        <time>2017-09-04T13:17:26Z</time>
      </trkpt>
      <trkpt lat="43.29948" lon="6.1932">
        <ele>191</ele>
        <time>2017-09-04T13:17:46Z</time>
      </trkpt>
      <trkpt lat="43.29982" lon="6.19291">
        <ele>193</ele>
        <time>2017-09-04T13:18:03Z</time>
      </trkpt>
      <trkpt lat="43.30022" lon="6.19281">
        <ele>197</ele>
        <time>2017-09-04T13:18:25Z</time>
      </trkpt>
      <trkpt lat="43.30063" lon="6.19282">
        <ele>200</ele>
        <time>2017-09-04T13:18:53Z</time>
      </trkpt>
      <trkpt lat="43.30105" lon="6.19266">
        <ele>201</ele>
        <time>2017-09-04T13:19:47Z</time>
      </trkpt>
      <trkpt lat="43.30145" lon="6.19247">
        <ele>202</ele>
        <time>2017-09-04T13:20:05Z</time>
      </trkpt>
      <trkpt lat="43.30182" lon="6.19231">
        <ele>203</ele>
        <time>2017-09-04T13:20:23Z</time>
      </trkpt>
      <trkpt lat="43.30216" lon="6.19204">
        <ele>205</ele>
        <time>2017-09-04T13:20:41Z</time>
      </trkpt>
      <trkpt lat="43.30209" lon="6.19151">
        <ele>207</ele>
        <time>2017-09-04T13:21:00Z</time>
      </trkpt>
      <trkpt lat="43.30221" lon="6.19098">
        <ele>210</ele>
        <time>2017-09-04T13:21:17Z</time>
      </trkpt>
      <trkpt lat="43.30217" lon="6.1905">
        <ele>210</ele>
        <time>2017-09-04T13:21:40Z</time>
      </trkpt>
      <trkpt lat="43.30197" lon="6.19002">
        <ele>210</ele>
        <time>2017-09-04T13:21:55Z</time>
      </trkpt>
      <trkpt lat="43.30173" lon="6.18958">
        <ele>210</ele>
        <time>2017-09-04T13:22:10Z</time>
      </trkpt>
      <trkpt lat="43.30146" lon="6.18917">
        <ele>208</ele>
        <time>2017-09-04T13:22:24Z</time>
      </trkpt>
      <trkpt lat="43.30113" lon="6.18896">
        <ele>203</ele>
        <time>2017-09-04T13:22:39Z</time>
      </trkpt>
      <trkpt lat="43.30092" lon="6.18851">
        <ele>202</ele>
        <time>2017-09-04T13:22:54Z</time>
      </trkpt>
      <trkpt lat="43.30074" lon="6.188">
        <ele>201</ele>
        <time>2017-09-04T13:23:11Z</time>
      </trkpt>
      <trkpt lat="43.30059" lon="6.18748">
        <ele>202</ele>
        <time>2017-09-04T13:23:27Z</time>
      </trkpt>
      <trkpt lat="43.30035" lon="6.18702">
        <ele>201</ele>
        <time>2017-09-04T13:23:56Z</time>
      </trkpt>
      <trkpt lat="43.30004" lon="6.18724">
        <ele>199</ele>
        <time>2017-09-04T13:24:19Z</time>
      </trkpt>
      <trkpt lat="43.29963" lon="6.18729">
        <ele>198</ele>
        <time>2017-09-04T13:24:27Z</time>
      </trkpt>
      <trkpt lat="43.29921" lon="6.18729">
        <ele>197</ele>
        <time>2017-09-04T13:24:34Z</time>
      </trkpt>
      <trkpt lat="43.29881" lon="6.18732">
        <ele>195</ele>
        <time>2017-09-04T13:24:43Z</time>
      </trkpt>
      <trkpt lat="43.29838" lon="6.18737">
        <ele>194</ele>
        <time>2017-09-04T13:24:52Z</time>
      </trkpt>
      <trkpt lat="43.29818" lon="6.18724">
        <ele>194</ele>
        <time>2017-09-04T13:25:49Z</time>
      </trkpt>
      <trkpt lat="43.29808" lon="6.18706">
        <ele>194</ele>
        <time>2017-09-05T06:21:27Z</time>
      </trkpt>
      <trkpt lat="43.29815" lon="6.18738">
        <ele>193</ele>
        <time>2017-09-05T06:28:44Z</time>
      </trkpt>
      <trkpt lat="43.29856" lon="6.18743">
        <ele>194</ele>
        <time>2017-09-05T06:29:12Z</time>
      </trkpt>
      <trkpt lat="43.29902" lon="6.18737">
        <ele>196</ele>
        <time>2017-09-05T06:29:27Z</time>
      </trkpt>
      <trkpt lat="43.29943" lon="6.18734">
        <ele>197</ele>
        <time>2017-09-05T06:29:43Z</time>
      </trkpt>
      <trkpt lat="43.29984" lon="6.18728">
        <ele>199</ele>
        <time>2017-09-05T06:30:01Z</time>
      </trkpt>
      <trkpt lat="43.30027" lon="6.18727">
        <ele>200</ele>
        <time>2017-09-05T06:30:21Z</time>
      </trkpt>
      <trkpt lat="43.30036" lon="6.18688">
        <ele>202</ele>
        <time>2017-09-05T06:30:41Z</time>
      </trkpt>
      <trkpt lat="43.3003" lon="6.18631">
        <ele>203</ele>
        <time>2017-09-05T06:30:55Z</time>
      </trkpt>
      <trkpt lat="43.30031" lon="6.18512">
        <ele>205</ele>
        <time>2017-09-05T06:31:27Z</time>
      </trkpt>
      <trkpt lat="43.30027" lon="6.18454">
        <ele>205</ele>
        <time>2017-09-05T06:31:42Z</time>
      </trkpt>
      <trkpt lat="43.30049" lon="6.18437">
        <ele>207</ele>
        <time>2017-09-05T06:32:00Z</time>
      </trkpt>
      <trkpt lat="43.30074" lon="6.18485">
        <ele>209</ele>
        <time>2017-09-05T06:32:17Z</time>
      </trkpt>
      <trkpt lat="43.30099" lon="6.1853">
        <ele>212</ele>
        <time>2017-09-05T06:32:34Z</time>
      </trkpt>
      <trkpt lat="43.30122" lon="6.18576">
        <ele>214</ele>
        <time>2017-09-05T06:32:51Z</time>
      </trkpt>
      <trkpt lat="43.30143" lon="6.18623">
        <ele>215</ele>
        <time>2017-09-05T06:33:12Z</time>
      </trkpt>
      <trkpt lat="43.30166" lon="6.18669">
        <ele>217</ele>
        <time>2017-09-05T06:33:35Z</time>
      </trkpt>
      <trkpt lat="43.3019" lon="6.18713">
        <ele>221</ele>
        <time>2017-09-05T06:33:58Z</time>
      </trkpt>
      <trkpt lat="43.30199" lon="6.18744">
        <ele>222</ele>
        <time>2017-09-05T06:34:56Z</time>
      </trkpt>
      <trkpt lat="43.30212" lon="6.18686">
        <ele>226</ele>
        <time>2017-09-05T06:35:39Z</time>
      </trkpt>
      <trkpt lat="43.30208" lon="6.18629">
        <ele>228</ele>
        <time>2017-09-05T06:35:56Z</time>
      </trkpt>
      <trkpt lat="43.30212" lon="6.18571">
        <ele>231</ele>
        <time>2017-09-05T06:36:14Z</time>
      </trkpt>
      <trkpt lat="43.30214" lon="6.18517">
        <ele>235</ele>
        <time>2017-09-05T06:36:42Z</time>
      </trkpt>
      <trkpt lat="43.30203" lon="6.18466">
        <ele>236</ele>
        <time>2017-09-05T06:37:06Z</time>
      </trkpt>
      <trkpt lat="43.3019" lon="6.18412">
        <ele>234</ele>
        <time>2017-09-05T06:37:19Z</time>
      </trkpt>
      <trkpt lat="43.3019" lon="6.18357">
        <ele>232</ele>
        <time>2017-09-05T06:37:28Z</time>
      </trkpt>
      <trkpt lat="43.30198" lon="6.18299">
        <ele>235</ele>
        <time>2017-09-05T06:37:45Z</time>
      </trkpt>
      <trkpt lat="43.30188" lon="6.1824">
        <ele>238</ele>
        <time>2017-09-05T06:38:08Z</time>
      </trkpt>
      <trkpt lat="43.30208" lon="6.18193">
        <ele>246</ele>
        <time>2017-09-05T06:39:15Z</time>
      </trkpt>
      <trkpt lat="43.30236" lon="6.18184">
        <ele>254</ele>
        <time>2017-09-05T06:40:10Z</time>
      </trkpt>
      <trkpt lat="43.3025" lon="6.18133">
        <ele>258</ele>
        <time>2017-09-05T06:40:53Z</time>
      </trkpt>
      <trkpt lat="43.30276" lon="6.18091">
        <ele>262</ele>
        <time>2017-09-05T06:41:45Z</time>
      </trkpt>
      <trkpt lat="43.30304" lon="6.18047">
        <ele>263</ele>
        <time>2017-09-05T06:42:13Z</time>
      </trkpt>
      <trkpt lat="43.30329" lon="6.18001">
        <ele>265</ele>
        <time>2017-09-05T06:42:23Z</time>
      </trkpt>
      <trkpt lat="43.30343" lon="6.17955">
        <ele>264</ele>
        <time>2017-09-05T06:42:51Z</time>
      </trkpt>
      <trkpt lat="43.30365" lon="6.17911">
        <ele>265</ele>
        <time>2017-09-05T06:43:19Z</time>
      </trkpt>
      <trkpt lat="43.30411" lon="6.17858">
        <ele>266</ele>
        <time>2017-09-05T06:44:36Z</time>
      </trkpt>
      <trkpt lat="43.3047" lon="6.17858">
        <ele>275</ele>
        <time>2017-09-05T06:45:11Z</time>
      </trkpt>
      <trkpt lat="43.30521" lon="6.17874">
        <ele>278</ele>
        <time>2017-09-05T06:45:34Z</time>
      </trkpt>
      <trkpt lat="43.3056" lon="6.17899">
        <ele>280</ele>
        <time>2017-09-05T06:45:54Z</time>
      </trkpt>
      <trkpt lat="43.30595" lon="6.17903">
        <ele>283</ele>
        <time>2017-09-05T06:46:27Z</time>
      </trkpt>
      <trkpt lat="43.30614" lon="6.17858">
        <ele>286</ele>
        <time>2017-09-05T06:46:55Z</time>
      </trkpt>
      <trkpt lat="43.30651" lon="6.17827">
        <ele>289</ele>
        <time>2017-09-05T06:47:16Z</time>
      </trkpt>
      <trkpt lat="43.30666" lon="6.17781">
        <ele>295</ele>
        <time>2017-09-05T06:47:50Z</time>
      </trkpt>
      <trkpt lat="43.30669" lon="6.17741">
        <ele>300</ele>
        <time>2017-09-05T06:48:57Z</time>
      </trkpt>
      <trkpt lat="43.30672" lon="6.177">
        <ele>305</ele>
        <time>2017-09-05T06:49:54Z</time>
      </trkpt>
      <trkpt lat="43.30673" lon="6.17663">
        <ele>310</ele>
        <time>2017-09-05T06:50:49Z</time>
      </trkpt>
      <trkpt lat="43.30675" lon="6.17629">
        <ele>314</ele>
        <time>2017-09-05T06:51:45Z</time>
      </trkpt>
      <trkpt lat="43.30654" lon="6.17578">
        <ele>317</ele>
        <time>2017-09-05T06:52:32Z</time>
      </trkpt>
      <trkpt lat="43.30655" lon="6.17524">
        <ele>319</ele>
        <time>2017-09-05T06:52:55Z</time>
      </trkpt>
      <trkpt lat="43.30651" lon="6.17467">
        <ele>318</ele>
        <time>2017-09-05T06:53:14Z</time>
      </trkpt>
      <trkpt lat="43.30639" lon="6.17316">
        <ele>322</ele>
        <time>2017-09-05T06:54:17Z</time>
      </trkpt>
      <trkpt lat="43.30638" lon="6.17263">
        <ele>325</ele>
        <time>2017-09-05T06:55:04Z</time>
      </trkpt>
      <trkpt lat="43.30621" lon="6.1721">
        <ele>325</ele>
        <time>2017-09-05T06:55:44Z</time>
      </trkpt>
      <trkpt lat="43.3061" lon="6.17156">
        <ele>329</ele>
        <time>2017-09-05T06:56:04Z</time>
      </trkpt>
      <trkpt lat="43.30638" lon="6.17112">
        <ele>327</ele>
        <time>2017-09-05T06:56:22Z</time>
      </trkpt>
      <trkpt lat="43.3067" lon="6.17073">
        <ele>326</ele>
        <time>2017-09-05T06:56:37Z</time>
      </trkpt>
      <trkpt lat="43.307" lon="6.17035">
        <ele>325</ele>
        <time>2017-09-05T06:56:47Z</time>
      </trkpt>
      <trkpt lat="43.30712" lon="6.16985">
        <ele>324</ele>
        <time>2017-09-05T06:56:59Z</time>
      </trkpt>
      <trkpt lat="43.30712" lon="6.1693">
        <ele>320</ele>
        <time>2017-09-05T06:57:11Z</time>
      </trkpt>
      <trkpt lat="43.30694" lon="6.16884">
        <ele>320</ele>
        <time>2017-09-05T06:57:24Z</time>
      </trkpt>
      <trkpt lat="43.30672" lon="6.16832">
        <ele>320</ele>
        <time>2017-09-05T06:57:43Z</time>
      </trkpt>
      <trkpt lat="43.30656" lon="6.16768">
        <ele>314</ele>
        <time>2017-09-05T06:57:52Z</time>
      </trkpt>
      <trkpt lat="43.30642" lon="6.16709">
        <ele>309</ele>
        <time>2017-09-05T06:57:58Z</time>
      </trkpt>
      <trkpt lat="43.30636" lon="6.16648">
        <ele>304</ele>
        <time>2017-09-05T06:58:05Z</time>
      </trkpt>
      <trkpt lat="43.30631" lon="6.16586">
        <ele>305</ele>
        <time>2017-09-05T06:59:13Z</time>
      </trkpt>
      <trkpt lat="43.30614" lon="6.1653">
        <ele>308</ele>
        <time>2017-09-05T06:59:49Z</time>
      </trkpt>
      <trkpt lat="43.30589" lon="6.16485">
        <ele>313</ele>
        <time>2017-09-05T07:00:25Z</time>
      </trkpt>
      <trkpt lat="43.30565" lon="6.16435">
        <ele>320</ele>
        <time>2017-09-05T07:01:04Z</time>
      </trkpt>
      <trkpt lat="43.30534" lon="6.1639">
        <ele>325</ele>
        <time>2017-09-05T07:02:00Z</time>
      </trkpt>
      <trkpt lat="43.305" lon="6.16357">
        <ele>326</ele>
        <time>2017-09-05T07:02:25Z</time>
      </trkpt>
      <trkpt lat="43.30468" lon="6.16314">
        <ele>327</ele>
        <time>2017-09-05T07:03:14Z</time>
      </trkpt>
      <trkpt lat="43.30429" lon="6.16323">
        <ele>327</ele>
        <time>2017-09-05T07:03:40Z</time>
      </trkpt>
      <trkpt lat="43.30473" lon="6.16322">
        <ele>327</ele>
        <time>2017-09-05T07:04:09Z</time>
      </trkpt>
      <trkpt lat="43.30506" lon="6.1636">
        <ele>326</ele>
        <time>2017-09-05T07:04:26Z</time>
      </trkpt>
      <trkpt lat="43.30538" lon="6.16397">
        <ele>324</ele>
        <time>2017-09-05T07:04:38Z</time>
      </trkpt>
      <trkpt lat="43.30566" lon="6.16443">
        <ele>319</ele>
        <time>2017-09-05T07:04:55Z</time>
      </trkpt>
      <trkpt lat="43.30589" lon="6.16491">
        <ele>312</ele>
        <time>2017-09-05T07:05:10Z</time>
      </trkpt>
      <trkpt lat="43.30617" lon="6.16518">
        <ele>309</ele>
        <time>2017-09-05T07:05:49Z</time>
      </trkpt>
      <trkpt lat="43.30615" lon="6.16461">
        <ele>314</ele>
        <time>2017-09-05T07:06:17Z</time>
      </trkpt>
      <trkpt lat="43.30603" lon="6.16405">
        <ele>320</ele>
        <time>2017-09-05T07:06:50Z</time>
      </trkpt>
      <trkpt lat="43.30601" lon="6.16376">
        <ele>324</ele>
        <time>2017-09-05T07:07:26Z</time>
      </trkpt>
      <trkpt lat="43.30612" lon="6.16433">
        <ele>316</ele>
        <time>2017-09-05T07:07:37Z</time>
      </trkpt>
      <trkpt lat="43.30619" lon="6.16488">
        <ele>311</ele>
        <time>2017-09-05T07:07:46Z</time>
      </trkpt>
      <trkpt lat="43.30612" lon="6.16438">
        <ele>316</ele>
        <time>2017-09-05T07:09:17Z</time>
      </trkpt>
      <trkpt lat="43.30599" lon="6.16383">
        <ele>323</ele>
        <time>2017-09-05T07:13:57Z</time>
      </trkpt>
      <trkpt lat="43.30594" lon="6.16325">
        <ele>329</ele>
        <time>2017-09-05T07:14:30Z</time>
      </trkpt>
      <trkpt lat="43.30603" lon="6.16268">
        <ele>331</ele>
        <time>2017-09-05T07:17:11Z</time>
      </trkpt>
      <trkpt lat="43.30589" lon="6.16209">
        <ele>330</ele>
        <time>2017-09-05T07:17:33Z</time>
      </trkpt>
      <trkpt lat="43.30572" lon="6.16153">
        <ele>327</ele>
        <time>2017-09-05T07:17:48Z</time>
      </trkpt>
      <trkpt lat="43.30542" lon="6.16111">
        <ele>325</ele>
        <time>2017-09-05T07:17:56Z</time>
      </trkpt>
      <trkpt lat="43.30518" lon="6.16068">
        <ele>327</ele>
        <time>2017-09-05T07:18:09Z</time>
      </trkpt>
      <trkpt lat="43.30495" lon="6.16022">
        <ele>327</ele>
        <time>2017-09-05T07:18:21Z</time>
      </trkpt>
      <trkpt lat="43.30476" lon="6.15973">
        <ele>322</ele>
        <time>2017-09-05T07:18:32Z</time>
      </trkpt>
      <trkpt lat="43.30465" lon="6.15922">
        <ele>315</ele>
        <time>2017-09-05T07:18:48Z</time>
      </trkpt>
      <trkpt lat="43.30463" lon="6.15862">
        <ele>311</ele>
        <time>2017-09-05T07:18:58Z</time>
      </trkpt>
      <trkpt lat="43.30449" lon="6.15802">
        <ele>309</ele>
        <time>2017-09-05T07:19:05Z</time>
      </trkpt>
      <trkpt lat="43.30439" lon="6.15748">
        <ele>308</ele>
        <time>2017-09-05T07:19:14Z</time>
      </trkpt>
      <trkpt lat="43.30423" lon="6.15691">
        <ele>307</ele>
        <time>2017-09-05T07:19:23Z</time>
      </trkpt>
      <trkpt lat="43.30407" lon="6.15641">
        <ele>308</ele>
        <time>2017-09-05T07:19:37Z</time>
      </trkpt>
      <trkpt lat="43.30382" lon="6.15597">
        <ele>310</ele>
        <time>2017-09-05T07:19:52Z</time>
      </trkpt>
      <trkpt lat="43.30363" lon="6.1555">
        <ele>311</ele>
        <time>2017-09-05T07:20:13Z</time>
      </trkpt>
      <trkpt lat="43.30351" lon="6.15498">
        <ele>314</ele>
        <time>2017-09-05T07:20:38Z</time>
      </trkpt>
      <trkpt lat="43.3034" lon="6.15444">
        <ele>317</ele>
        <time>2017-09-05T07:20:59Z</time>
      </trkpt>
      <trkpt lat="43.30324" lon="6.15394">
        <ele>321</ele>
        <time>2017-09-05T07:21:24Z</time>
      </trkpt>
      <trkpt lat="43.3032" lon="6.15344">
        <ele>324</ele>
        <time>2017-09-05T07:21:50Z</time>
      </trkpt>
      <trkpt lat="43.30322" lon="6.15284">
        <ele>323</ele>
        <time>2017-09-05T07:22:19Z</time>
      </trkpt>
      <trkpt lat="43.30321" lon="6.15227">
        <ele>314</ele>
        <time>2017-09-05T07:22:27Z</time>
      </trkpt>
      <trkpt lat="43.30333" lon="6.15173">
        <ele>310</ele>
        <time>2017-09-05T07:22:38Z</time>
      </trkpt>
      <trkpt lat="43.30333" lon="6.15122">
        <ele>309</ele>
        <time>2017-09-05T07:22:45Z</time>
      </trkpt>
      <trkpt lat="43.3031" lon="6.15079">
        <ele>309</ele>
        <time>2017-09-05T07:22:54Z</time>
      </trkpt>
      <trkpt lat="43.30317" lon="6.15031">
        <ele>316</ele>
        <time>2017-09-05T07:23:24Z</time>
      </trkpt>
      <trkpt lat="43.30332" lon="6.14975">
        <ele>323</ele>
        <time>2017-09-05T07:24:35Z</time>
      </trkpt>
      <trkpt lat="43.30321" lon="6.1492">
        <ele>326</ele>
        <time>2017-09-05T07:25:00Z</time>
      </trkpt>
      <trkpt lat="43.30314" lon="6.14867">
        <ele>329</ele>
        <time>2017-09-05T07:25:21Z</time>
      </trkpt>
      <trkpt lat="43.30314" lon="6.14811">
        <ele>331</ele>
        <time>2017-09-05T07:25:41Z</time>
      </trkpt>
      <trkpt lat="43.3032" lon="6.14757">
        <ele>332</ele>
        <time>2017-09-05T07:25:58Z</time>
      </trkpt>
      <trkpt lat="43.30329" lon="6.14701">
        <ele>333</ele>
        <time>2017-09-05T07:26:15Z</time>
      </trkpt>
      <trkpt lat="43.30341" lon="6.14644">
        <ele>333</ele>
        <time>2017-09-05T07:26:28Z</time>
      </trkpt>
      <trkpt lat="43.30348" lon="6.14588">
        <ele>329</ele>
        <time>2017-09-05T07:26:35Z</time>
      </trkpt>
      <trkpt lat="43.30365" lon="6.1454">
        <ele>325</ele>
        <time>2017-09-05T07:26:42Z</time>
      </trkpt>
      <trkpt lat="43.30398" lon="6.14503">
        <ele>321</ele>
        <time>2017-09-05T07:26:51Z</time>
      </trkpt>
      <trkpt lat="43.30442" lon="6.14497">
        <ele>323</ele>
        <time>2017-09-05T07:27:06Z</time>
      </trkpt>
      <trkpt lat="43.30484" lon="6.14497">
        <ele>326</ele>
        <time>2017-09-05T07:27:19Z</time>
      </trkpt>
      <trkpt lat="43.30485" lon="6.14465">
        <ele>326</ele>
        <time>2017-09-05T07:27:56Z</time>
      </trkpt>
      <trkpt lat="43.30472" lon="6.14443">
        <ele>322</ele>
        <time>2017-09-05T07:29:05Z</time>
      </trkpt>
      <trkpt lat="43.30454" lon="6.14393">
        <ele>322</ele>
        <time>2017-09-05T07:29:36Z</time>
      </trkpt>
      <trkpt lat="43.3044" lon="6.1434">
        <ele>327</ele>
        <time>2017-09-05T07:30:08Z</time>
      </trkpt>
      <trkpt lat="43.30422" lon="6.14301">
        <ele>326</ele>
        <time>2017-09-05T07:32:32Z</time>
      </trkpt>
      <trkpt lat="43.30381" lon="6.14291">
        <ele>313</ele>
        <time>2017-09-05T07:33:45Z</time>
      </trkpt>
      <trkpt lat="43.30343" lon="6.14292">
        <ele>303</ele>
        <time>2017-09-05T07:34:31Z</time>
      </trkpt>
      <trkpt lat="43.30302" lon="6.14271">
        <ele>294</ele>
        <time>2017-09-05T07:35:15Z</time>
      </trkpt>
      <trkpt lat="43.30265" lon="6.14246">
        <ele>286</ele>
        <time>2017-09-05T07:35:54Z</time>
      </trkpt>
      <trkpt lat="43.30235" lon="6.14209">
        <ele>279</ele>
        <time>2017-09-05T07:36:12Z</time>
      </trkpt>
      <trkpt lat="43.30204" lon="6.14171">
        <ele>270</ele>
        <time>2017-09-05T07:36:28Z</time>
      </trkpt>
      <trkpt lat="43.30169" lon="6.14132">
        <ele>262</ele>
        <time>2017-09-05T07:36:41Z</time>
      </trkpt>
      <trkpt lat="43.30133" lon="6.14122">
        <ele>253</ele>
        <time>2017-09-05T07:36:55Z</time>
      </trkpt>
      <trkpt lat="43.30096" lon="6.14109">
        <ele>246</ele>
        <time>2017-09-05T07:37:03Z</time>
      </trkpt>
      <trkpt lat="43.30063" lon="6.14088">
        <ele>242</ele>
        <time>2017-09-05T07:37:12Z</time>
      </trkpt>
      <trkpt lat="43.30026" lon="6.14058">
        <ele>242</ele>
        <time>2017-09-05T07:37:24Z</time>
      </trkpt>
      <trkpt lat="43.29994" lon="6.14019">
        <ele>238</ele>
        <time>2017-09-05T07:37:42Z</time>
      </trkpt>
      <trkpt lat="43.29958" lon="6.14025">
        <ele>235</ele>
        <time>2017-09-05T07:39:00Z</time>
      </trkpt>
      <trkpt lat="43.29957" lon="6.14022">
        <ele>235</ele>
        <time>2017-09-05T07:39:38Z</time>
      </trkpt>
      <trkpt lat="43.29919" lon="6.14044">
        <ele>235</ele>
        <time>2017-09-05T07:39:50Z</time>
      </trkpt>
      <trkpt lat="43.29881" lon="6.14064">
        <ele>231</ele>
        <time>2017-09-05T07:39:59Z</time>
      </trkpt>
      <trkpt lat="43.29839" lon="6.14086">
        <ele>225</ele>
        <time>2017-09-05T07:40:06Z</time>
      </trkpt>
      <trkpt lat="43.29794" lon="6.14111">
        <ele>225</ele>
        <time>2017-09-05T07:40:12Z</time>
      </trkpt>
      <trkpt lat="43.29753" lon="6.14122">
        <ele>223</ele>
        <time>2017-09-05T07:40:17Z</time>
      </trkpt>
      <trkpt lat="43.2971" lon="6.14126">
        <ele>221</ele>
        <time>2017-09-05T07:40:24Z</time>
      </trkpt>
      <trkpt lat="43.29673" lon="6.1411">
        <ele>222</ele>
        <time>2017-09-05T07:40:35Z</time>
      </trkpt>
      <trkpt lat="43.29636" lon="6.14096">
        <ele>221</ele>
        <time>2017-09-05T07:40:45Z</time>
      </trkpt>
      <trkpt lat="43.29592" lon="6.14093">
        <ele>218</ele>
        <time>2017-09-05T07:40:52Z</time>
      </trkpt>
      <trkpt lat="43.2955" lon="6.14091">
        <ele>216</ele>
        <time>2017-09-05T07:41:01Z</time>
      </trkpt>
      <trkpt lat="43.29511" lon="6.14099">
        <ele>213</ele>
        <time>2017-09-05T07:41:07Z</time>
      </trkpt>
      <trkpt lat="43.2947" lon="6.14103">
        <ele>211</ele>
        <time>2017-09-05T07:41:15Z</time>
      </trkpt>
      <trkpt lat="43.29445" lon="6.14061">
        <ele>210</ele>
        <time>2017-09-05T07:41:24Z</time>
      </trkpt>
      <trkpt lat="43.29405" lon="6.14075">
        <ele>207</ele>
        <time>2017-09-05T07:41:32Z</time>
      </trkpt>
      <trkpt lat="43.29364" lon="6.14091">
        <ele>205</ele>
        <time>2017-09-05T07:41:38Z</time>
      </trkpt>
      <trkpt lat="43.29326" lon="6.14107">
        <ele>203</ele>
        <time>2017-09-05T07:41:43Z</time>
      </trkpt>
      <trkpt lat="43.29285" lon="6.14121">
        <ele>201</ele>
        <time>2017-09-05T07:41:48Z</time>
      </trkpt>
      <trkpt lat="43.29247" lon="6.14136">
        <ele>199</ele>
        <time>2017-09-05T07:42:03Z</time>
      </trkpt>
      <trkpt lat="43.29196" lon="6.14151">
        <ele>197</ele>
        <time>2017-09-05T07:42:24Z</time>
      </trkpt>
      <trkpt lat="43.29155" lon="6.14168">
        <ele>194</ele>
        <time>2017-09-05T07:42:31Z</time>
      </trkpt>
      <trkpt lat="43.29113" lon="6.14184">
        <ele>192</ele>
        <time>2017-09-05T07:42:53Z</time>
      </trkpt>
      <trkpt lat="43.29072" lon="6.14199">
        <ele>191</ele>
        <time>2017-09-05T07:43:03Z</time>
      </trkpt>
      <trkpt lat="43.2903" lon="6.14199">
        <ele>189</ele>
        <time>2017-09-05T07:43:10Z</time>
      </trkpt>
      <trkpt lat="43.28991" lon="6.1418">
        <ele>187</ele>
        <time>2017-09-05T07:43:19Z</time>
      </trkpt>
      <trkpt lat="43.28985" lon="6.1419">
        <ele>187</ele>
        <time>2017-09-05T07:43:37Z</time>
      </trkpt>
      <trkpt lat="43.29028" lon="6.142">
        <ele>188</ele>
        <time>2017-09-05T07:43:49Z</time>
      </trkpt>
      <trkpt lat="43.29069" lon="6.14198">
        <ele>191</ele>
        <time>2017-09-05T07:44:10Z</time>
      </trkpt>
      <trkpt lat="43.29109" lon="6.14186">
        <ele>192</ele>
        <time>2017-09-05T07:44:33Z</time>
      </trkpt>
      <trkpt lat="43.29097" lon="6.14186">
        <ele>192</ele>
        <time>2017-09-05T07:45:08Z</time>
      </trkpt>
      <trkpt lat="43.29057" lon="6.14199">
        <ele>190</ele>
        <time>2017-09-05T07:45:18Z</time>
      </trkpt>
      <trkpt lat="43.29016" lon="6.14197">
        <ele>188</ele>
        <time>2017-09-05T07:45:25Z</time>
      </trkpt>
      <trkpt lat="43.28968" lon="6.14201">
        <ele>186</ele>
        <time>2017-09-05T07:45:32Z</time>
      </trkpt>
      <trkpt lat="43.28925" lon="6.14219">
        <ele>184</ele>
        <time>2017-09-05T07:45:38Z</time>
      </trkpt>
      <trkpt lat="43.28883" lon="6.14234">
        <ele>183</ele>
        <time>2017-09-05T07:45:44Z</time>
      </trkpt>
      <trkpt lat="43.28843" lon="6.14216">
        <ele>182</ele>
        <time>2017-09-05T07:45:50Z</time>
      </trkpt>
      <trkpt lat="43.28809" lon="6.14184">
        <ele>180</ele>
        <time>2017-09-05T07:45:57Z</time>
      </trkpt>
      <trkpt lat="43.28805" lon="6.14123">
        <ele>180</ele>
        <time>2017-09-05T07:46:07Z</time>
      </trkpt>
      <trkpt lat="43.28801" lon="6.14069">
        <ele>180</ele>
        <time>2017-09-05T07:46:19Z</time>
      </trkpt>
      <trkpt lat="43.28814" lon="6.14017">
        <ele>180</ele>
        <time>2017-09-05T07:46:31Z</time>
      </trkpt>
      <trkpt lat="43.28818" lon="6.13964">
        <ele>181</ele>
        <time>2017-09-05T07:46:45Z</time>
      </trkpt>
      <trkpt lat="43.28847" lon="6.13926">
        <ele>183</ele>
        <time>2017-09-05T07:46:58Z</time>
      </trkpt>
      <trkpt lat="43.28849" lon="6.13878">
        <ele>184</ele>
        <time>2017-09-05T07:47:13Z</time>
      </trkpt>
      <trkpt lat="43.28817" lon="6.13847">
        <ele>183</ele>
        <time>2017-09-05T07:47:23Z</time>
      </trkpt>
      <trkpt lat="43.28783" lon="6.13815">
        <ele>181</ele>
        <time>2017-09-05T07:47:47Z</time>
      </trkpt>
      <trkpt lat="43.28739" lon="6.13834">
        <ele>179</ele>
        <time>2017-09-05T07:47:59Z</time>
      </trkpt>
      <trkpt lat="43.28695" lon="6.1385">
        <ele>176</ele>
        <time>2017-09-05T07:48:07Z</time>
      </trkpt>
      <trkpt lat="43.28678" lon="6.13898">
        <ele>175</ele>
        <time>2017-09-05T07:48:14Z</time>
      </trkpt>
      <trkpt lat="43.28678" lon="6.13956">
        <ele>175</ele>
        <time>2017-09-05T07:48:21Z</time>
      </trkpt>
      <trkpt lat="43.28649" lon="6.13989">
        <ele>174</ele>
        <time>2017-09-05T07:48:53Z</time>
      </trkpt>
      <trkpt lat="43.28612" lon="6.14022">
        <ele>172</ele>
        <time>2017-09-05T07:49:01Z</time>
      </trkpt>
      <trkpt lat="43.28574" lon="6.14048">
        <ele>170</ele>
        <time>2017-09-05T07:49:07Z</time>
      </trkpt>
      <trkpt lat="43.28537" lon="6.14074">
        <ele>169</ele>
        <time>2017-09-05T07:49:13Z</time>
      </trkpt>
      <trkpt lat="43.28539" lon="6.14121">
        <ele>168</ele>
        <time>2017-09-05T07:49:25Z</time>
      </trkpt>
      <trkpt lat="43.28541" lon="6.14168">
        <ele>169</ele>
        <time>2017-09-05T07:49:37Z</time>
      </trkpt>
      <trkpt lat="43.28515" lon="6.14211">
        <ele>168</ele>
        <time>2017-09-05T07:49:51Z</time>
      </trkpt>
      <trkpt lat="43.28492" lon="6.1426">
        <ele>168</ele>
        <time>2017-09-05T07:50:01Z</time>
      </trkpt>
      <trkpt lat="43.2846" lon="6.14293">
        <ele>166</ele>
        <time>2017-09-05T07:50:08Z</time>
      </trkpt>
      <trkpt lat="43.28429" lon="6.14326">
        <ele>165</ele>
        <time>2017-09-05T07:50:15Z</time>
      </trkpt>
      <trkpt lat="43.28395" lon="6.14365">
        <ele>163</ele>
        <time>2017-09-05T07:50:23Z</time>
      </trkpt>
      <trkpt lat="43.2837" lon="6.14416">
        <ele>161</ele>
        <time>2017-09-05T07:50:31Z</time>
      </trkpt>
      <trkpt lat="43.28348" lon="6.14468">
        <ele>160</ele>
        <time>2017-09-05T07:50:39Z</time>
      </trkpt>
      <trkpt lat="43.28323" lon="6.14517">
        <ele>159</ele>
        <time>2017-09-05T07:50:47Z</time>
      </trkpt>
      <trkpt lat="43.28287" lon="6.14544">
        <ele>158</ele>
        <time>2017-09-05T07:50:54Z</time>
      </trkpt>
      <trkpt lat="43.28247" lon="6.14569">
        <ele>157</ele>
        <time>2017-09-05T07:51:01Z</time>
      </trkpt>
      <trkpt lat="43.28209" lon="6.14597">
        <ele>156</ele>
        <time>2017-09-05T07:51:08Z</time>
      </trkpt>
      <trkpt lat="43.28186" lon="6.14644">
        <ele>155</ele>
        <time>2017-09-05T07:51:15Z</time>
      </trkpt>
      <trkpt lat="43.2816" lon="6.14683">
        <ele>154</ele>
        <time>2017-09-05T07:51:22Z</time>
      </trkpt>
      <trkpt lat="43.28125" lon="6.14709">
        <ele>153</ele>
        <time>2017-09-05T07:51:29Z</time>
      </trkpt>
      <trkpt lat="43.28089" lon="6.14738">
        <ele>152</ele>
        <time>2017-09-05T07:51:36Z</time>
      </trkpt>
      <trkpt lat="43.2808" lon="6.14786">
        <ele>151</ele>
        <time>2017-09-05T07:51:45Z</time>
      </trkpt>
      <trkpt lat="43.28089" lon="6.14844">
        <ele>152</ele>
        <time>2017-09-05T07:51:56Z</time>
      </trkpt>
      <trkpt lat="43.28093" lon="6.149">
        <ele>152</ele>
        <time>2017-09-05T07:52:06Z</time>
      </trkpt>
      <trkpt lat="43.28091" lon="6.14957">
        <ele>150</ele>
        <time>2017-09-05T07:52:14Z</time>
      </trkpt>
      <trkpt lat="43.28066" lon="6.15">
        <ele>148</ele>
        <time>2017-09-05T07:52:23Z</time>
      </trkpt>
      <trkpt lat="43.28029" lon="6.15032">
        <ele>147</ele>
        <time>2017-09-05T07:52:31Z</time>
      </trkpt>
      <trkpt lat="43.27991" lon="6.15065">
        <ele>145</ele>
        <time>2017-09-05T07:52:39Z</time>
      </trkpt>
      <trkpt lat="43.27957" lon="6.15095">
        <ele>143</ele>
        <time>2017-09-05T07:52:46Z</time>
      </trkpt>
      <trkpt lat="43.27923" lon="6.15124">
        <ele>141</ele>
        <time>2017-09-05T07:52:53Z</time>
      </trkpt>
      <trkpt lat="43.27894" lon="6.15165">
        <ele>140</ele>
        <time>2017-09-05T07:53:00Z</time>
      </trkpt>
      <trkpt lat="43.2787" lon="6.15212">
        <ele>139</ele>
        <time>2017-09-05T07:53:07Z</time>
      </trkpt>
      <trkpt lat="43.27834" lon="6.15246">
        <ele>139</ele>
        <time>2017-09-05T07:53:14Z</time>
      </trkpt>
      <trkpt lat="43.27796" lon="6.15276">
        <ele>139</ele>
        <time>2017-09-05T07:53:21Z</time>
      </trkpt>
      <trkpt lat="43.2776" lon="6.15306">
        <ele>138</ele>
        <time>2017-09-05T07:53:28Z</time>
      </trkpt>
      <trkpt lat="43.27734" lon="6.15347">
        <ele>136</ele>
        <time>2017-09-05T07:53:35Z</time>
      </trkpt>
      <trkpt lat="43.27705" lon="6.15385">
        <ele>135</ele>
        <time>2017-09-05T07:53:42Z</time>
      </trkpt>
      <trkpt lat="43.27666" lon="6.15409">
        <ele>134</ele>
        <time>2017-09-05T07:53:49Z</time>
      </trkpt>
      <trkpt lat="43.27626" lon="6.15424">
        <ele>132</ele>
        <time>2017-09-05T07:53:56Z</time>
      </trkpt>
      <trkpt lat="43.27585" lon="6.15443">
        <ele>131</ele>
        <time>2017-09-05T07:54:03Z</time>
      </trkpt>
      <trkpt lat="43.27559" lon="6.15487">
        <ele>130</ele>
        <time>2017-09-05T07:54:10Z</time>
      </trkpt>
      <trkpt lat="43.27538" lon="6.15533">
        <ele>129</ele>
        <time>2017-09-05T07:54:17Z</time>
      </trkpt>
      <trkpt lat="43.27499" lon="6.15564">
        <ele>128</ele>
        <time>2017-09-05T07:54:25Z</time>
      </trkpt>
      <trkpt lat="43.27457" lon="6.15587">
        <ele>127</ele>
        <time>2017-09-05T07:54:33Z</time>
      </trkpt>
      <trkpt lat="43.27412" lon="6.15598">
        <ele>126</ele>
        <time>2017-09-05T07:54:41Z</time>
      </trkpt>
      <trkpt lat="43.27368" lon="6.156">
        <ele>125</ele>
        <time>2017-09-05T07:54:49Z</time>
      </trkpt>
      <trkpt lat="43.27325" lon="6.15617">
        <ele>124</ele>
        <time>2017-09-05T07:54:57Z</time>
      </trkpt>
      <trkpt lat="43.27291" lon="6.15643">
        <ele>123</ele>
        <time>2017-09-05T07:55:04Z</time>
      </trkpt>
      <trkpt lat="43.27258" lon="6.15675">
        <ele>122</ele>
        <time>2017-09-05T07:55:11Z</time>
      </trkpt>
      <trkpt lat="43.27234" lon="6.15719">
        <ele>121</ele>
        <time>2017-09-05T07:55:19Z</time>
      </trkpt>
      <trkpt lat="43.27193" lon="6.15744">
        <ele>120</ele>
        <time>2017-09-05T07:56:33Z</time>
      </trkpt>
      <trkpt lat="43.27155" lon="6.15764">
        <ele>119</ele>
        <time>2017-09-05T07:56:41Z</time>
      </trkpt>
      <trkpt lat="43.27115" lon="6.15776">
        <ele>118</ele>
        <time>2017-09-05T07:56:49Z</time>
      </trkpt>
      <trkpt lat="43.27073" lon="6.1579">
        <ele>118</ele>
        <time>2017-09-05T07:56:58Z</time>
      </trkpt>
      <trkpt lat="43.27035" lon="6.15809">
        <ele>117</ele>
        <time>2017-09-05T07:57:07Z</time>
      </trkpt>
      <trkpt lat="43.26997" lon="6.15818">
        <ele>116</ele>
        <time>2017-09-05T07:57:17Z</time>
      </trkpt>
      <trkpt lat="43.26962" lon="6.15781">
        <ele>115</ele>
        <time>2017-09-05T07:57:27Z</time>
      </trkpt>
      <trkpt lat="43.26926" lon="6.15747">
        <ele>115</ele>
        <time>2017-09-05T07:57:35Z</time>
      </trkpt>
      <trkpt lat="43.26886" lon="6.15718">
        <ele>114</ele>
        <time>2017-09-05T07:57:43Z</time>
      </trkpt>
      <trkpt lat="43.26847" lon="6.15697">
        <ele>114</ele>
        <time>2017-09-05T07:57:51Z</time>
      </trkpt>
      <trkpt lat="43.26827" lon="6.15648">
        <ele>113</ele>
        <time>2017-09-05T07:58:01Z</time>
      </trkpt>
      <trkpt lat="43.26816" lon="6.15594">
        <ele>113</ele>
        <time>2017-09-05T07:58:14Z</time>
      </trkpt>
      <trkpt lat="43.26805" lon="6.15541">
        <ele>113</ele>
        <time>2017-09-05T07:58:27Z</time>
      </trkpt>
      <trkpt lat="43.26793" lon="6.15486">
        <ele>112</ele>
        <time>2017-09-05T07:58:37Z</time>
      </trkpt>
      <trkpt lat="43.26781" lon="6.15431">
        <ele>112</ele>
        <time>2017-09-05T07:58:47Z</time>
      </trkpt>
      <trkpt lat="43.2677" lon="6.15373">
        <ele>112</ele>
        <time>2017-09-05T07:58:57Z</time>
      </trkpt>
      <trkpt lat="43.26756" lon="6.15319">
        <ele>111</ele>
        <time>2017-09-05T07:59:08Z</time>
      </trkpt>
      <trkpt lat="43.26744" lon="6.15267">
        <ele>110</ele>
        <time>2017-09-05T07:59:19Z</time>
      </trkpt>
      <trkpt lat="43.26732" lon="6.15215">
        <ele>112</ele>
        <time>2017-09-05T07:59:30Z</time>
      </trkpt>
      <trkpt lat="43.26756" lon="6.15178">
        <ele>113</ele>
        <time>2017-09-05T07:59:43Z</time>
      </trkpt>
      <trkpt lat="43.26793" lon="6.15154">
        <ele>114</ele>
        <time>2017-09-05T07:59:58Z</time>
      </trkpt>
      <trkpt lat="43.26831" lon="6.15133">
        <ele>116</ele>
        <time>2017-09-05T08:00:14Z</time>
      </trkpt>
      <trkpt lat="43.26872" lon="6.1512">
        <ele>117</ele>
        <time>2017-09-05T08:00:30Z</time>
      </trkpt>
      <trkpt lat="43.2685" lon="6.15104">
        <ele>116</ele>
        <time>2017-09-05T08:00:45Z</time>
      </trkpt>
      <trkpt lat="43.26812" lon="6.15123">
        <ele>115</ele>
        <time>2017-09-05T08:00:54Z</time>
      </trkpt>
      <trkpt lat="43.26771" lon="6.15142">
        <ele>114</ele>
        <time>2017-09-05T08:01:05Z</time>
      </trkpt>
      <trkpt lat="43.26732" lon="6.15159">
        <ele>113</ele>
        <time>2017-09-05T08:01:17Z</time>
      </trkpt>
      <trkpt lat="43.26692" lon="6.15178">
        <ele>113</ele>
        <time>2017-09-05T08:01:27Z</time>
      </trkpt>
      <trkpt lat="43.26649" lon="6.15195">
        <ele>112</ele>
        <time>2017-09-05T08:01:36Z</time>
      </trkpt>
      <trkpt lat="43.26605" lon="6.15208">
        <ele>112</ele>
        <time>2017-09-05T08:01:43Z</time>
      </trkpt>
      <trkpt lat="43.26561" lon="6.15219">
        <ele>111</ele>
        <time>2017-09-05T08:01:51Z</time>
      </trkpt>
      <trkpt lat="43.26566" lon="6.15265">
        <ele>110</ele>
        <time>2017-09-05T08:02:41Z</time>
      </trkpt>
      <trkpt lat="43.26585" lon="6.15316">
        <ele>110</ele>
        <time>2017-09-05T08:02:58Z</time>
      </trkpt>
      <trkpt lat="43.26604" lon="6.15366">
        <ele>110</ele>
        <time>2017-09-05T08:03:13Z</time>
      </trkpt>
      <trkpt lat="43.26624" lon="6.15415">
        <ele>109</ele>
        <time>2017-09-05T08:03:26Z</time>
      </trkpt>
      <trkpt lat="43.2664" lon="6.15464">
        <ele>109</ele>
        <time>2017-09-05T08:03:39Z</time>
      </trkpt>
      <trkpt lat="43.26657" lon="6.15515">
        <ele>109</ele>
        <time>2017-09-05T08:03:53Z</time>
      </trkpt>
      <trkpt lat="43.26664" lon="6.15568">
        <ele>109</ele>
        <time>2017-09-05T08:04:54Z</time>
      </trkpt>
      <trkpt lat="43.26682" lon="6.15618">
        <ele>109</ele>
        <time>2017-09-05T08:05:07Z</time>
      </trkpt>
      <trkpt lat="43.26717" lon="6.15641">
        <ele>111</ele>
        <time>2017-09-05T08:05:19Z</time>
      </trkpt>
      <trkpt lat="43.26755" lon="6.15659">
        <ele>112</ele>
        <time>2017-09-05T08:05:33Z</time>
      </trkpt>
      <trkpt lat="43.26789" lon="6.15685">
        <ele>112</ele>
        <time>2017-09-05T08:05:48Z</time>
      </trkpt>
      <trkpt lat="43.26804" lon="6.15735">
        <ele>113</ele>
        <time>2017-09-05T08:06:28Z</time>
      </trkpt>
      <trkpt lat="43.26821" lon="6.15789">
        <ele>113</ele>
        <time>2017-09-05T08:06:40Z</time>
      </trkpt>
      <trkpt lat="43.26835" lon="6.15844">
        <ele>113</ele>
        <time>2017-09-05T08:06:51Z</time>
      </trkpt>
      <trkpt lat="43.26847" lon="6.15899">
        <ele>113</ele>
        <time>2017-09-05T08:07:02Z</time>
      </trkpt>
      <trkpt lat="43.26859" lon="6.15956">
        <ele>113</ele>
        <time>2017-09-05T08:07:12Z</time>
      </trkpt>
      <trkpt lat="43.26838" lon="6.16">
        <ele>112</ele>
        <time>2017-09-05T08:07:24Z</time>
      </trkpt>
      <trkpt lat="43.26806" lon="6.16035">
        <ele>112</ele>
        <time>2017-09-05T08:07:40Z</time>
      </trkpt>
      <trkpt lat="43.26772" lon="6.16062">
        <ele>110</ele>
        <time>2017-09-05T08:07:53Z</time>
      </trkpt>
      <trkpt lat="43.26736" lon="6.16091">
        <ele>107</ele>
        <time>2017-09-05T08:08:03Z</time>
      </trkpt>
      <trkpt lat="43.26698" lon="6.16117">
        <ele>105</ele>
        <time>2017-09-05T08:08:13Z</time>
      </trkpt>
      <trkpt lat="43.26662" lon="6.16144">
        <ele>103</ele>
        <time>2017-09-05T08:08:21Z</time>
      </trkpt>
      <trkpt lat="43.26626" lon="6.16172">
        <ele>101</ele>
        <time>2017-09-05T08:08:29Z</time>
      </trkpt>
      <trkpt lat="43.26591" lon="6.16196">
        <ele>100</ele>
        <time>2017-09-05T08:08:42Z</time>
      </trkpt>
      <trkpt lat="43.26579" lon="6.16198">
        <ele>100</ele>
        <time>2017-09-05T08:09:17Z</time>
      </trkpt>
      <trkpt lat="43.26617" lon="6.16175">
        <ele>101</ele>
        <time>2017-09-05T08:09:43Z</time>
      </trkpt>
      <trkpt lat="43.26652" lon="6.16148">
        <ele>103</ele>
        <time>2017-09-05T08:10:04Z</time>
      </trkpt>
      <trkpt lat="43.26687" lon="6.16119">
        <ele>105</ele>
        <time>2017-09-05T08:10:24Z</time>
      </trkpt>
      <trkpt lat="43.26722" lon="6.16092">
        <ele>107</ele>
        <time>2017-09-05T08:10:43Z</time>
      </trkpt>
      <trkpt lat="43.26758" lon="6.16064">
        <ele>109</ele>
        <time>2017-09-05T08:11:00Z</time>
      </trkpt>
      <trkpt lat="43.26795" lon="6.16037">
        <ele>111</ele>
        <time>2017-09-05T08:11:18Z</time>
      </trkpt>
      <trkpt lat="43.26829" lon="6.16008">
        <ele>112</ele>
        <time>2017-09-05T08:11:34Z</time>
      </trkpt>
      <trkpt lat="43.26856" lon="6.16054">
        <ele>112</ele>
        <time>2017-09-05T08:11:47Z</time>
      </trkpt>
      <trkpt lat="43.26849" lon="6.16111">
        <ele>109</ele>
        <time>2017-09-05T08:11:59Z</time>
      </trkpt>
      <trkpt lat="43.2683" lon="6.16161">
        <ele>106</ele>
        <time>2017-09-05T08:12:08Z</time>
      </trkpt>
      <trkpt lat="43.26805" lon="6.16209">
        <ele>103</ele>
        <time>2017-09-05T08:12:15Z</time>
      </trkpt>
      <trkpt lat="43.26781" lon="6.16254">
        <ele>101</ele>
        <time>2017-09-05T08:12:54Z</time>
      </trkpt>
      <trkpt lat="43.26784" lon="6.16309">
        <ele>100</ele>
        <time>2017-09-05T08:13:16Z</time>
      </trkpt>
      <trkpt lat="43.26789" lon="6.16368">
        <ele>101</ele>
        <time>2017-09-05T08:13:42Z</time>
      </trkpt>
      <trkpt lat="43.26794" lon="6.16422">
        <ele>103</ele>
        <time>2017-09-05T08:14:33Z</time>
      </trkpt>
      <trkpt lat="43.26799" lon="6.16476">
        <ele>107</ele>
        <time>2017-09-05T08:15:27Z</time>
      </trkpt>
      <trkpt lat="43.26803" lon="6.16532">
        <ele>111</ele>
        <time>2017-09-05T08:15:47Z</time>
      </trkpt>
      <trkpt lat="43.26835" lon="6.16551">
        <ele>111</ele>
        <time>2017-09-05T08:16:06Z</time>
      </trkpt>
      <trkpt lat="43.26829" lon="6.16605">
        <ele>114</ele>
        <time>2017-09-05T08:16:29Z</time>
      </trkpt>
      <trkpt lat="43.26819" lon="6.16659">
        <ele>119</ele>
        <time>2017-09-05T08:16:58Z</time>
      </trkpt>
      <trkpt lat="43.26823" lon="6.16706">
        <ele>126</ele>
        <time>2017-09-05T08:17:28Z</time>
      </trkpt>
      <trkpt lat="43.26781" lon="6.16702">
        <ele>128</ele>
        <time>2017-09-05T08:18:43Z</time>
      </trkpt>
      <trkpt lat="43.26762" lon="6.1675">
        <ele>135</ele>
        <time>2017-09-05T08:19:42Z</time>
      </trkpt>
      <trkpt lat="43.26754" lon="6.16809">
        <ele>144</ele>
        <time>2017-09-05T08:21:07Z</time>
      </trkpt>
      <trkpt lat="43.2675" lon="6.16869">
        <ele>152</ele>
        <time>2017-09-05T08:22:03Z</time>
      </trkpt>
      <trkpt lat="43.26742" lon="6.16925">
        <ele>158</ele>
        <time>2017-09-05T08:23:27Z</time>
      </trkpt>
      <trkpt lat="43.26719" lon="6.16973">
        <ele>162</ele>
        <time>2017-09-05T08:24:47Z</time>
      </trkpt>
      <trkpt lat="43.26697" lon="6.1702">
        <ele>159</ele>
        <time>2017-09-05T08:25:25Z</time>
      </trkpt>
      <trkpt lat="43.26661" lon="6.17053">
        <ele>149</ele>
        <time>2017-09-05T08:25:46Z</time>
      </trkpt>
      <trkpt lat="43.26627" lon="6.17087">
        <ele>142</ele>
        <time>2017-09-05T08:26:05Z</time>
      </trkpt>
      <trkpt lat="43.26591" lon="6.17124">
        <ele>138</ele>
        <time>2017-09-05T08:26:20Z</time>
      </trkpt>
      <trkpt lat="43.26561" lon="6.17164">
        <ele>136</ele>
        <time>2017-09-05T08:26:34Z</time>
      </trkpt>
      <trkpt lat="43.26524" lon="6.17191">
        <ele>132</ele>
        <time>2017-09-05T08:26:43Z</time>
      </trkpt>
      <trkpt lat="43.26489" lon="6.17231">
        <ele>129</ele>
        <time>2017-09-05T08:27:12Z</time>
      </trkpt>
      <trkpt lat="43.26467" lon="6.17278">
        <ele>130</ele>
        <time>2017-09-05T08:27:37Z</time>
      </trkpt>
      <trkpt lat="43.26444" lon="6.17325">
        <ele>129</ele>
        <time>2017-09-05T08:27:55Z</time>
      </trkpt>
      <trkpt lat="43.26417" lon="6.17369">
        <ele>130</ele>
        <time>2017-09-05T08:28:16Z</time>
      </trkpt>
      <trkpt lat="43.26384" lon="6.174">
        <ele>134</ele>
        <time>2017-09-05T08:28:31Z</time>
      </trkpt>
      <trkpt lat="43.26346" lon="6.17417">
        <ele>136</ele>
        <time>2017-09-05T08:29:22Z</time>
      </trkpt>
      <trkpt lat="43.26338" lon="6.17409">
        <ele>135</ele>
        <time>2017-09-05T08:30:07Z</time>
      </trkpt>
      <trkpt lat="43.26354" lon="6.1745">
        <ele>136</ele>
        <time>2017-09-05T08:31:31Z</time>
      </trkpt>
      <trkpt lat="43.26336" lon="6.17408">
        <ele>135</ele>
        <time>2017-09-05T08:31:59Z</time>
      </trkpt>
      <trkpt lat="43.26298" lon="6.17405">
        <ele>130</ele>
        <time>2017-09-05T08:32:09Z</time>
      </trkpt>
      <trkpt lat="43.26261" lon="6.17429">
        <ele>121</ele>
        <time>2017-09-05T08:32:18Z</time>
      </trkpt>
      <trkpt lat="43.26222" lon="6.1745">
        <ele>115</ele>
        <time>2017-09-05T08:32:26Z</time>
      </trkpt>
      <trkpt lat="43.26188" lon="6.17476">
        <ele>110</ele>
        <time>2017-09-05T08:32:33Z</time>
      </trkpt>
      <trkpt lat="43.26151" lon="6.17505">
        <ele>105</ele>
        <time>2017-09-05T08:32:40Z</time>
      </trkpt>
      <trkpt lat="43.26118" lon="6.17531">
        <ele>100</ele>
        <time>2017-09-05T08:33:03Z</time>
      </trkpt>
      <trkpt lat="43.26117" lon="6.17582">
        <ele>101</ele>
        <time>2017-09-05T08:33:13Z</time>
      </trkpt>
      <trkpt lat="43.2608" lon="6.17614">
        <ele>98</ele>
        <time>2017-09-05T08:33:22Z</time>
      </trkpt>
      <trkpt lat="43.26047" lon="6.17648">
        <ele>96</ele>
        <time>2017-09-05T08:34:01Z</time>
      </trkpt>
      <trkpt lat="43.26008" lon="6.17662">
        <ele>95</ele>
        <time>2017-09-05T08:34:24Z</time>
      </trkpt>
      <trkpt lat="43.25969" lon="6.17664">
        <ele>96</ele>
        <time>2017-09-05T08:34:35Z</time>
      </trkpt>
      <trkpt lat="43.25981" lon="6.17658">
        <ele>96</ele>
        <time>2017-09-05T08:35:29Z</time>
      </trkpt>
      <trkpt lat="43.25958" lon="6.17672">
        <ele>96</ele>
        <time>2017-09-05T08:36:31Z</time>
      </trkpt>
      <trkpt lat="43.25918" lon="6.17669">
        <ele>98</ele>
        <time>2017-09-05T08:37:09Z</time>
      </trkpt>
      <trkpt lat="43.2588" lon="6.17636">
        <ele>99</ele>
        <time>2017-09-05T08:39:42Z</time>
      </trkpt>
      <trkpt lat="43.25839" lon="6.17622">
        <ele>100</ele>
        <time>2017-09-05T08:40:19Z</time>
      </trkpt>
      <trkpt lat="43.25801" lon="6.17627">
        <ele>104</ele>
        <time>2017-09-05T08:40:55Z</time>
      </trkpt>
      <trkpt lat="43.25763" lon="6.17642">
        <ele>111</ele>
        <time>2017-09-05T08:41:29Z</time>
      </trkpt>
      <trkpt lat="43.25726" lon="6.17666">
        <ele>119</ele>
        <time>2017-09-05T08:42:05Z</time>
      </trkpt>
      <trkpt lat="43.25708" lon="6.17639">
        <ele>119</ele>
        <time>2017-09-05T08:42:39Z</time>
      </trkpt>
      <trkpt lat="43.25704" lon="6.17586">
        <ele>116</ele>
        <time>2017-09-05T08:43:09Z</time>
      </trkpt>
      <trkpt lat="43.25678" lon="6.17545">
        <ele>121</ele>
        <time>2017-09-05T08:43:38Z</time>
      </trkpt>
      <trkpt lat="43.25649" lon="6.17506">
        <ele>121</ele>
        <time>2017-09-05T08:44:07Z</time>
      </trkpt>
      <trkpt lat="43.25614" lon="6.1748">
        <ele>126</ele>
        <time>2017-09-05T08:44:32Z</time>
      </trkpt>
      <trkpt lat="43.25575" lon="6.17466">
        <ele>133</ele>
        <time>2017-09-05T08:44:59Z</time>
      </trkpt>
      <trkpt lat="43.25538" lon="6.17448">
        <ele>136</ele>
        <time>2017-09-05T08:45:26Z</time>
      </trkpt>
      <trkpt lat="43.255" lon="6.17438">
        <ele>139</ele>
        <time>2017-09-05T08:45:49Z</time>
      </trkpt>
      <trkpt lat="43.25459" lon="6.17435">
        <ele>142</ele>
        <time>2017-09-05T08:47:44Z</time>
      </trkpt>
      <trkpt lat="43.25414" lon="6.17418">
        <ele>141</ele>
        <time>2017-09-05T08:48:03Z</time>
      </trkpt>
      <trkpt lat="43.25373" lon="6.17418">
        <ele>146</ele>
        <time>2017-09-05T08:48:25Z</time>
      </trkpt>
      <trkpt lat="43.25331" lon="6.1742">
        <ele>148</ele>
        <time>2017-09-05T08:48:49Z</time>
      </trkpt>
      <trkpt lat="43.25292" lon="6.17437">
        <ele>148</ele>
        <time>2017-09-05T08:49:09Z</time>
      </trkpt>
      <trkpt lat="43.25296" lon="6.17479">
        <ele>153</ele>
        <time>2017-09-05T08:51:19Z</time>
      </trkpt>
      <trkpt lat="43.25326" lon="6.17518">
        <ele>156</ele>
        <time>2017-09-05T08:51:43Z</time>
      </trkpt>
      <trkpt lat="43.25361" lon="6.17544">
        <ele>160</ele>
        <time>2017-09-05T08:52:10Z</time>
      </trkpt>
      <trkpt lat="43.25398" lon="6.17571">
        <ele>163</ele>
        <time>2017-09-05T08:52:37Z</time>
      </trkpt>
      <trkpt lat="43.25429" lon="6.1761">
        <ele>167</ele>
        <time>2017-09-05T08:53:00Z</time>
      </trkpt>
      <trkpt lat="43.25462" lon="6.17646">
        <ele>169</ele>
        <time>2017-09-05T08:53:23Z</time>
      </trkpt>
      <trkpt lat="43.25494" lon="6.17686">
        <ele>171</ele>
        <time>2017-09-05T08:53:39Z</time>
      </trkpt>
      <trkpt lat="43.25521" lon="6.17731">
        <ele>170</ele>
        <time>2017-09-05T08:53:52Z</time>
      </trkpt>
      <trkpt lat="43.2555" lon="6.1777">
        <ele>167</ele>
        <time>2017-09-05T08:54:03Z</time>
      </trkpt>
      <trkpt lat="43.2555" lon="6.17823">
        <ele>168</ele>
        <time>2017-09-05T08:54:17Z</time>
      </trkpt>
      <trkpt lat="43.2553" lon="6.17872">
        <ele>169</ele>
        <time>2017-09-05T08:54:35Z</time>
      </trkpt>
      <trkpt lat="43.25516" lon="6.17923">
        <ele>172</ele>
        <time>2017-09-05T08:54:54Z</time>
      </trkpt>
      <trkpt lat="43.25514" lon="6.17977">
        <ele>174</ele>
        <time>2017-09-05T08:55:16Z</time>
      </trkpt>
      <trkpt lat="43.25529" lon="6.18027">
        <ele>177</ele>
        <time>2017-09-05T08:55:42Z</time>
      </trkpt>
      <trkpt lat="43.25562" lon="6.18066">
        <ele>183</ele>
        <time>2017-09-05T08:56:48Z</time>
      </trkpt>
      <trkpt lat="43.25597" lon="6.18103">
        <ele>187</ele>
        <time>2017-09-05T08:57:11Z</time>
      </trkpt>
      <trkpt lat="43.25627" lon="6.18146">
        <ele>186</ele>
        <time>2017-09-05T08:57:33Z</time>
      </trkpt>
      <trkpt lat="43.2566" lon="6.18184">
        <ele>186</ele>
        <time>2017-09-05T08:57:49Z</time>
      </trkpt>
      <trkpt lat="43.25695" lon="6.18217">
        <ele>185</ele>
        <time>2017-09-05T08:58:02Z</time>
      </trkpt>
      <trkpt lat="43.25734" lon="6.18238">
        <ele>186</ele>
        <time>2017-09-05T08:58:12Z</time>
      </trkpt>
      <trkpt lat="43.25773" lon="6.18247">
        <ele>187</ele>
        <time>2017-09-05T08:58:24Z</time>
      </trkpt>
      <trkpt lat="43.25812" lon="6.18234">
        <ele>190</ele>
        <time>2017-09-05T08:58:41Z</time>
      </trkpt>
      <trkpt lat="43.25842" lon="6.18268">
        <ele>188</ele>
        <time>2017-09-05T08:59:00Z</time>
      </trkpt>
      <trkpt lat="43.25851" lon="6.18324">
        <ele>192</ele>
        <time>2017-09-05T08:59:18Z</time>
      </trkpt>
      <trkpt lat="43.25856" lon="6.18383">
        <ele>196</ele>
        <time>2017-09-05T08:59:32Z</time>
      </trkpt>
      <trkpt lat="43.25859" lon="6.18442">
        <ele>196</ele>
        <time>2017-09-05T08:59:44Z</time>
      </trkpt>
      <trkpt lat="43.2586" lon="6.18498">
        <ele>197</ele>
        <time>2017-09-05T09:00:00Z</time>
      </trkpt>
      <trkpt lat="43.2586" lon="6.18554">
        <ele>197</ele>
        <time>2017-09-05T09:00:14Z</time>
      </trkpt>
      <trkpt lat="43.25861" lon="6.1861">
        <ele>196</ele>
        <time>2017-09-05T09:00:24Z</time>
      </trkpt>
      <trkpt lat="43.25867" lon="6.18665">
        <ele>195</ele>
        <time>2017-09-05T09:00:35Z</time>
      </trkpt>
      <trkpt lat="43.25848" lon="6.18713">
        <ele>199</ele>
        <time>2017-09-05T09:00:54Z</time>
      </trkpt>
      <trkpt lat="43.25821" lon="6.18754">
        <ele>199</ele>
        <time>2017-09-05T09:01:11Z</time>
      </trkpt>
      <trkpt lat="43.25797" lon="6.188">
        <ele>201</ele>
        <time>2017-09-05T09:01:24Z</time>
      </trkpt>
      <trkpt lat="43.2577" lon="6.18842">
        <ele>201</ele>
        <time>2017-09-05T09:01:36Z</time>
      </trkpt>
      <trkpt lat="43.2574" lon="6.18884">
        <ele>202</ele>
        <time>2017-09-05T09:01:47Z</time>
      </trkpt>
      <trkpt lat="43.25709" lon="6.18919">
        <ele>205</ele>
        <time>2017-09-05T09:02:00Z</time>
      </trkpt>
      <trkpt lat="43.2567" lon="6.18935">
        <ele>205</ele>
        <time>2017-09-05T09:02:12Z</time>
      </trkpt>
      <trkpt lat="43.25629" lon="6.18948">
        <ele>203</ele>
        <time>2017-09-05T09:02:27Z</time>
      </trkpt>
      <trkpt lat="43.25605" lon="6.18992">
        <ele>203</ele>
        <time>2017-09-05T09:03:15Z</time>
      </trkpt>
      <trkpt lat="43.25595" lon="6.19051">
        <ele>202</ele>
        <time>2017-09-05T09:03:23Z</time>
      </trkpt>
      <trkpt lat="43.25584" lon="6.19112">
        <ele>200</ele>
        <time>2017-09-05T09:03:31Z</time>
      </trkpt>
      <trkpt lat="43.25575" lon="6.19167">
        <ele>196</ele>
        <time>2017-09-05T09:03:37Z</time>
      </trkpt>
      <trkpt lat="43.25571" lon="6.19224">
        <ele>193</ele>
        <time>2017-09-05T09:03:43Z</time>
      </trkpt>
      <trkpt lat="43.25576" lon="6.19285">
        <ele>189</ele>
        <time>2017-09-05T09:03:50Z</time>
      </trkpt>
      <trkpt lat="43.25593" lon="6.19337">
        <ele>186</ele>
        <time>2017-09-05T09:04:00Z</time>
      </trkpt>
      <trkpt lat="43.25612" lon="6.19389">
        <ele>183</ele>
        <time>2017-09-05T09:04:07Z</time>
      </trkpt>
      <trkpt lat="43.25629" lon="6.1944">
        <ele>178</ele>
        <time>2017-09-05T09:04:14Z</time>
      </trkpt>
      <trkpt lat="43.25648" lon="6.1949">
        <ele>175</ele>
        <time>2017-09-05T09:04:20Z</time>
      </trkpt>
      <trkpt lat="43.25665" lon="6.19538">
        <ele>174</ele>
        <time>2017-09-05T09:04:27Z</time>
      </trkpt>
      <trkpt lat="43.25663" lon="6.19597">
        <ele>171</ele>
        <time>2017-09-05T09:04:35Z</time>
      </trkpt>
      <trkpt lat="43.25655" lon="6.19654">
        <ele>167</ele>
        <time>2017-09-05T09:04:44Z</time>
      </trkpt>
      <trkpt lat="43.25652" lon="6.19716">
        <ele>165</ele>
        <time>2017-09-05T09:04:53Z</time>
      </trkpt>
      <trkpt lat="43.2565" lon="6.19773">
        <ele>162</ele>
        <time>2017-09-05T09:05:00Z</time>
      </trkpt>
      <trkpt lat="43.25649" lon="6.19836">
        <ele>158</ele>
        <time>2017-09-05T09:05:08Z</time>
      </trkpt>
      <trkpt lat="43.2565" lon="6.19893">
        <ele>154</ele>
        <time>2017-09-05T09:05:14Z</time>
      </trkpt>
      <trkpt lat="43.25653" lon="6.19948">
        <ele>152</ele>
        <time>2017-09-05T09:05:24Z</time>
      </trkpt>
      <trkpt lat="43.25659" lon="6.20002">
        <ele>154</ele>
        <time>2017-09-05T09:07:05Z</time>
      </trkpt>
      <trkpt lat="43.25683" lon="6.20049">
        <ele>155</ele>
        <time>2017-09-05T09:07:27Z</time>
      </trkpt>
      <trkpt lat="43.25701" lon="6.20099">
        <ele>157</ele>
        <time>2017-09-05T09:09:00Z</time>
      </trkpt>
      <trkpt lat="43.25707" lon="6.20156">
        <ele>158</ele>
        <time>2017-09-05T09:09:34Z</time>
      </trkpt>
      <trkpt lat="43.25703" lon="6.20213">
        <ele>159</ele>
        <time>2017-09-05T09:09:52Z</time>
      </trkpt>
      <trkpt lat="43.25697" lon="6.20269">
        <ele>161</ele>
        <time>2017-09-05T09:10:16Z</time>
      </trkpt>
      <trkpt lat="43.25686" lon="6.20322">
        <ele>165</ele>
        <time>2017-09-05T09:10:42Z</time>
      </trkpt>
      <trkpt lat="43.25676" lon="6.20375">
        <ele>168</ele>
        <time>2017-09-05T09:11:07Z</time>
      </trkpt>
      <trkpt lat="43.25661" lon="6.20428">
        <ele>171</ele>
        <time>2017-09-05T09:11:36Z</time>
      </trkpt>
      <trkpt lat="43.25648" lon="6.20481">
        <ele>173</ele>
        <time>2017-09-05T09:12:05Z</time>
      </trkpt>
      <trkpt lat="43.2564" lon="6.20535">
        <ele>175</ele>
        <time>2017-09-05T09:13:01Z</time>
      </trkpt>
      <trkpt lat="43.25636" lon="6.20589">
        <ele>177</ele>
        <time>2017-09-05T09:13:26Z</time>
      </trkpt>
      <trkpt lat="43.25632" lon="6.20643">
        <ele>179</ele>
        <time>2017-09-05T09:13:53Z</time>
      </trkpt>
      <trkpt lat="43.2563" lon="6.20698">
        <ele>180</ele>
        <time>2017-09-05T09:14:21Z</time>
      </trkpt>
      <trkpt lat="43.25634" lon="6.2075">
        <ele>181</ele>
        <time>2017-09-05T09:14:49Z</time>
      </trkpt>
      <trkpt lat="43.25648" lon="6.208">
        <ele>181</ele>
        <time>2017-09-05T09:15:14Z</time>
      </trkpt>
      <trkpt lat="43.2566" lon="6.20852">
        <ele>182</ele>
        <time>2017-09-05T09:15:41Z</time>
      </trkpt>
      <trkpt lat="43.25665" lon="6.20907">
        <ele>185</ele>
        <time>2017-09-05T09:16:06Z</time>
      </trkpt>
      <trkpt lat="43.25667" lon="6.20961">
        <ele>188</ele>
        <time>2017-09-05T09:16:34Z</time>
      </trkpt>
      <trkpt lat="43.25667" lon="6.21016">
        <ele>188</ele>
        <time>2017-09-05T09:16:55Z</time>
      </trkpt>
      <trkpt lat="43.2568" lon="6.21062">
        <ele>191</ele>
        <time>2017-09-05T09:18:21Z</time>
      </trkpt>
      <trkpt lat="43.25692" lon="6.21111">
        <ele>198</ele>
        <time>2017-09-05T09:19:24Z</time>
      </trkpt>
      <trkpt lat="43.25715" lon="6.21154">
        <ele>207</ele>
        <time>2017-09-05T09:21:01Z</time>
      </trkpt>
      <trkpt lat="43.25735" lon="6.21205">
        <ele>214</ele>
        <time>2017-09-05T09:22:16Z</time>
      </trkpt>
      <trkpt lat="43.25751" lon="6.21254">
        <ele>221</ele>
        <time>2017-09-05T09:23:11Z</time>
      </trkpt>
      <trkpt lat="43.2578" lon="6.21288">
        <ele>223</ele>
        <time>2017-09-05T09:24:02Z</time>
      </trkpt>
      <trkpt lat="43.25806" lon="6.21329">
        <ele>226</ele>
        <time>2017-09-05T09:24:34Z</time>
      </trkpt>
      <trkpt lat="43.25826" lon="6.21377">
        <ele>231</ele>
        <time>2017-09-05T09:25:49Z</time>
      </trkpt>
      <trkpt lat="43.25842" lon="6.21426">
        <ele>239</ele>
        <time>2017-09-05T09:26:40Z</time>
      </trkpt>
      <trkpt lat="43.25865" lon="6.21464">
        <ele>246</ele>
        <time>2017-09-05T09:27:49Z</time>
      </trkpt>
      <trkpt lat="43.25887" lon="6.21513">
        <ele>258</ele>
        <time>2017-09-05T09:29:21Z</time>
      </trkpt>
      <trkpt lat="43.25907" lon="6.21555">
        <ele>267</ele>
        <time>2017-09-05T09:30:54Z</time>
      </trkpt>
      <trkpt lat="43.25918" lon="6.21608">
        <ele>275</ele>
        <time>2017-09-05T09:32:53Z</time>
      </trkpt>
      <trkpt lat="43.2593" lon="6.21662">
        <ele>281</ele>
        <time>2017-09-05T09:33:37Z</time>
      </trkpt>
      <trkpt lat="43.25936" lon="6.2171">
        <ele>283</ele>
        <time>2017-09-05T09:35:35Z</time>
      </trkpt>
      <trkpt lat="43.25956" lon="6.21752">
        <ele>286</ele>
        <time>2017-09-05T09:36:57Z</time>
      </trkpt>
      <trkpt lat="43.25981" lon="6.21798">
        <ele>287</ele>
        <time>2017-09-05T09:38:40Z</time>
      </trkpt>
      <trkpt lat="43.26004" lon="6.21843">
        <ele>288</ele>
        <time>2017-09-05T09:38:57Z</time>
      </trkpt>
      <trkpt lat="43.26026" lon="6.21891">
        <ele>286</ele>
        <time>2017-09-05T09:39:14Z</time>
      </trkpt>
      <trkpt lat="43.26058" lon="6.21922">
        <ele>288</ele>
        <time>2017-09-05T09:40:42Z</time>
      </trkpt>
      <trkpt lat="43.2608" lon="6.21967">
        <ele>293</ele>
        <time>2017-09-05T09:41:20Z</time>
      </trkpt>
      <trkpt lat="43.26081" lon="6.22022">
        <ele>296</ele>
        <time>2017-09-05T09:42:08Z</time>
      </trkpt>
      <trkpt lat="43.26091" lon="6.22074">
        <ele>301</ele>
        <time>2017-09-05T09:42:54Z</time>
      </trkpt>
      <trkpt lat="43.26084" lon="6.22135">
        <ele>297</ele>
        <time>2017-09-05T09:44:05Z</time>
      </trkpt>
      <trkpt lat="43.26107" lon="6.22174">
        <ele>300</ele>
        <time>2017-09-05T09:44:38Z</time>
      </trkpt>
      <trkpt lat="43.26137" lon="6.22208">
        <ele>308</ele>
        <time>2017-09-05T09:46:27Z</time>
      </trkpt>
      <trkpt lat="43.26166" lon="6.22246">
        <ele>310</ele>
        <time>2017-09-05T09:46:58Z</time>
      </trkpt>
      <trkpt lat="43.262" lon="6.22283">
        <ele>321</ele>
        <time>2017-09-05T09:47:56Z</time>
      </trkpt>
      <trkpt lat="43.26186" lon="6.22333">
        <ele>321</ele>
        <time>2017-09-05T09:48:30Z</time>
      </trkpt>
      <trkpt lat="43.26164" lon="6.22378">
        <ele>323</ele>
        <time>2017-09-05T09:49:47Z</time>
      </trkpt>
      <trkpt lat="43.2618" lon="6.22422">
        <ele>329</ele>
        <time>2017-09-05T09:50:40Z</time>
      </trkpt>
      <trkpt lat="43.26203" lon="6.22465">
        <ele>334</ele>
        <time>2017-09-05T09:51:15Z</time>
      </trkpt>
      <trkpt lat="43.26222" lon="6.22514">
        <ele>335</ele>
        <time>2017-09-05T09:51:43Z</time>
      </trkpt>
      <trkpt lat="43.26241" lon="6.22562">
        <ele>339</ele>
        <time>2017-09-05T09:52:15Z</time>
      </trkpt>
      <trkpt lat="43.26274" lon="6.22581">
        <ele>343</ele>
        <time>2017-09-05T09:53:17Z</time>
      </trkpt>
      <trkpt lat="43.2626" lon="6.22619">
        <ele>346</ele>
        <time>2017-09-05T09:54:46Z</time>
      </trkpt>
      <trkpt lat="43.26228" lon="6.22653">
        <ele>345</ele>
        <time>2017-09-05T09:55:16Z</time>
      </trkpt>
      <trkpt lat="43.26201" lon="6.2269">
        <ele>345</ele>
        <time>2017-09-05T09:56:10Z</time>
      </trkpt>
      <trkpt lat="43.26185" lon="6.22742">
        <ele>346</ele>
        <time>2017-09-05T09:56:27Z</time>
      </trkpt>
      <trkpt lat="43.26168" lon="6.22791">
        <ele>346</ele>
        <time>2017-09-05T09:56:43Z</time>
      </trkpt>
      <trkpt lat="43.26146" lon="6.22844">
        <ele>341</ele>
        <time>2017-09-05T09:56:58Z</time>
      </trkpt>
      <trkpt lat="43.2613" lon="6.22892">
        <ele>339</ele>
        <time>2017-09-05T09:57:04Z</time>
      </trkpt>
      <trkpt lat="43.2611" lon="6.22937">
        <ele>343</ele>
        <time>2017-09-05T09:57:18Z</time>
      </trkpt>
      <trkpt lat="43.26134" lon="6.22979">
        <ele>342</ele>
        <time>2017-09-05T09:57:36Z</time>
      </trkpt>
      <trkpt lat="43.26163" lon="6.23014">
        <ele>344</ele>
        <time>2017-09-05T09:58:07Z</time>
      </trkpt>
      <trkpt lat="43.26194" lon="6.23045">
        <ele>345</ele>
        <time>2017-09-05T09:58:35Z</time>
      </trkpt>
      <trkpt lat="43.26233" lon="6.23065">
        <ele>346</ele>
        <time>2017-09-05T09:58:58Z</time>
      </trkpt>
      <trkpt lat="43.26256" lon="6.2311">
        <ele>348</ele>
        <time>2017-09-05T09:59:13Z</time>
      </trkpt>
      <trkpt lat="43.2627" lon="6.23161">
        <ele>349</ele>
        <time>2017-09-05T09:59:32Z</time>
      </trkpt>
      <trkpt lat="43.26285" lon="6.23211">
        <ele>353</ele>
        <time>2017-09-05T09:59:58Z</time>
      </trkpt>
      <trkpt lat="43.263" lon="6.23281">
        <ele>356</ele>
        <time>2017-09-05T10:03:41Z</time>
      </trkpt>
      <trkpt lat="43.26318" lon="6.23333">
        <ele>358</ele>
        <time>2017-09-05T10:04:21Z</time>
      </trkpt>
      <trkpt lat="43.26343" lon="6.23386">
        <ele>359</ele>
        <time>2017-09-05T10:04:36Z</time>
      </trkpt>
      <trkpt lat="43.26358" lon="6.23442">
        <ele>360</ele>
        <time>2017-09-05T10:04:44Z</time>
      </trkpt>
      <trkpt lat="43.26357" lon="6.23505">
        <ele>362</ele>
        <time>2017-09-05T10:06:01Z</time>
      </trkpt>
      <trkpt lat="43.26341" lon="6.23559">
        <ele>360</ele>
        <time>2017-09-05T10:06:53Z</time>
      </trkpt>
      <trkpt lat="43.26335" lon="6.23617">
        <ele>363</ele>
        <time>2017-09-05T10:07:15Z</time>
      </trkpt>
      <trkpt lat="43.26328" lon="6.23671">
        <ele>366</ele>
        <time>2017-09-05T10:07:38Z</time>
      </trkpt>
      <trkpt lat="43.26308" lon="6.23721">
        <ele>364</ele>
        <time>2017-09-05T10:07:59Z</time>
      </trkpt>
      <trkpt lat="43.26306" lon="6.23775">
        <ele>363</ele>
        <time>2017-09-05T10:08:19Z</time>
      </trkpt>
      <trkpt lat="43.26324" lon="6.23825">
        <ele>365</ele>
        <time>2017-09-05T10:08:42Z</time>
      </trkpt>
      <trkpt lat="43.26345" lon="6.23873">
        <ele>368</ele>
        <time>2017-09-05T10:08:54Z</time>
      </trkpt>
      <trkpt lat="43.26343" lon="6.23924">
        <ele>369</ele>
        <time>2017-09-05T10:09:04Z</time>
      </trkpt>
      <trkpt lat="43.26331" lon="6.23974">
        <ele>368</ele>
        <time>2017-09-05T10:09:29Z</time>
      </trkpt>
      <trkpt lat="43.26322" lon="6.24026">
        <ele>370</ele>
        <time>2017-09-05T10:09:58Z</time>
      </trkpt>
      <trkpt lat="43.26317" lon="6.24082">
        <ele>374</ele>
        <time>2017-09-05T10:10:17Z</time>
      </trkpt>
      <trkpt lat="43.26299" lon="6.24133">
        <ele>374</ele>
        <time>2017-09-05T10:10:47Z</time>
      </trkpt>
      <trkpt lat="43.26284" lon="6.24183">
        <ele>375</ele>
        <time>2017-09-05T10:11:15Z</time>
      </trkpt>
      <trkpt lat="43.26271" lon="6.24235">
        <ele>378</ele>
        <time>2017-09-05T10:11:38Z</time>
      </trkpt>
      <trkpt lat="43.26248" lon="6.24277">
        <ele>381</ele>
        <time>2017-09-05T10:11:52Z</time>
      </trkpt>
      <trkpt lat="43.26212" lon="6.24286">
        <ele>380</ele>
        <time>2017-09-05T10:12:14Z</time>
      </trkpt>
      <trkpt lat="43.26175" lon="6.24288">
        <ele>381</ele>
        <time>2017-09-05T10:12:42Z</time>
      </trkpt>
      <trkpt lat="43.26135" lon="6.24294">
        <ele>383</ele>
        <time>2017-09-05T10:13:49Z</time>
      </trkpt>
      <trkpt lat="43.26104" lon="6.2433">
        <ele>389</ele>
        <time>2017-09-05T10:14:53Z</time>
      </trkpt>
      <trkpt lat="43.26072" lon="6.24364">
        <ele>392</ele>
        <time>2017-09-05T10:15:23Z</time>
      </trkpt>
      <trkpt lat="43.26036" lon="6.2439">
        <ele>392</ele>
        <time>2017-09-05T10:15:54Z</time>
      </trkpt>
      <trkpt lat="43.26016" lon="6.24431">
        <ele>392</ele>
        <time>2017-09-05T10:16:54Z</time>
      </trkpt>
      <trkpt lat="43.26038" lon="6.24476">
        <ele>393</ele>
        <time>2017-09-05T10:17:19Z</time>
      </trkpt>
      <trkpt lat="43.26068" lon="6.24516">
        <ele>392</ele>
        <time>2017-09-05T10:17:54Z</time>
      </trkpt>
      <trkpt lat="43.261" lon="6.24548">
        <ele>393</ele>
        <time>2017-09-05T10:18:10Z</time>
      </trkpt>
      <trkpt lat="43.26138" lon="6.24572">
        <ele>395</ele>
        <time>2017-09-05T10:18:29Z</time>
      </trkpt>
      <trkpt lat="43.26173" lon="6.24595">
        <ele>398</ele>
        <time>2017-09-05T10:18:50Z</time>
      </trkpt>
      <trkpt lat="43.26204" lon="6.24629">
        <ele>399</ele>
        <time>2017-09-05T10:19:08Z</time>
      </trkpt>
      <trkpt lat="43.26235" lon="6.24663">
        <ele>405</ele>
        <time>2017-09-05T10:19:29Z</time>
      </trkpt>
      <trkpt lat="43.2623" lon="6.24706">
        <ele>409</ele>
        <time>2017-09-05T10:19:49Z</time>
      </trkpt>
      <trkpt lat="43.26203" lon="6.24742">
        <ele>408</ele>
        <time>2017-09-05T10:20:10Z</time>
      </trkpt>
      <trkpt lat="43.2618" lon="6.2478">
        <ele>411</ele>
        <time>2017-09-05T10:21:46Z</time>
      </trkpt>
      <trkpt lat="43.2615" lon="6.24823">
        <ele>411</ele>
        <time>2017-09-05T10:22:04Z</time>
      </trkpt>
      <trkpt lat="43.26122" lon="6.24856">
        <ele>410</ele>
        <time>2017-09-05T10:22:25Z</time>
      </trkpt>
      <trkpt lat="43.26088" lon="6.24887">
        <ele>406</ele>
        <time>2017-09-05T10:22:48Z</time>
      </trkpt>
      <trkpt lat="43.2609" lon="6.24943">
        <ele>408</ele>
        <time>2017-09-05T10:23:55Z</time>
      </trkpt>
      <trkpt lat="43.26126" lon="6.24977">
        <ele>416</ele>
        <time>2017-09-05T10:24:43Z</time>
      </trkpt>
      <trkpt lat="43.26159" lon="6.25014">
        <ele>418</ele>
        <time>2017-09-05T10:25:15Z</time>
      </trkpt>
      <trkpt lat="43.26196" lon="6.25046">
        <ele>421</ele>
        <time>2017-09-05T10:26:56Z</time>
      </trkpt>
      <trkpt lat="43.26231" lon="6.2507">
        <ele>428</ele>
        <time>2017-09-05T10:27:27Z</time>
      </trkpt>
      <trkpt lat="43.26252" lon="6.25112">
        <ele>432</ele>
        <time>2017-09-05T10:27:55Z</time>
      </trkpt>
      <trkpt lat="43.2625" lon="6.25162">
        <ele>431</ele>
        <time>2017-09-05T10:28:54Z</time>
      </trkpt>
      <trkpt lat="43.26258" lon="6.25217">
        <ele>435</ele>
        <time>2017-09-05T10:30:09Z</time>
      </trkpt>
      <trkpt lat="43.26238" lon="6.25258">
        <ele>437</ele>
        <time>2017-09-05T10:30:47Z</time>
      </trkpt>
      <trkpt lat="43.26195" lon="6.25276">
        <ele>437</ele>
        <time>2017-09-05T10:31:27Z</time>
      </trkpt>
      <trkpt lat="43.26154" lon="6.25298">
        <ele>437</ele>
        <time>2017-09-05T10:32:41Z</time>
      </trkpt>
      <trkpt lat="43.2612" lon="6.25331">
        <ele>441</ele>
        <time>2017-09-05T10:33:13Z</time>
      </trkpt>
      <trkpt lat="43.26088" lon="6.25362">
        <ele>441</ele>
        <time>2017-09-05T10:33:44Z</time>
      </trkpt>
      <trkpt lat="43.2606" lon="6.25398">
        <ele>441</ele>
        <time>2017-09-05T10:34:14Z</time>
      </trkpt>
      <trkpt lat="43.26068" lon="6.25449">
        <ele>446</ele>
        <time>2017-09-05T10:35:35Z</time>
      </trkpt>
      <trkpt lat="43.26076" lon="6.25479">
        <ele>450</ele>
        <time>2017-09-05T10:38:48Z</time>
      </trkpt>
      <trkpt lat="43.26367" lon="6.2578">
        <ele>473</ele>
        <time>2017-09-05T10:51:04Z</time>
      </trkpt>
      <trkpt lat="43.26331" lon="6.25793">
        <ele>459</ele>
        <time>2017-09-05T10:51:06Z</time>
      </trkpt>
      <trkpt lat="43.26299" lon="6.25808">
        <ele>446</ele>
        <time>2017-09-05T10:51:08Z</time>
      </trkpt>
      <trkpt lat="43.26271" lon="6.25824">
        <ele>430</ele>
        <time>2017-09-05T10:51:10Z</time>
      </trkpt>
      <trkpt lat="43.26238" lon="6.25836">
        <ele>417</ele>
        <time>2017-09-05T10:51:12Z</time>
      </trkpt>
      <trkpt lat="43.26403" lon="6.25785">
        <ele>477</ele>
        <time>2017-09-05T11:12:32Z</time>
      </trkpt>
      <trkpt lat="43.26412" lon="6.2584">
        <ele>473</ele>
        <time>2017-09-05T11:13:23Z</time>
      </trkpt>
      <trkpt lat="43.26415" lon="6.25895">
        <ele>477</ele>
        <time>2017-09-05T11:13:51Z</time>
      </trkpt>
      <trkpt lat="43.2642" lon="6.25949">
        <ele>481</ele>
        <time>2017-09-05T11:14:52Z</time>
      </trkpt>
      <trkpt lat="43.26421" lon="6.26006">
        <ele>487</ele>
        <time>2017-09-05T11:15:33Z</time>
      </trkpt>
      <trkpt lat="43.2641" lon="6.26058">
        <ele>493</ele>
        <time>2017-09-05T11:17:00Z</time>
      </trkpt>
      <trkpt lat="43.26398" lon="6.2611">
        <ele>503</ele>
        <time>2017-09-05T11:18:21Z</time>
      </trkpt>
      <trkpt lat="43.26386" lon="6.26163">
        <ele>511</ele>
        <time>2017-09-05T11:19:39Z</time>
      </trkpt>
      <trkpt lat="43.26363" lon="6.26211">
        <ele>515</ele>
        <time>2017-09-05T11:20:38Z</time>
      </trkpt>
      <trkpt lat="43.2634" lon="6.26256">
        <ele>517</ele>
        <time>2017-09-05T11:21:20Z</time>
      </trkpt>
      <trkpt lat="43.26328" lon="6.26308">
        <ele>517</ele>
        <time>2017-09-05T11:22:07Z</time>
      </trkpt>
      <trkpt lat="43.26327" lon="6.26343">
        <ele>517</ele>
        <time>2017-09-05T11:24:05Z</time>
      </trkpt>
      <trkpt lat="43.26334" lon="6.26366">
        <ele>517</ele>
        <time>2017-09-05T11:25:29Z</time>
      </trkpt>
      <trkpt lat="43.26349" lon="6.26422">
        <ele>513</ele>
        <time>2017-09-05T11:25:46Z</time>
      </trkpt>
      <trkpt lat="43.26355" lon="6.26479">
        <ele>513</ele>
        <time>2017-09-05T11:26:01Z</time>
      </trkpt>
      <trkpt lat="43.26351" lon="6.26539">
        <ele>514</ele>
        <time>2017-09-05T11:26:14Z</time>
      </trkpt>
      <trkpt lat="43.2635" lon="6.26596">
        <ele>514</ele>
        <time>2017-09-05T11:26:22Z</time>
      </trkpt>
      <trkpt lat="43.26355" lon="6.26651">
        <ele>514</ele>
        <time>2017-09-05T11:26:34Z</time>
      </trkpt>
      <trkpt lat="43.26339" lon="6.26705">
        <ele>514</ele>
        <time>2017-09-05T11:26:47Z</time>
      </trkpt>
      <trkpt lat="43.26321" lon="6.26758">
        <ele>513</ele>
        <time>2017-09-05T11:26:57Z</time>
      </trkpt>
      <trkpt lat="43.2633" lon="6.26815">
        <ele>511</ele>
        <time>2017-09-05T11:27:05Z</time>
      </trkpt>
      <trkpt lat="43.26342" lon="6.26874">
        <ele>508</ele>
        <time>2017-09-05T11:27:15Z</time>
      </trkpt>
      <trkpt lat="43.26352" lon="6.26927">
        <ele>508</ele>
        <time>2017-09-05T11:27:25Z</time>
      </trkpt>
      <trkpt lat="43.26363" lon="6.26981">
        <ele>509</ele>
        <time>2017-09-05T11:27:35Z</time>
      </trkpt>
      <trkpt lat="43.26366" lon="6.27038">
        <ele>510</ele>
        <time>2017-09-05T11:27:49Z</time>
      </trkpt>
      <trkpt lat="43.26374" lon="6.27098">
        <ele>510</ele>
        <time>2017-09-05T11:27:59Z</time>
      </trkpt>
      <trkpt lat="43.26384" lon="6.27155">
        <ele>510</ele>
        <time>2017-09-05T11:28:10Z</time>
      </trkpt>
      <trkpt lat="43.26374" lon="6.27212">
        <ele>513</ele>
        <time>2017-09-05T11:28:22Z</time>
      </trkpt>
      <trkpt lat="43.26371" lon="6.27267">
        <ele>512</ele>
        <time>2017-09-05T11:28:32Z</time>
      </trkpt>
      <trkpt lat="43.26366" lon="6.27322">
        <ele>512</ele>
        <time>2017-09-05T11:28:43Z</time>
      </trkpt>
      <trkpt lat="43.26358" lon="6.27379">
        <ele>510</ele>
        <time>2017-09-05T11:28:53Z</time>
      </trkpt>
      <trkpt lat="43.26346" lon="6.27435">
        <ele>508</ele>
        <time>2017-09-05T11:29:03Z</time>
      </trkpt>
      <trkpt lat="43.26345" lon="6.2749">
        <ele>507</ele>
        <time>2017-09-05T11:29:20Z</time>
      </trkpt>
      <trkpt lat="43.26365" lon="6.2754">
        <ele>509</ele>
        <time>2017-09-05T11:29:37Z</time>
      </trkpt>
      <trkpt lat="43.26388" lon="6.27586">
        <ele>515</ele>
        <time>2017-09-05T11:30:04Z</time>
      </trkpt>
      <trkpt lat="43.26406" lon="6.27634">
        <ele>515</ele>
        <time>2017-09-05T11:30:36Z</time>
      </trkpt>
      <trkpt lat="43.264" lon="6.27692">
        <ele>517</ele>
        <time>2017-09-05T11:31:06Z</time>
      </trkpt>
      <trkpt lat="43.26394" lon="6.27748">
        <ele>520</ele>
        <time>2017-09-05T11:31:33Z</time>
      </trkpt>
      <trkpt lat="43.26377" lon="6.278">
        <ele>526</ele>
        <time>2017-09-05T11:31:58Z</time>
      </trkpt>
      <trkpt lat="43.26375" lon="6.27853">
        <ele>529</ele>
        <time>2017-09-05T11:32:24Z</time>
      </trkpt>
      <trkpt lat="43.2639" lon="6.27903">
        <ele>530</ele>
        <time>2017-09-05T11:32:54Z</time>
      </trkpt>
      <trkpt lat="43.26403" lon="6.27957">
        <ele>533</ele>
        <time>2017-09-05T11:33:21Z</time>
      </trkpt>
      <trkpt lat="43.26415" lon="6.2801">
        <ele>536</ele>
        <time>2017-09-05T11:33:45Z</time>
      </trkpt>
      <trkpt lat="43.26431" lon="6.28061">
        <ele>539</ele>
        <time>2017-09-05T11:34:14Z</time>
      </trkpt>
      <trkpt lat="43.26447" lon="6.2811">
        <ele>540</ele>
        <time>2017-09-05T11:34:35Z</time>
      </trkpt>
      <trkpt lat="43.2647" lon="6.28157">
        <ele>540</ele>
        <time>2017-09-05T11:34:55Z</time>
      </trkpt>
      <trkpt lat="43.26494" lon="6.28205">
        <ele>538</ele>
        <time>2017-09-05T11:35:12Z</time>
      </trkpt>
      <trkpt lat="43.26507" lon="6.28258">
        <ele>537</ele>
        <time>2017-09-05T11:35:21Z</time>
      </trkpt>
      <trkpt lat="43.26518" lon="6.28322">
        <ele>537</ele>
        <time>2017-09-05T11:35:29Z</time>
      </trkpt>
      <trkpt lat="43.26531" lon="6.28373">
        <ele>537</ele>
        <time>2017-09-05T11:35:39Z</time>
      </trkpt>
      <trkpt lat="43.26549" lon="6.28422">
        <ele>533</ele>
        <time>2017-09-05T11:35:53Z</time>
      </trkpt>
      <trkpt lat="43.2655" lon="6.28479">
        <ele>533</ele>
        <time>2017-09-05T11:36:03Z</time>
      </trkpt>
      <trkpt lat="43.26538" lon="6.28533">
        <ele>536</ele>
        <time>2017-09-05T11:36:24Z</time>
      </trkpt>
      <trkpt lat="43.26515" lon="6.28577">
        <ele>541</ele>
        <time>2017-09-05T11:36:51Z</time>
      </trkpt>
      <trkpt lat="43.26523" lon="6.28628">
        <ele>543</ele>
        <time>2017-09-05T11:37:17Z</time>
      </trkpt>
      <trkpt lat="43.26538" lon="6.2868">
        <ele>544</ele>
        <time>2017-09-05T11:37:45Z</time>
      </trkpt>
      <trkpt lat="43.2655" lon="6.28734">
        <ele>544</ele>
        <time>2017-09-05T11:38:07Z</time>
      </trkpt>
      <trkpt lat="43.26555" lon="6.28791">
        <ele>546</ele>
        <time>2017-09-05T11:38:24Z</time>
      </trkpt>
      <trkpt lat="43.26566" lon="6.28843">
        <ele>546</ele>
        <time>2017-09-05T11:38:40Z</time>
      </trkpt>
      <trkpt lat="43.26581" lon="6.28894">
        <ele>545</ele>
        <time>2017-09-05T11:39:01Z</time>
      </trkpt>
      <trkpt lat="43.266" lon="6.28955">
        <ele>546</ele>
        <time>2017-09-05T11:40:22Z</time>
      </trkpt>
      <trkpt lat="43.26612" lon="6.29011">
        <ele>547</ele>
        <time>2017-09-05T11:40:44Z</time>
      </trkpt>
      <trkpt lat="43.26616" lon="6.29069">
        <ele>547</ele>
        <time>2017-09-05T11:43:16Z</time>
      </trkpt>
      <trkpt lat="43.2663" lon="6.29123">
        <ele>546</ele>
        <time>2017-09-05T11:43:28Z</time>
      </trkpt>
      <trkpt lat="43.26645" lon="6.29179">
        <ele>543</ele>
        <time>2017-09-05T11:43:37Z</time>
      </trkpt>
      <trkpt lat="43.26656" lon="6.29235">
        <ele>541</ele>
        <time>2017-09-05T11:43:44Z</time>
      </trkpt>
      <trkpt lat="43.26664" lon="6.29291">
        <ele>539</ele>
        <time>2017-09-05T11:43:52Z</time>
      </trkpt>
      <trkpt lat="43.26675" lon="6.29343">
        <ele>537</ele>
        <time>2017-09-05T11:44:04Z</time>
      </trkpt>
      <trkpt lat="43.26663" lon="6.29295">
        <ele>538</ele>
        <time>2017-09-05T11:44:43Z</time>
      </trkpt>
      <trkpt lat="43.26652" lon="6.29239">
        <ele>539</ele>
        <time>2017-09-05T11:45:07Z</time>
      </trkpt>
      <trkpt lat="43.26642" lon="6.29184">
        <ele>541</ele>
        <time>2017-09-05T11:45:37Z</time>
      </trkpt>
      <trkpt lat="43.26629" lon="6.29131">
        <ele>545</ele>
        <time>2017-09-05T11:46:11Z</time>
      </trkpt>
      <trkpt lat="43.26615" lon="6.29084">
        <ele>545</ele>
        <time>2017-09-05T11:46:43Z</time>
      </trkpt>
      <trkpt lat="43.26611" lon="6.29028">
        <ele>547</ele>
        <time>2017-09-05T11:47:11Z</time>
      </trkpt>
      <trkpt lat="43.26605" lon="6.28973">
        <ele>547</ele>
        <time>2017-09-05T11:47:27Z</time>
      </trkpt>
      <trkpt lat="43.2659" lon="6.2892">
        <ele>545</ele>
        <time>2017-09-05T11:47:37Z</time>
      </trkpt>
      <trkpt lat="43.26598" lon="6.28918">
        <ele>544</ele>
        <time>2017-09-05T11:48:04Z</time>
      </trkpt>
      <trkpt lat="43.26633" lon="6.2895">
        <ele>541</ele>
        <time>2017-09-05T11:48:12Z</time>
      </trkpt>
      <trkpt lat="43.26668" lon="6.28989">
        <ele>539</ele>
        <time>2017-09-05T11:48:18Z</time>
      </trkpt>
      <trkpt lat="43.267" lon="6.29025">
        <ele>540</ele>
        <time>2017-09-05T11:48:23Z</time>
      </trkpt>
      <trkpt lat="43.26741" lon="6.29046">
        <ele>539</ele>
        <time>2017-09-05T11:48:29Z</time>
      </trkpt>
      <trkpt lat="43.26785" lon="6.29055">
        <ele>533</ele>
        <time>2017-09-05T11:48:37Z</time>
      </trkpt>
      <trkpt lat="43.26816" lon="6.29094">
        <ele>532</ele>
        <time>2017-09-05T11:48:45Z</time>
      </trkpt>
      <trkpt lat="43.26852" lon="6.29128">
        <ele>526</ele>
        <time>2017-09-05T11:48:52Z</time>
      </trkpt>
      <trkpt lat="43.26872" lon="6.29175">
        <ele>526</ele>
        <time>2017-09-05T11:48:59Z</time>
      </trkpt>
      <trkpt lat="43.26882" lon="6.29212">
        <ele>524</ele>
        <time>2017-09-05T11:51:57Z</time>
      </trkpt>
      <trkpt lat="43.26891" lon="6.29268">
        <ele>524</ele>
        <time>2017-09-05T11:52:09Z</time>
      </trkpt>
      <trkpt lat="43.26903" lon="6.2932">
        <ele>523</ele>
        <time>2017-09-05T11:52:20Z</time>
      </trkpt>
      <trkpt lat="43.26917" lon="6.29374">
        <ele>523</ele>
        <time>2017-09-05T11:52:30Z</time>
      </trkpt>
      <trkpt lat="43.26933" lon="6.2943">
        <ele>522</ele>
        <time>2017-09-05T11:52:40Z</time>
      </trkpt>
      <trkpt lat="43.26964" lon="6.29471">
        <ele>518</ele>
        <time>2017-09-05T11:52:50Z</time>
      </trkpt>
      <trkpt lat="43.26989" lon="6.29514">
        <ele>519</ele>
        <time>2017-09-05T11:52:59Z</time>
      </trkpt>
      <trkpt lat="43.27012" lon="6.29557">
        <ele>519</ele>
        <time>2017-09-05T11:53:10Z</time>
      </trkpt>
      <trkpt lat="43.2704" lon="6.29597">
        <ele>517</ele>
        <time>2017-09-05T11:53:20Z</time>
      </trkpt>
      <trkpt lat="43.27068" lon="6.29636">
        <ele>515</ele>
        <time>2017-09-05T11:53:28Z</time>
      </trkpt>
      <trkpt lat="43.27082" lon="6.29685">
        <ele>518</ele>
        <time>2017-09-05T11:53:45Z</time>
      </trkpt>
      <trkpt lat="43.27097" lon="6.29736">
        <ele>520</ele>
        <time>2017-09-05T11:54:12Z</time>
      </trkpt>
      <trkpt lat="43.27107" lon="6.29788">
        <ele>523</ele>
        <time>2017-09-05T11:54:39Z</time>
      </trkpt>
      <trkpt lat="43.27118" lon="6.29841">
        <ele>527</ele>
        <time>2017-09-05T11:55:09Z</time>
      </trkpt>
      <trkpt lat="43.27124" lon="6.29897">
        <ele>530</ele>
        <time>2017-09-05T11:55:40Z</time>
      </trkpt>
      <trkpt lat="43.2712" lon="6.29952">
        <ele>533</ele>
        <time>2017-09-05T11:56:11Z</time>
      </trkpt>
      <trkpt lat="43.2711" lon="6.30006">
        <ele>537</ele>
        <time>2017-09-05T11:56:39Z</time>
      </trkpt>
      <trkpt lat="43.27107" lon="6.3006">
        <ele>540</ele>
        <time>2017-09-05T11:57:06Z</time>
      </trkpt>
      <trkpt lat="43.27135" lon="6.30093">
        <ele>541</ele>
        <time>2017-09-05T11:57:33Z</time>
      </trkpt>
      <trkpt lat="43.27178" lon="6.30099">
        <ele>544</ele>
        <time>2017-09-05T11:57:57Z</time>
      </trkpt>
      <trkpt lat="43.27218" lon="6.30095">
        <ele>545</ele>
        <time>2017-09-05T11:58:21Z</time>
      </trkpt>
      <trkpt lat="43.27251" lon="6.30099">
        <ele>547</ele>
        <time>2017-09-05T11:58:50Z</time>
      </trkpt>
      <trkpt lat="43.27291" lon="6.30125">
        <ele>550</ele>
        <time>2017-09-05T11:59:19Z</time>
      </trkpt>
      <trkpt lat="43.27331" lon="6.30124">
        <ele>550</ele>
        <time>2017-09-05T11:59:48Z</time>
      </trkpt>
      <trkpt lat="43.27375" lon="6.30103">
        <ele>558</ele>
        <time>2017-09-05T12:01:32Z</time>
      </trkpt>
      <trkpt lat="43.27416" lon="6.3009">
        <ele>560</ele>
        <time>2017-09-05T12:02:06Z</time>
      </trkpt>
      <trkpt lat="43.27459" lon="6.3008">
        <ele>564</ele>
        <time>2017-09-05T12:02:47Z</time>
      </trkpt>
      <trkpt lat="43.2749" lon="6.3007">
        <ele>566</ele>
        <time>2017-09-05T12:03:26Z</time>
      </trkpt>
      <trkpt lat="43.27513" lon="6.30076">
        <ele>573</ele>
        <time>2017-09-05T12:07:37Z</time>
      </trkpt>
      <trkpt lat="43.27547" lon="6.30061">
        <ele>575</ele>
        <time>2017-09-05T12:08:56Z</time>
      </trkpt>
      <trkpt lat="43.27585" lon="6.30044">
        <ele>583</ele>
        <time>2017-09-05T12:09:34Z</time>
      </trkpt>
      <trkpt lat="43.27593" lon="6.2999">
        <ele>581</ele>
        <time>2017-09-05T12:10:12Z</time>
      </trkpt>
      <trkpt lat="43.2759" lon="6.2993">
        <ele>586</ele>
        <time>2017-09-05T12:10:51Z</time>
      </trkpt>
      <trkpt lat="43.27579" lon="6.29874">
        <ele>592</ele>
        <time>2017-09-05T12:11:30Z</time>
      </trkpt>
      <trkpt lat="43.27567" lon="6.29822">
        <ele>598</ele>
        <time>2017-09-05T12:12:07Z</time>
      </trkpt>
      <trkpt lat="43.27554" lon="6.29771">
        <ele>597</ele>
        <time>2017-09-05T12:12:45Z</time>
      </trkpt>
      <trkpt lat="43.27573" lon="6.29728">
        <ele>600</ele>
        <time>2017-09-05T12:13:20Z</time>
      </trkpt>
      <trkpt lat="43.27611" lon="6.29711">
        <ele>607</ele>
        <time>2017-09-05T12:13:55Z</time>
      </trkpt>
      <trkpt lat="43.27647" lon="6.29697">
        <ele>612</ele>
        <time>2017-09-05T12:14:27Z</time>
      </trkpt>
      <trkpt lat="43.27686" lon="6.29675">
        <ele>614</ele>
        <time>2017-09-05T12:16:08Z</time>
      </trkpt>
      <trkpt lat="43.27722" lon="6.2965">
        <ele>616</ele>
        <time>2017-09-05T12:16:44Z</time>
      </trkpt>
      <trkpt lat="43.27755" lon="6.29618">
        <ele>620</ele>
        <time>2017-09-05T12:17:20Z</time>
      </trkpt>
      <trkpt lat="43.27773" lon="6.29569">
        <ele>619</ele>
        <time>2017-09-05T12:17:59Z</time>
      </trkpt>
      <trkpt lat="43.27788" lon="6.29518">
        <ele>621</ele>
        <time>2017-09-05T12:18:37Z</time>
      </trkpt>
      <trkpt lat="43.27816" lon="6.29484">
        <ele>627</ele>
        <time>2017-09-05T12:19:11Z</time>
      </trkpt>
      <trkpt lat="43.27859" lon="6.29479">
        <ele>637</ele>
        <time>2017-09-05T12:19:48Z</time>
      </trkpt>
      <trkpt lat="43.27886" lon="6.29446">
        <ele>642</ele>
        <time>2017-09-05T12:20:25Z</time>
      </trkpt>
      <trkpt lat="43.27883" lon="6.29389">
        <ele>642</ele>
        <time>2017-09-05T12:21:49Z</time>
      </trkpt>
      <trkpt lat="43.27883" lon="6.2934">
        <ele>648</ele>
        <time>2017-09-05T12:22:24Z</time>
      </trkpt>
      <trkpt lat="43.27881" lon="6.29287">
        <ele>652</ele>
        <time>2017-09-05T12:23:01Z</time>
      </trkpt>
      <trkpt lat="43.27869" lon="6.29236">
        <ele>650</ele>
        <time>2017-09-05T12:23:37Z</time>
      </trkpt>
      <trkpt lat="43.27867" lon="6.29186">
        <ele>652</ele>
        <time>2017-09-05T12:24:13Z</time>
      </trkpt>
      <trkpt lat="43.27896" lon="6.29232">
        <ele>661</ele>
        <time>2017-09-05T12:24:45Z</time>
      </trkpt>
      <trkpt lat="43.27919" lon="6.29285">
        <ele>667</ele>
        <time>2017-09-05T12:25:18Z</time>
      </trkpt>
      <trkpt lat="43.27933" lon="6.29343">
        <ele>668</ele>
        <time>2017-09-05T12:25:55Z</time>
      </trkpt>
      <trkpt lat="43.27947" lon="6.29399">
        <ele>672</ele>
        <time>2017-09-05T12:29:15Z</time>
      </trkpt>
      <trkpt lat="43.2796" lon="6.2945">
        <ele>678</ele>
        <time>2017-09-05T12:29:50Z</time>
      </trkpt>
      <trkpt lat="43.27954" lon="6.29503">
        <ele>680</ele>
        <time>2017-09-05T12:30:26Z</time>
      </trkpt>
      <trkpt lat="43.27942" lon="6.29557">
        <ele>683</ele>
        <time>2017-09-05T12:30:57Z</time>
      </trkpt>
      <trkpt lat="43.27917" lon="6.29603">
        <ele>683</ele>
        <time>2017-09-05T12:31:29Z</time>
      </trkpt>
      <trkpt lat="43.27895" lon="6.29648">
        <ele>684</ele>
        <time>2017-09-05T12:31:57Z</time>
      </trkpt>
      <trkpt lat="43.27886" lon="6.29702">
        <ele>686</ele>
        <time>2017-09-05T12:32:26Z</time>
      </trkpt>
      <trkpt lat="43.27921" lon="6.29711">
        <ele>689</ele>
        <time>2017-09-05T12:32:54Z</time>
      </trkpt>
      <trkpt lat="43.27968" lon="6.29706">
        <ele>686</ele>
        <time>2017-09-05T12:33:09Z</time>
      </trkpt>
      <trkpt lat="43.28014" lon="6.29706">
        <ele>683</ele>
        <time>2017-09-05T12:33:16Z</time>
      </trkpt>
      <trkpt lat="43.28057" lon="6.29719">
        <ele>682</ele>
        <time>2017-09-05T12:33:22Z</time>
      </trkpt>
      <trkpt lat="43.28094" lon="6.29748">
        <ele>680</ele>
        <time>2017-09-05T12:33:29Z</time>
      </trkpt>
      <trkpt lat="43.28123" lon="6.29797">
        <ele>676</ele>
        <time>2017-09-05T12:33:37Z</time>
      </trkpt>
      <trkpt lat="43.28145" lon="6.29857">
        <ele>672</ele>
        <time>2017-09-05T12:33:44Z</time>
      </trkpt>
      <trkpt lat="43.28163" lon="6.29906">
        <ele>666</ele>
        <time>2017-09-05T12:33:50Z</time>
      </trkpt>
      <trkpt lat="43.28176" lon="6.29964">
        <ele>666</ele>
        <time>2017-09-05T12:34:28Z</time>
      </trkpt>
      <trkpt lat="43.28178" lon="6.30024">
        <ele>665</ele>
        <time>2017-09-05T12:34:44Z</time>
      </trkpt>
      <trkpt lat="43.2819" lon="6.3008">
        <ele>664</ele>
        <time>2017-09-05T12:34:53Z</time>
      </trkpt>
      <trkpt lat="43.28205" lon="6.30136">
        <ele>662</ele>
        <time>2017-09-05T12:35:01Z</time>
      </trkpt>
      <trkpt lat="43.28217" lon="6.30188">
        <ele>663</ele>
        <time>2017-09-05T12:35:08Z</time>
      </trkpt>
      <trkpt lat="43.28223" lon="6.30246">
        <ele>665</ele>
        <time>2017-09-05T12:35:17Z</time>
      </trkpt>
      <trkpt lat="43.28227" lon="6.30305">
        <ele>662</ele>
        <time>2017-09-05T12:35:33Z</time>
      </trkpt>
      <trkpt lat="43.28224" lon="6.30363">
        <ele>662</ele>
        <time>2017-09-05T12:35:49Z</time>
      </trkpt>
      <trkpt lat="43.28234" lon="6.30421">
        <ele>662</ele>
        <time>2017-09-05T12:36:13Z</time>
      </trkpt>
      <trkpt lat="43.28249" lon="6.30472">
        <ele>661</ele>
        <time>2017-09-05T12:36:35Z</time>
      </trkpt>
      <trkpt lat="43.2825" lon="6.30529">
        <ele>662</ele>
        <time>2017-09-05T12:36:57Z</time>
      </trkpt>
      <trkpt lat="43.2826" lon="6.30586">
        <ele>665</ele>
        <time>2017-09-05T12:37:13Z</time>
      </trkpt>
      <trkpt lat="43.28285" lon="6.30633">
        <ele>668</ele>
        <time>2017-09-05T12:37:29Z</time>
      </trkpt>
      <trkpt lat="43.28321" lon="6.30682">
        <ele>670</ele>
        <time>2017-09-05T12:38:14Z</time>
      </trkpt>
      <trkpt lat="43.28351" lon="6.30725">
        <ele>673</ele>
        <time>2017-09-05T12:38:29Z</time>
      </trkpt>
      <trkpt lat="43.28385" lon="6.30767">
        <ele>671</ele>
        <time>2017-09-05T12:38:44Z</time>
      </trkpt>
      <trkpt lat="43.28415" lon="6.3081">
        <ele>670</ele>
        <time>2017-09-05T12:39:00Z</time>
      </trkpt>
      <trkpt lat="43.28442" lon="6.30853">
        <ele>671</ele>
        <time>2017-09-05T12:39:14Z</time>
      </trkpt>
      <trkpt lat="43.28464" lon="6.30904">
        <ele>671</ele>
        <time>2017-09-05T12:39:30Z</time>
      </trkpt>
      <trkpt lat="43.28494" lon="6.30949">
        <ele>668</ele>
        <time>2017-09-05T12:39:42Z</time>
      </trkpt>
      <trkpt lat="43.28534" lon="6.30983">
        <ele>667</ele>
        <time>2017-09-05T12:39:49Z</time>
      </trkpt>
      <trkpt lat="43.28574" lon="6.31001">
        <ele>665</ele>
        <time>2017-09-05T12:39:55Z</time>
      </trkpt>
      <trkpt lat="43.28612" lon="6.31038">
        <ele>664</ele>
        <time>2017-09-05T12:40:01Z</time>
      </trkpt>
      <trkpt lat="43.28629" lon="6.31089">
        <ele>662</ele>
        <time>2017-09-05T12:40:06Z</time>
      </trkpt>
      <trkpt lat="43.28636" lon="6.31151">
        <ele>657</ele>
        <time>2017-09-05T12:40:11Z</time>
      </trkpt>
      <trkpt lat="43.28634" lon="6.31214">
        <ele>651</ele>
        <time>2017-09-05T12:40:17Z</time>
      </trkpt>
      <trkpt lat="43.28629" lon="6.31276">
        <ele>644</ele>
        <time>2017-09-05T12:40:23Z</time>
      </trkpt>
      <trkpt lat="43.28631" lon="6.31338">
        <ele>639</ele>
        <time>2017-09-05T12:40:28Z</time>
      </trkpt>
      <trkpt lat="43.28636" lon="6.31398">
        <ele>632</ele>
        <time>2017-09-05T12:40:34Z</time>
      </trkpt>
      <trkpt lat="43.2862" lon="6.3138">
        <ele>629</ele>
        <time>2017-09-05T12:40:53Z</time>
      </trkpt>
      <trkpt lat="43.28608" lon="6.31322">
        <ele>629</ele>
        <time>2017-09-05T12:41:00Z</time>
      </trkpt>
      <trkpt lat="43.28593" lon="6.31264">
        <ele>625</ele>
        <time>2017-09-05T12:41:06Z</time>
      </trkpt>
      <trkpt lat="43.28581" lon="6.31205">
        <ele>622</ele>
        <time>2017-09-05T12:41:12Z</time>
      </trkpt>
      <trkpt lat="43.2856" lon="6.31157">
        <ele>622</ele>
        <time>2017-09-05T12:41:18Z</time>
      </trkpt>
      <trkpt lat="43.28519" lon="6.31154">
        <ele>613</ele>
        <time>2017-09-05T12:41:25Z</time>
      </trkpt>
      <trkpt lat="43.28475" lon="6.31157">
        <ele>607</ele>
        <time>2017-09-05T12:41:31Z</time>
      </trkpt>
      <trkpt lat="43.28432" lon="6.31135">
        <ele>603</ele>
        <time>2017-09-05T12:41:37Z</time>
      </trkpt>
      <trkpt lat="43.28406" lon="6.31096">
        <ele>603</ele>
        <time>2017-09-05T12:41:44Z</time>
      </trkpt>
      <trkpt lat="43.2842" lon="6.31143">
        <ele>595</ele>
        <time>2017-09-05T12:41:53Z</time>
      </trkpt>
      <trkpt lat="43.28453" lon="6.31182">
        <ele>594</ele>
        <time>2017-09-05T12:41:59Z</time>
      </trkpt>
      <trkpt lat="43.28498" lon="6.31202">
        <ele>591</ele>
        <time>2017-09-05T12:42:05Z</time>
      </trkpt>
      <trkpt lat="43.28531" lon="6.31223">
        <ele>594</ele>
        <time>2017-09-05T12:42:12Z</time>
      </trkpt>
      <trkpt lat="43.2852" lon="6.31283">
        <ele>586</ele>
        <time>2017-09-05T12:42:19Z</time>
      </trkpt>
      <trkpt lat="43.28514" lon="6.31338">
        <ele>583</ele>
        <time>2017-09-05T12:42:24Z</time>
      </trkpt>
      <trkpt lat="43.28499" lon="6.31388">
        <ele>583</ele>
        <time>2017-09-05T12:42:30Z</time>
      </trkpt>
      <trkpt lat="43.28465" lon="6.31417">
        <ele>578</ele>
        <time>2017-09-05T12:42:36Z</time>
      </trkpt>
      <trkpt lat="43.28434" lon="6.31452">
        <ele>573</ele>
        <time>2017-09-05T12:42:43Z</time>
      </trkpt>
      <trkpt lat="43.28429" lon="6.31512">
        <ele>573</ele>
        <time>2017-09-05T12:42:49Z</time>
      </trkpt>
      <trkpt lat="43.2843" lon="6.31573">
        <ele>574</ele>
        <time>2017-09-05T12:42:54Z</time>
      </trkpt>
      <trkpt lat="43.28427" lon="6.31636">
        <ele>573</ele>
        <time>2017-09-05T12:42:59Z</time>
      </trkpt>
      <trkpt lat="43.28417" lon="6.3169">
        <ele>567</ele>
        <time>2017-09-05T12:43:05Z</time>
      </trkpt>
      <trkpt lat="43.28394" lon="6.31741">
        <ele>557</ele>
        <time>2017-09-05T12:43:11Z</time>
      </trkpt>
      <trkpt lat="43.28376" lon="6.31805">
        <ele>548</ele>
        <time>2017-09-05T12:43:16Z</time>
      </trkpt>
      <trkpt lat="43.28357" lon="6.31855">
        <ele>547</ele>
        <time>2017-09-05T12:43:20Z</time>
      </trkpt>
      <trkpt lat="43.28331" lon="6.31907">
        <ele>549</ele>
        <time>2017-09-05T12:43:25Z</time>
      </trkpt>
      <trkpt lat="43.28293" lon="6.31944">
        <ele>547</ele>
        <time>2017-09-05T12:43:31Z</time>
      </trkpt>
      <trkpt lat="43.28255" lon="6.31976">
        <ele>543</ele>
        <time>2017-09-05T12:43:37Z</time>
      </trkpt>
      <trkpt lat="43.28244" lon="6.32021">
        <ele>542</ele>
        <time>2017-09-05T12:43:45Z</time>
      </trkpt>
      <trkpt lat="43.28265" lon="6.32067">
        <ele>539</ele>
        <time>2017-09-05T12:43:51Z</time>
      </trkpt>
      <trkpt lat="43.28278" lon="6.32122">
        <ele>533</ele>
        <time>2017-09-05T12:43:56Z</time>
      </trkpt>
      <trkpt lat="43.28285" lon="6.32178">
        <ele>530</ele>
        <time>2017-09-05T12:44:00Z</time>
      </trkpt>
      <trkpt lat="43.28301" lon="6.3224">
        <ele>526</ele>
        <time>2017-09-05T12:44:05Z</time>
      </trkpt>
      <trkpt lat="43.28313" lon="6.32296">
        <ele>525</ele>
        <time>2017-09-05T12:44:11Z</time>
      </trkpt>
      <trkpt lat="43.28318" lon="6.32352">
        <ele>525</ele>
        <time>2017-09-05T12:44:19Z</time>
      </trkpt>
      <trkpt lat="43.28316" lon="6.32407">
        <ele>526</ele>
        <time>2017-09-05T12:44:34Z</time>
      </trkpt>
      <trkpt lat="43.28307" lon="6.32462">
        <ele>527</ele>
        <time>2017-09-05T12:44:50Z</time>
      </trkpt>
      <trkpt lat="43.28304" lon="6.32523">
        <ele>526</ele>
        <time>2017-09-05T12:45:10Z</time>
      </trkpt>
      <trkpt lat="43.28305" lon="6.32583">
        <ele>526</ele>
        <time>2017-09-05T12:45:27Z</time>
      </trkpt>
      <trkpt lat="43.28316" lon="6.32635">
        <ele>528</ele>
        <time>2017-09-05T12:45:43Z</time>
      </trkpt>
      <trkpt lat="43.28332" lon="6.32657">
        <ele>528</ele>
        <time>2017-09-05T12:48:32Z</time>
      </trkpt>
      <trkpt lat="43.28367" lon="6.32689">
        <ele>532</ele>
        <time>2017-09-05T12:48:43Z</time>
      </trkpt>
      <trkpt lat="43.28411" lon="6.32713">
        <ele>529</ele>
        <time>2017-09-05T12:49:02Z</time>
      </trkpt>
      <trkpt lat="43.28457" lon="6.32727">
        <ele>525</ele>
        <time>2017-09-05T12:49:10Z</time>
      </trkpt>
      <trkpt lat="43.28495" lon="6.32749">
        <ele>522</ele>
        <time>2017-09-05T12:49:17Z</time>
      </trkpt>
      <trkpt lat="43.28534" lon="6.32771">
        <ele>520</ele>
        <time>2017-09-05T12:49:24Z</time>
      </trkpt>
      <trkpt lat="43.28577" lon="6.32774">
        <ele>517</ele>
        <time>2017-09-05T12:49:30Z</time>
      </trkpt>
      <trkpt lat="43.28617" lon="6.32773">
        <ele>515</ele>
        <time>2017-09-05T12:49:38Z</time>
      </trkpt>
      <trkpt lat="43.28624" lon="6.32791">
        <ele>515</ele>
        <time>2017-09-05T12:57:11Z</time>
      </trkpt>
      <trkpt lat="43.28607" lon="6.32814">
        <ele>518</ele>
        <time>2017-09-05T13:02:17Z</time>
      </trkpt>
      <trkpt lat="43.28582" lon="6.32855">
        <ele>527</ele>
        <time>2017-09-05T13:02:59Z</time>
      </trkpt>
      <trkpt lat="43.28586" lon="6.32911">
        <ele>526</ele>
        <time>2017-09-05T13:03:48Z</time>
      </trkpt>
      <trkpt lat="43.28594" lon="6.32968">
        <ele>528</ele>
        <time>2017-09-05T13:04:20Z</time>
      </trkpt>
      <trkpt lat="43.286" lon="6.33025">
        <ele>531</ele>
        <time>2017-09-05T13:04:52Z</time>
      </trkpt>
      <trkpt lat="43.28596" lon="6.33087">
        <ele>532</ele>
        <time>2017-09-05T13:05:22Z</time>
      </trkpt>
      <trkpt lat="43.28561" lon="6.33114">
        <ele>537</ele>
        <time>2017-09-05T13:05:48Z</time>
      </trkpt>
      <trkpt lat="43.28521" lon="6.33115">
        <ele>542</ele>
        <time>2017-09-05T13:06:10Z</time>
      </trkpt>
      <trkpt lat="43.2848" lon="6.33118">
        <ele>543</ele>
        <time>2017-09-05T13:06:35Z</time>
      </trkpt>
      <trkpt lat="43.2844" lon="6.33122">
        <ele>543</ele>
        <time>2017-09-05T13:07:00Z</time>
      </trkpt>
      <trkpt lat="43.28401" lon="6.33136">
        <ele>545</ele>
        <time>2017-09-05T13:07:20Z</time>
      </trkpt>
      <trkpt lat="43.2837" lon="6.33169">
        <ele>549</ele>
        <time>2017-09-05T13:07:46Z</time>
      </trkpt>
      <trkpt lat="43.28364" lon="6.33221">
        <ele>546</ele>
        <time>2017-09-05T13:08:15Z</time>
      </trkpt>
      <trkpt lat="43.28354" lon="6.33274">
        <ele>546</ele>
        <time>2017-09-05T13:08:42Z</time>
      </trkpt>
      <trkpt lat="43.28319" lon="6.33299">
        <ele>553</ele>
        <time>2017-09-05T13:09:42Z</time>
      </trkpt>
      <trkpt lat="43.28284" lon="6.33321">
        <ele>554</ele>
        <time>2017-09-05T13:10:08Z</time>
      </trkpt>
      <trkpt lat="43.28251" lon="6.33355">
        <ele>558</ele>
        <time>2017-09-05T13:10:33Z</time>
      </trkpt>
      <trkpt lat="43.28234" lon="6.33407">
        <ele>562</ele>
        <time>2017-09-05T13:10:58Z</time>
      </trkpt>
      <trkpt lat="43.28231" lon="6.33462">
        <ele>563</ele>
        <time>2017-09-05T13:11:20Z</time>
      </trkpt>
      <trkpt lat="43.28245" lon="6.33512">
        <ele>558</ele>
        <time>2017-09-05T13:11:43Z</time>
      </trkpt>
      <trkpt lat="43.28238" lon="6.33566">
        <ele>565</ele>
        <time>2017-09-05T13:12:09Z</time>
      </trkpt>
      <trkpt lat="43.28248" lon="6.3361">
        <ele>564</ele>
        <time>2017-09-05T13:12:31Z</time>
      </trkpt>
      <trkpt lat="43.28276" lon="6.3364">
        <ele>563</ele>
        <time>2017-09-05T13:12:53Z</time>
      </trkpt>
      <trkpt lat="43.28307" lon="6.33673">
        <ele>563</ele>
        <time>2017-09-05T13:13:15Z</time>
      </trkpt>
      <trkpt lat="43.28326" lon="6.33718">
        <ele>563</ele>
        <time>2017-09-05T13:13:38Z</time>
      </trkpt>
      <trkpt lat="43.28321" lon="6.33775">
        <ele>568</ele>
        <time>2017-09-05T13:13:59Z</time>
      </trkpt>
      <trkpt lat="43.28313" lon="6.3383">
        <ele>569</ele>
        <time>2017-09-05T13:14:21Z</time>
      </trkpt>
      <trkpt lat="43.2829" lon="6.33869">
        <ele>570</ele>
        <time>2017-09-05T13:14:46Z</time>
      </trkpt>
      <trkpt lat="43.28249" lon="6.33861">
        <ele>576</ele>
        <time>2017-09-05T13:16:02Z</time>
      </trkpt>
      <trkpt lat="43.2821" lon="6.3385">
        <ele>581</ele>
        <time>2017-09-05T13:16:27Z</time>
      </trkpt>
      <trkpt lat="43.28184" lon="6.33888">
        <ele>581</ele>
        <time>2017-09-05T13:16:51Z</time>
      </trkpt>
      <trkpt lat="43.28182" lon="6.3394">
        <ele>578</ele>
        <time>2017-09-05T13:17:19Z</time>
      </trkpt>
      <trkpt lat="43.28169" lon="6.33996">
        <ele>584</ele>
        <time>2017-09-05T13:17:46Z</time>
      </trkpt>
      <trkpt lat="43.28155" lon="6.3405">
        <ele>586</ele>
        <time>2017-09-05T13:18:07Z</time>
      </trkpt>
      <trkpt lat="43.28161" lon="6.34105">
        <ele>584</ele>
        <time>2017-09-05T13:18:28Z</time>
      </trkpt>
      <trkpt lat="43.28174" lon="6.34157">
        <ele>582</ele>
        <time>2017-09-05T13:18:47Z</time>
      </trkpt>
      <trkpt lat="43.28164" lon="6.34216">
        <ele>589</ele>
        <time>2017-09-05T13:19:06Z</time>
      </trkpt>
      <trkpt lat="43.28175" lon="6.34266">
        <ele>591</ele>
        <time>2017-09-05T13:19:25Z</time>
      </trkpt>
      <trkpt lat="43.282" lon="6.34304">
        <ele>590</ele>
        <time>2017-09-05T13:19:48Z</time>
      </trkpt>
      <trkpt lat="43.28224" lon="6.34348">
        <ele>595</ele>
        <time>2017-09-05T13:20:09Z</time>
      </trkpt>
      <trkpt lat="43.28245" lon="6.34395">
        <ele>593</ele>
        <time>2017-09-05T13:20:30Z</time>
      </trkpt>
      <trkpt lat="43.28232" lon="6.3445">
        <ele>592</ele>
        <time>2017-09-05T13:20:51Z</time>
      </trkpt>
      <trkpt lat="43.28197" lon="6.34487">
        <ele>601</ele>
        <time>2017-09-05T13:21:21Z</time>
      </trkpt>
      <trkpt lat="43.28168" lon="6.34535">
        <ele>602</ele>
        <time>2017-09-05T13:21:39Z</time>
      </trkpt>
      <trkpt lat="43.28171" lon="6.34593">
        <ele>603</ele>
        <time>2017-09-05T13:21:59Z</time>
      </trkpt>
      <trkpt lat="43.28173" lon="6.34648">
        <ele>601</ele>
        <time>2017-09-05T13:22:17Z</time>
      </trkpt>
      <trkpt lat="43.28147" lon="6.34681">
        <ele>603</ele>
        <time>2017-09-05T13:24:07Z</time>
      </trkpt>
      <trkpt lat="43.28112" lon="6.34716">
        <ele>603</ele>
        <time>2017-09-05T13:24:31Z</time>
      </trkpt>
      <trkpt lat="43.28084" lon="6.34761">
        <ele>604</ele>
        <time>2017-09-05T13:24:55Z</time>
      </trkpt>
      <trkpt lat="43.28057" lon="6.34804">
        <ele>608</ele>
        <time>2017-09-05T13:25:15Z</time>
      </trkpt>
      <trkpt lat="43.28021" lon="6.34838">
        <ele>610</ele>
        <time>2017-09-05T13:25:40Z</time>
      </trkpt>
      <trkpt lat="43.27993" lon="6.34877">
        <ele>609</ele>
        <time>2017-09-05T13:25:58Z</time>
      </trkpt>
      <trkpt lat="43.27992" lon="6.34933">
        <ele>612</ele>
        <time>2017-09-05T13:26:16Z</time>
      </trkpt>
      <trkpt lat="43.27995" lon="6.34987">
        <ele>617</ele>
        <time>2017-09-05T13:26:35Z</time>
      </trkpt>
      <trkpt lat="43.27986" lon="6.3504">
        <ele>620</ele>
        <time>2017-09-05T13:26:59Z</time>
      </trkpt>
      <trkpt lat="43.27953" lon="6.3508">
        <ele>621</ele>
        <time>2017-09-05T13:27:26Z</time>
      </trkpt>
      <trkpt lat="43.27916" lon="6.35122">
        <ele>623</ele>
        <time>2017-09-05T13:27:53Z</time>
      </trkpt>
      <trkpt lat="43.27898" lon="6.35177">
        <ele>630</ele>
        <time>2017-09-05T13:28:19Z</time>
      </trkpt>
      <trkpt lat="43.27887" lon="6.35231">
        <ele>630</ele>
        <time>2017-09-05T13:28:40Z</time>
      </trkpt>
      <trkpt lat="43.27891" lon="6.35283">
        <ele>639</ele>
        <time>2017-09-05T13:29:56Z</time>
      </trkpt>
      <trkpt lat="43.2788" lon="6.35338">
        <ele>639</ele>
        <time>2017-09-05T13:30:22Z</time>
      </trkpt>
      <trkpt lat="43.2787" lon="6.35394">
        <ele>639</ele>
        <time>2017-09-05T13:30:45Z</time>
      </trkpt>
      <trkpt lat="43.27862" lon="6.35449">
        <ele>639</ele>
        <time>2017-09-05T13:31:06Z</time>
      </trkpt>
      <trkpt lat="43.27844" lon="6.35499">
        <ele>638</ele>
        <time>2017-09-05T13:31:30Z</time>
      </trkpt>
      <trkpt lat="43.27823" lon="6.35547">
        <ele>639</ele>
        <time>2017-09-05T13:31:49Z</time>
      </trkpt>
      <trkpt lat="43.27853" lon="6.35573">
        <ele>637</ele>
        <time>2017-09-05T13:32:04Z</time>
      </trkpt>
      <trkpt lat="43.27893" lon="6.35583">
        <ele>634</ele>
        <time>2017-09-05T13:32:13Z</time>
      </trkpt>
      <trkpt lat="43.27934" lon="6.35588">
        <ele>635</ele>
        <time>2017-09-05T13:32:20Z</time>
      </trkpt>
      <trkpt lat="43.27968" lon="6.35631">
        <ele>629</ele>
        <time>2017-09-05T13:32:27Z</time>
      </trkpt>
      <trkpt lat="43.28011" lon="6.35643">
        <ele>630</ele>
        <time>2017-09-05T13:32:35Z</time>
      </trkpt>
      <trkpt lat="43.28042" lon="6.35679">
        <ele>629</ele>
        <time>2017-09-05T13:32:44Z</time>
      </trkpt>
      <trkpt lat="43.28047" lon="6.35734">
        <ele>623</ele>
        <time>2017-09-05T13:32:52Z</time>
      </trkpt>
      <trkpt lat="43.28063" lon="6.35785">
        <ele>618</ele>
        <time>2017-09-05T13:32:59Z</time>
      </trkpt>
      <trkpt lat="43.28103" lon="6.35806">
        <ele>617</ele>
        <time>2017-09-05T13:33:05Z</time>
      </trkpt>
      <trkpt lat="43.28143" lon="6.35824">
        <ele>615</ele>
        <time>2017-09-05T13:33:11Z</time>
      </trkpt>
      <trkpt lat="43.28171" lon="6.35867">
        <ele>613</ele>
        <time>2017-09-05T13:33:18Z</time>
      </trkpt>
      <trkpt lat="43.28188" lon="6.3592">
        <ele>610</ele>
        <time>2017-09-05T13:33:24Z</time>
      </trkpt>
      <trkpt lat="43.28205" lon="6.35978">
        <ele>607</ele>
        <time>2017-09-05T13:33:30Z</time>
      </trkpt>
      <trkpt lat="43.28232" lon="6.36015">
        <ele>606</ele>
        <time>2017-09-05T13:33:36Z</time>
      </trkpt>
      <trkpt lat="43.28277" lon="6.36013">
        <ele>603</ele>
        <time>2017-09-05T13:33:42Z</time>
      </trkpt>
      <trkpt lat="43.28319" lon="6.36017">
        <ele>601</ele>
        <time>2017-09-05T13:33:49Z</time>
      </trkpt>
      <trkpt lat="43.28361" lon="6.36023">
        <ele>601</ele>
        <time>2017-09-05T13:33:56Z</time>
      </trkpt>
      <trkpt lat="43.28404" lon="6.36047">
        <ele>596</ele>
        <time>2017-09-05T13:34:03Z</time>
      </trkpt>
      <trkpt lat="43.28438" lon="6.36087">
        <ele>588</ele>
        <time>2017-09-05T13:34:09Z</time>
      </trkpt>
      <trkpt lat="43.28476" lon="6.36085">
        <ele>585</ele>
        <time>2017-09-05T13:34:16Z</time>
      </trkpt>
      <trkpt lat="43.28495" lon="6.36122">
        <ele>581</ele>
        <time>2017-09-05T13:34:25Z</time>
      </trkpt>
      <trkpt lat="43.28455" lon="6.36142">
        <ele>581</ele>
        <time>2017-09-05T13:34:32Z</time>
      </trkpt>
      <trkpt lat="43.28414" lon="6.36128">
        <ele>579</ele>
        <time>2017-09-05T13:34:38Z</time>
      </trkpt>
      <trkpt lat="43.28373" lon="6.36103">
        <ele>577</ele>
        <time>2017-09-05T13:34:45Z</time>
      </trkpt>
      <trkpt lat="43.28333" lon="6.36094">
        <ele>575</ele>
        <time>2017-09-05T13:34:51Z</time>
      </trkpt>
      <trkpt lat="43.28296" lon="6.36113">
        <ele>570</ele>
        <time>2017-09-05T13:34:57Z</time>
      </trkpt>
      <trkpt lat="43.28261" lon="6.36138">
        <ele>566</ele>
        <time>2017-09-05T13:35:03Z</time>
      </trkpt>
      <trkpt lat="43.28228" lon="6.36163">
        <ele>565</ele>
        <time>2017-09-05T13:35:09Z</time>
      </trkpt>
      <trkpt lat="43.28194" lon="6.36191">
        <ele>560</ele>
        <time>2017-09-05T13:35:15Z</time>
      </trkpt>
      <trkpt lat="43.28161" lon="6.3622">
        <ele>558</ele>
        <time>2017-09-05T13:35:23Z</time>
      </trkpt>
      <trkpt lat="43.28125" lon="6.3625">
        <ele>557</ele>
        <time>2017-09-05T13:35:31Z</time>
      </trkpt>
      <trkpt lat="43.28094" lon="6.36275">
        <ele>557</ele>
        <time>2017-09-05T13:35:42Z</time>
      </trkpt>
      <trkpt lat="43.28104" lon="6.36323">
        <ele>556</ele>
        <time>2017-09-05T13:36:18Z</time>
      </trkpt>
      <trkpt lat="43.28094" lon="6.36378">
        <ele>556</ele>
        <time>2017-09-05T13:39:55Z</time>
      </trkpt>
      <trkpt lat="43.28089" lon="6.3643">
        <ele>559</ele>
        <time>2017-09-05T13:41:09Z</time>
      </trkpt>
      <trkpt lat="43.28087" lon="6.36482">
        <ele>561</ele>
        <time>2017-09-05T13:41:52Z</time>
      </trkpt>
      <trkpt lat="43.28069" lon="6.36532">
        <ele>565</ele>
        <time>2017-09-05T13:42:28Z</time>
      </trkpt>
      <trkpt lat="43.28041" lon="6.3657">
        <ele>568</ele>
        <time>2017-09-05T13:43:04Z</time>
      </trkpt>
      <trkpt lat="43.28008" lon="6.366">
        <ele>571</ele>
        <time>2017-09-05T13:43:36Z</time>
      </trkpt>
      <trkpt lat="43.27975" lon="6.3663">
        <ele>572</ele>
        <time>2017-09-05T13:44:04Z</time>
      </trkpt>
      <trkpt lat="43.27935" lon="6.36638">
        <ele>578</ele>
        <time>2017-09-05T13:44:29Z</time>
      </trkpt>
      <trkpt lat="43.27895" lon="6.36644">
        <ele>582</ele>
        <time>2017-09-05T13:44:58Z</time>
      </trkpt>
      <trkpt lat="43.27854" lon="6.36658">
        <ele>583</ele>
        <time>2017-09-05T13:45:26Z</time>
      </trkpt>
      <trkpt lat="43.27825" lon="6.36697">
        <ele>585</ele>
        <time>2017-09-05T13:45:49Z</time>
      </trkpt>
      <trkpt lat="43.2782" lon="6.3675">
        <ele>584</ele>
        <time>2017-09-05T13:46:15Z</time>
      </trkpt>
      <trkpt lat="43.27818" lon="6.36804">
        <ele>590</ele>
        <time>2017-09-05T13:46:40Z</time>
      </trkpt>
      <trkpt lat="43.27831" lon="6.36853">
        <ele>593</ele>
        <time>2017-09-05T13:47:05Z</time>
      </trkpt>
      <trkpt lat="43.27861" lon="6.36886">
        <ele>588</ele>
        <time>2017-09-05T13:47:29Z</time>
      </trkpt>
      <trkpt lat="43.27855" lon="6.3694">
        <ele>591</ele>
        <time>2017-09-05T13:47:51Z</time>
      </trkpt>
      <trkpt lat="43.27829" lon="6.36981">
        <ele>598</ele>
        <time>2017-09-05T13:48:12Z</time>
      </trkpt>
      <trkpt lat="43.27818" lon="6.37028">
        <ele>598</ele>
        <time>2017-09-05T13:48:33Z</time>
      </trkpt>
      <trkpt lat="43.27834" lon="6.37078">
        <ele>600</ele>
        <time>2017-09-05T13:48:58Z</time>
      </trkpt>
      <trkpt lat="43.27855" lon="6.37126">
        <ele>602</ele>
        <time>2017-09-05T13:49:25Z</time>
      </trkpt>
      <trkpt lat="43.27881" lon="6.37165">
        <ele>605</ele>
        <time>2017-09-05T13:49:51Z</time>
      </trkpt>
      <trkpt lat="43.27915" lon="6.37194">
        <ele>607</ele>
        <time>2017-09-05T13:50:14Z</time>
      </trkpt>
      <trkpt lat="43.27951" lon="6.3722">
        <ele>608</ele>
        <time>2017-09-05T13:50:33Z</time>
      </trkpt>
      <trkpt lat="43.27987" lon="6.37248">
        <ele>610</ele>
        <time>2017-09-05T13:50:50Z</time>
      </trkpt>
      <trkpt lat="43.28021" lon="6.37272">
        <ele>610</ele>
        <time>2017-09-05T13:51:09Z</time>
      </trkpt>
      <trkpt lat="43.28059" lon="6.37294">
        <ele>612</ele>
        <time>2017-09-05T13:52:00Z</time>
      </trkpt>
      <trkpt lat="43.28098" lon="6.37325">
        <ele>613</ele>
        <time>2017-09-05T13:52:16Z</time>
      </trkpt>
      <trkpt lat="43.28135" lon="6.37355">
        <ele>613</ele>
        <time>2017-09-05T13:52:33Z</time>
      </trkpt>
      <trkpt lat="43.28172" lon="6.37385">
        <ele>613</ele>
        <time>2017-09-05T13:52:48Z</time>
      </trkpt>
      <trkpt lat="43.28206" lon="6.37417">
        <ele>611</ele>
        <time>2017-09-05T13:53:02Z</time>
      </trkpt>
      <trkpt lat="43.28242" lon="6.37448">
        <ele>610</ele>
        <time>2017-09-05T13:53:13Z</time>
      </trkpt>
      <trkpt lat="43.28279" lon="6.37482">
        <ele>610</ele>
        <time>2017-09-05T13:53:24Z</time>
      </trkpt>
      <trkpt lat="43.28313" lon="6.37513">
        <ele>611</ele>
        <time>2017-09-05T13:53:33Z</time>
      </trkpt>
      <trkpt lat="43.28347" lon="6.3754">
        <ele>614</ele>
        <time>2017-09-05T13:53:47Z</time>
      </trkpt>
      <trkpt lat="43.28379" lon="6.3757">
        <ele>618</ele>
        <time>2017-09-05T13:54:15Z</time>
      </trkpt>
      <trkpt lat="43.28423" lon="6.37613">
        <ele>624</ele>
        <time>2017-09-05T13:55:53Z</time>
      </trkpt>
      <trkpt lat="43.28457" lon="6.37642">
        <ele>627</ele>
        <time>2017-09-05T13:56:22Z</time>
      </trkpt>
      <trkpt lat="43.2849" lon="6.37673">
        <ele>630</ele>
        <time>2017-09-05T13:56:53Z</time>
      </trkpt>
      <trkpt lat="43.28522" lon="6.37702">
        <ele>634</ele>
        <time>2017-09-05T13:57:28Z</time>
      </trkpt>
      <trkpt lat="43.28555" lon="6.37733">
        <ele>639</ele>
        <time>2017-09-05T13:58:01Z</time>
      </trkpt>
      <trkpt lat="43.28587" lon="6.37765">
        <ele>641</ele>
        <time>2017-09-05T13:58:29Z</time>
      </trkpt>
      <trkpt lat="43.28623" lon="6.37794">
        <ele>642</ele>
        <time>2017-09-05T13:58:54Z</time>
      </trkpt>
      <trkpt lat="43.28656" lon="6.37826">
        <ele>643</ele>
        <time>2017-09-05T13:59:11Z</time>
      </trkpt>
      <trkpt lat="43.28691" lon="6.37853">
        <ele>644</ele>
        <time>2017-09-05T13:59:28Z</time>
      </trkpt>
      <trkpt lat="43.2873" lon="6.37879">
        <ele>644</ele>
        <time>2017-09-05T13:59:41Z</time>
      </trkpt>
      <trkpt lat="43.28769" lon="6.379">
        <ele>644</ele>
        <time>2017-09-05T13:59:53Z</time>
      </trkpt>
      <trkpt lat="43.28808" lon="6.37922">
        <ele>646</ele>
        <time>2017-09-05T14:00:06Z</time>
      </trkpt>
      <trkpt lat="43.28848" lon="6.37944">
        <ele>648</ele>
        <time>2017-09-05T14:00:17Z</time>
      </trkpt>
      <trkpt lat="43.28885" lon="6.37963">
        <ele>648</ele>
        <time>2017-09-05T14:00:27Z</time>
      </trkpt>
      <trkpt lat="43.28918" lon="6.37988">
        <ele>647</ele>
        <time>2017-09-05T14:00:42Z</time>
      </trkpt>
      <trkpt lat="43.28952" lon="6.3803">
        <ele>648</ele>
        <time>2017-09-05T14:01:32Z</time>
      </trkpt>
      <trkpt lat="43.28974" lon="6.38077">
        <ele>651</ele>
        <time>2017-09-05T14:01:46Z</time>
      </trkpt>
      <trkpt lat="43.28988" lon="6.3813">
        <ele>652</ele>
        <time>2017-09-05T14:02:01Z</time>
      </trkpt>
      <trkpt lat="43.28994" lon="6.38185">
        <ele>652</ele>
        <time>2017-09-05T14:02:15Z</time>
      </trkpt>
      <trkpt lat="43.28998" lon="6.38239">
        <ele>654</ele>
        <time>2017-09-05T14:02:30Z</time>
      </trkpt>
      <trkpt lat="43.28985" lon="6.38292">
        <ele>655</ele>
        <time>2017-09-05T14:02:46Z</time>
      </trkpt>
      <trkpt lat="43.28972" lon="6.38349">
        <ele>656</ele>
        <time>2017-09-05T14:03:03Z</time>
      </trkpt>
      <trkpt lat="43.28966" lon="6.38404">
        <ele>654</ele>
        <time>2017-09-05T14:03:18Z</time>
      </trkpt>
      <trkpt lat="43.28961" lon="6.38461">
        <ele>651</ele>
        <time>2017-09-05T14:03:31Z</time>
      </trkpt>
      <trkpt lat="43.28942" lon="6.38511">
        <ele>652</ele>
        <time>2017-09-05T14:03:42Z</time>
      </trkpt>
      <trkpt lat="43.28904" lon="6.38541">
        <ele>652</ele>
        <time>2017-09-05T14:03:55Z</time>
      </trkpt>
      <trkpt lat="43.2887" lon="6.38573">
        <ele>652</ele>
        <time>2017-09-05T14:04:04Z</time>
      </trkpt>
      <trkpt lat="43.28844" lon="6.38619">
        <ele>652</ele>
        <time>2017-09-05T14:04:14Z</time>
      </trkpt>
      <trkpt lat="43.2883" lon="6.38674">
        <ele>654</ele>
        <time>2017-09-05T14:04:25Z</time>
      </trkpt>
      <trkpt lat="43.28821" lon="6.38728">
        <ele>654</ele>
        <time>2017-09-05T14:04:41Z</time>
      </trkpt>
      <trkpt lat="43.28832" lon="6.38779">
        <ele>653</ele>
        <time>2017-09-05T14:04:56Z</time>
      </trkpt>
      <trkpt lat="43.2886" lon="6.38824">
        <ele>651</ele>
        <time>2017-09-05T14:05:06Z</time>
      </trkpt>
      <trkpt lat="43.28898" lon="6.38849">
        <ele>650</ele>
        <time>2017-09-05T14:05:15Z</time>
      </trkpt>
      <trkpt lat="43.28935" lon="6.3888">
        <ele>649</ele>
        <time>2017-09-05T14:05:23Z</time>
      </trkpt>
      <trkpt lat="43.28962" lon="6.38923">
        <ele>648</ele>
        <time>2017-09-05T14:05:29Z</time>
      </trkpt>
      <trkpt lat="43.28977" lon="6.38977">
        <ele>646</ele>
        <time>2017-09-05T14:05:35Z</time>
      </trkpt>
      <trkpt lat="43.28984" lon="6.39034">
        <ele>644</ele>
        <time>2017-09-05T14:05:41Z</time>
      </trkpt>
      <trkpt lat="43.28995" lon="6.39086">
        <ele>641</ele>
        <time>2017-09-05T14:05:47Z</time>
      </trkpt>
      <trkpt lat="43.29025" lon="6.39128">
        <ele>635</ele>
        <time>2017-09-05T14:05:54Z</time>
      </trkpt>
      <trkpt lat="43.29058" lon="6.39157">
        <ele>631</ele>
        <time>2017-09-05T14:06:00Z</time>
      </trkpt>
      <trkpt lat="43.291" lon="6.39158">
        <ele>631</ele>
        <time>2017-09-05T14:06:07Z</time>
      </trkpt>
      <trkpt lat="43.29144" lon="6.39155">
        <ele>629</ele>
        <time>2017-09-05T14:06:13Z</time>
      </trkpt>
      <trkpt lat="43.29184" lon="6.39165">
        <ele>629</ele>
        <time>2017-09-05T14:06:19Z</time>
      </trkpt>
      <trkpt lat="43.29224" lon="6.39177">
        <ele>629</ele>
        <time>2017-09-05T14:06:28Z</time>
      </trkpt>
      <trkpt lat="43.29256" lon="6.39203">
        <ele>629</ele>
        <time>2017-09-05T14:06:43Z</time>
      </trkpt>
      <trkpt lat="43.29275" lon="6.39253">
        <ele>631</ele>
        <time>2017-09-05T14:07:03Z</time>
      </trkpt>
      <trkpt lat="43.29299" lon="6.39297">
        <ele>634</ele>
        <time>2017-09-05T14:07:25Z</time>
      </trkpt>
      <trkpt lat="43.2934" lon="6.3931">
        <ele>634</ele>
        <time>2017-09-05T14:07:45Z</time>
      </trkpt>
      <trkpt lat="43.29378" lon="6.39326">
        <ele>632</ele>
        <time>2017-09-05T14:08:01Z</time>
      </trkpt>
      <trkpt lat="43.29389" lon="6.3938">
        <ele>634</ele>
        <time>2017-09-05T14:08:17Z</time>
      </trkpt>
      <trkpt lat="43.29392" lon="6.39438">
        <ele>635</ele>
        <time>2017-09-05T14:08:30Z</time>
      </trkpt>
      <trkpt lat="43.29399" lon="6.39498">
        <ele>634</ele>
        <time>2017-09-05T14:08:42Z</time>
      </trkpt>
      <trkpt lat="43.29397" lon="6.39556">
        <ele>634</ele>
        <time>2017-09-05T14:08:52Z</time>
      </trkpt>
      <trkpt lat="43.2941" lon="6.39608">
        <ele>632</ele>
        <time>2017-09-05T14:09:01Z</time>
      </trkpt>
      <trkpt lat="43.29417" lon="6.39661">
        <ele>629</ele>
        <time>2017-09-05T14:09:14Z</time>
      </trkpt>
      <trkpt lat="43.29423" lon="6.39717">
        <ele>629</ele>
        <time>2017-09-05T14:09:27Z</time>
      </trkpt>
      <trkpt lat="43.29439" lon="6.39768">
        <ele>630</ele>
        <time>2017-09-05T14:09:37Z</time>
      </trkpt>
      <trkpt lat="43.29461" lon="6.39813">
        <ele>632</ele>
        <time>2017-09-05T14:09:53Z</time>
      </trkpt>
      <trkpt lat="43.29469" lon="6.39868">
        <ele>635</ele>
        <time>2017-09-05T14:10:27Z</time>
      </trkpt>
      <trkpt lat="43.29481" lon="6.39924">
        <ele>635</ele>
        <time>2017-09-05T14:10:40Z</time>
      </trkpt>
      <trkpt lat="43.29511" lon="6.39967">
        <ele>633</ele>
        <time>2017-09-05T14:10:50Z</time>
      </trkpt>
      <trkpt lat="43.29545" lon="6.39996">
        <ele>630</ele>
        <time>2017-09-05T14:10:59Z</time>
      </trkpt>
      <trkpt lat="43.29582" lon="6.40022">
        <ele>626</ele>
        <time>2017-09-05T14:11:07Z</time>
      </trkpt>
      <trkpt lat="43.29613" lon="6.40066">
        <ele>622</ele>
        <time>2017-09-05T14:11:16Z</time>
      </trkpt>
      <trkpt lat="43.29653" lon="6.40092">
        <ele>621</ele>
        <time>2017-09-05T14:11:23Z</time>
      </trkpt>
      <trkpt lat="43.29694" lon="6.40098">
        <ele>621</ele>
        <time>2017-09-05T14:11:29Z</time>
      </trkpt>
      <trkpt lat="43.29733" lon="6.40111">
        <ele>619</ele>
        <time>2017-09-05T14:11:35Z</time>
      </trkpt>
      <trkpt lat="43.29769" lon="6.40145">
        <ele>617</ele>
        <time>2017-09-05T14:11:41Z</time>
      </trkpt>
      <trkpt lat="43.29786" lon="6.40194">
        <ele>618</ele>
        <time>2017-09-05T14:11:47Z</time>
      </trkpt>
      <trkpt lat="43.298" lon="6.40248">
        <ele>614</ele>
        <time>2017-09-05T14:11:53Z</time>
      </trkpt>
      <trkpt lat="43.29814" lon="6.40305">
        <ele>609</ele>
        <time>2017-09-05T14:11:59Z</time>
      </trkpt>
      <trkpt lat="43.2984" lon="6.40347">
        <ele>605</ele>
        <time>2017-09-05T14:12:05Z</time>
      </trkpt>
      <trkpt lat="43.29882" lon="6.40366">
        <ele>608</ele>
        <time>2017-09-05T14:12:11Z</time>
      </trkpt>
      <trkpt lat="43.29915" lon="6.40396">
        <ele>608</ele>
        <time>2017-09-05T14:12:16Z</time>
      </trkpt>
      <trkpt lat="43.29929" lon="6.40446">
        <ele>603</ele>
        <time>2017-09-05T14:12:22Z</time>
      </trkpt>
      <trkpt lat="43.29918" lon="6.40503">
        <ele>594</ele>
        <time>2017-09-05T14:12:28Z</time>
      </trkpt>
      <trkpt lat="43.2989" lon="6.40548">
        <ele>588</ele>
        <time>2017-09-05T14:12:33Z</time>
      </trkpt>
      <trkpt lat="43.29863" lon="6.40592">
        <ele>586</ele>
        <time>2017-09-05T14:12:38Z</time>
      </trkpt>
      <trkpt lat="43.29855" lon="6.40655">
        <ele>587</ele>
        <time>2017-09-05T14:12:44Z</time>
      </trkpt>
      <trkpt lat="43.2986" lon="6.40714">
        <ele>586</ele>
        <time>2017-09-05T14:12:50Z</time>
      </trkpt>
      <trkpt lat="43.29866" lon="6.4077">
        <ele>582</ele>
        <time>2017-09-05T14:12:56Z</time>
      </trkpt>
      <trkpt lat="43.29858" lon="6.40829">
        <ele>586</ele>
        <time>2017-09-05T14:13:02Z</time>
      </trkpt>
      <trkpt lat="43.29881" lon="6.40869">
        <ele>583</ele>
        <time>2017-09-05T14:13:10Z</time>
      </trkpt>
      <trkpt lat="43.29919" lon="6.40898">
        <ele>572</ele>
        <time>2017-09-05T14:13:19Z</time>
      </trkpt>
      <trkpt lat="43.29919" lon="6.40956">
        <ele>575</ele>
        <time>2017-09-05T14:13:28Z</time>
      </trkpt>
      <trkpt lat="43.29925" lon="6.41015">
        <ele>574</ele>
        <time>2017-09-05T14:13:37Z</time>
      </trkpt>
      <trkpt lat="43.29926" lon="6.41074">
        <ele>574</ele>
        <time>2017-09-05T14:13:45Z</time>
      </trkpt>
      <trkpt lat="43.29936" lon="6.41132">
        <ele>572</ele>
        <time>2017-09-05T14:13:53Z</time>
      </trkpt>
      <trkpt lat="43.29924" lon="6.41184">
        <ele>571</ele>
        <time>2017-09-05T14:14:02Z</time>
      </trkpt>
      <trkpt lat="43.2992" lon="6.41238">
        <ele>567</ele>
        <time>2017-09-05T14:14:18Z</time>
      </trkpt>
      <trkpt lat="43.29919" lon="6.41298">
        <ele>571</ele>
        <time>2017-09-05T14:20:02Z</time>
      </trkpt>
      <trkpt lat="43.29909" lon="6.41356">
        <ele>572</ele>
        <time>2017-09-05T14:20:16Z</time>
      </trkpt>
      <trkpt lat="43.29912" lon="6.41411">
        <ele>573</ele>
        <time>2017-09-05T14:20:30Z</time>
      </trkpt>
      <trkpt lat="43.2992" lon="6.41467">
        <ele>572</ele>
        <time>2017-09-05T14:20:48Z</time>
      </trkpt>
      <trkpt lat="43.29934" lon="6.41524">
        <ele>572</ele>
        <time>2017-09-05T14:21:01Z</time>
      </trkpt>
      <trkpt lat="43.29952" lon="6.41576">
        <ele>573</ele>
        <time>2017-09-05T14:21:14Z</time>
      </trkpt>
      <trkpt lat="43.29986" lon="6.41614">
        <ele>574</ele>
        <time>2017-09-05T14:21:25Z</time>
      </trkpt>
      <trkpt lat="43.30026" lon="6.41637">
        <ele>574</ele>
        <time>2017-09-05T14:21:36Z</time>
      </trkpt>
      <trkpt lat="43.30056" lon="6.41669">
        <ele>574</ele>
        <time>2017-09-05T14:21:52Z</time>
      </trkpt>
      <trkpt lat="43.30075" lon="6.41719">
        <ele>575</ele>
        <time>2017-09-05T14:22:07Z</time>
      </trkpt>
      <trkpt lat="43.30093" lon="6.41772">
        <ele>574</ele>
        <time>2017-09-05T14:22:23Z</time>
      </trkpt>
      <trkpt lat="43.30116" lon="6.41819">
        <ele>576</ele>
        <time>2017-09-05T14:22:36Z</time>
      </trkpt>
      <trkpt lat="43.30147" lon="6.41858">
        <ele>576</ele>
        <time>2017-09-05T14:22:47Z</time>
      </trkpt>
      <trkpt lat="43.30178" lon="6.41893">
        <ele>580</ele>
        <time>2017-09-05T14:22:59Z</time>
      </trkpt>
      <trkpt lat="43.30167" lon="6.41938">
        <ele>576</ele>
        <time>2017-09-05T14:23:10Z</time>
      </trkpt>
      <trkpt lat="43.30163" lon="6.41994">
        <ele>569</ele>
        <time>2017-09-05T14:23:20Z</time>
      </trkpt>
      <trkpt lat="43.30186" lon="6.42046">
        <ele>572</ele>
        <time>2017-09-05T14:23:28Z</time>
      </trkpt>
      <trkpt lat="43.30193" lon="6.42108">
        <ele>565</ele>
        <time>2017-09-05T14:23:35Z</time>
      </trkpt>
      <trkpt lat="43.30212" lon="6.42164">
        <ele>563</ele>
        <time>2017-09-05T14:23:41Z</time>
      </trkpt>
      <trkpt lat="43.30233" lon="6.42214">
        <ele>560</ele>
        <time>2017-09-05T14:23:47Z</time>
      </trkpt>
      <trkpt lat="43.30237" lon="6.42269">
        <ele>563</ele>
        <time>2017-09-05T14:23:57Z</time>
      </trkpt>
      <trkpt lat="43.30237" lon="6.42324">
        <ele>566</ele>
        <time>2017-09-05T14:24:17Z</time>
      </trkpt>
      <trkpt lat="43.30231" lon="6.42378">
        <ele>569</ele>
        <time>2017-09-05T14:24:41Z</time>
      </trkpt>
      <trkpt lat="43.30219" lon="6.4243">
        <ele>570</ele>
        <time>2017-09-05T14:25:12Z</time>
      </trkpt>
      <trkpt lat="43.30219" lon="6.42486">
        <ele>572</ele>
        <time>2017-09-05T14:25:36Z</time>
      </trkpt>
      <trkpt lat="43.30236" lon="6.42538">
        <ele>577</ele>
        <time>2017-09-05T14:25:55Z</time>
      </trkpt>
      <trkpt lat="43.30245" lon="6.42594">
        <ele>576</ele>
        <time>2017-09-05T14:26:10Z</time>
      </trkpt>
      <trkpt lat="43.30238" lon="6.42651">
        <ele>577</ele>
        <time>2017-09-05T14:26:23Z</time>
      </trkpt>
      <trkpt lat="43.30231" lon="6.42712">
        <ele>578</ele>
        <time>2017-09-05T14:26:31Z</time>
      </trkpt>
      <trkpt lat="43.30241" lon="6.42766">
        <ele>575</ele>
        <time>2017-09-05T14:26:38Z</time>
      </trkpt>
      <trkpt lat="43.30255" lon="6.42817">
        <ele>573</ele>
        <time>2017-09-05T14:26:45Z</time>
      </trkpt>
      <trkpt lat="43.30263" lon="6.42875">
        <ele>576</ele>
        <time>2017-09-05T14:26:53Z</time>
      </trkpt>
      <trkpt lat="43.30285" lon="6.42923">
        <ele>574</ele>
        <time>2017-09-05T14:27:01Z</time>
      </trkpt>
      <trkpt lat="43.3031" lon="6.42968">
        <ele>566</ele>
        <time>2017-09-05T14:27:08Z</time>
      </trkpt>
      <trkpt lat="43.30288" lon="6.43016">
        <ele>564</ele>
        <time>2017-09-05T14:27:16Z</time>
      </trkpt>
      <trkpt lat="43.30256" lon="6.43053">
        <ele>565</ele>
        <time>2017-09-05T14:27:23Z</time>
      </trkpt>
      <trkpt lat="43.30225" lon="6.43092">
        <ele>563</ele>
        <time>2017-09-05T14:27:29Z</time>
      </trkpt>
      <trkpt lat="43.30203" lon="6.43145">
        <ele>558</ele>
        <time>2017-09-05T14:27:35Z</time>
      </trkpt>
      <trkpt lat="43.30168" lon="6.43187">
        <ele>558</ele>
        <time>2017-09-05T14:27:41Z</time>
      </trkpt>
      <trkpt lat="43.30139" lon="6.43233">
        <ele>554</ele>
        <time>2017-09-05T14:27:47Z</time>
      </trkpt>
      <trkpt lat="43.30131" lon="6.43293">
        <ele>548</ele>
        <time>2017-09-05T14:27:53Z</time>
      </trkpt>
      <trkpt lat="43.30111" lon="6.43342">
        <ele>545</ele>
        <time>2017-09-05T14:27:58Z</time>
      </trkpt>
      <trkpt lat="43.30101" lon="6.43398">
        <ele>540</ele>
        <time>2017-09-05T14:28:03Z</time>
      </trkpt>
      <trkpt lat="43.30082" lon="6.43445">
        <ele>540</ele>
        <time>2017-09-05T14:28:08Z</time>
      </trkpt>
      <trkpt lat="43.30069" lon="6.43506">
        <ele>542</ele>
        <time>2017-09-05T14:28:14Z</time>
      </trkpt>
      <trkpt lat="43.30059" lon="6.43568">
        <ele>542</ele>
        <time>2017-09-05T14:28:20Z</time>
      </trkpt>
      <trkpt lat="43.30049" lon="6.43626">
        <ele>542</ele>
        <time>2017-09-05T14:28:26Z</time>
      </trkpt>
      <trkpt lat="43.30039" lon="6.43676">
        <ele>542</ele>
        <time>2017-09-05T14:28:40Z</time>
      </trkpt>
      <trkpt lat="43.30028" lon="6.43727">
        <ele>545</ele>
        <time>2017-09-05T14:29:10Z</time>
      </trkpt>
      <trkpt lat="43.30016" lon="6.43798">
        <ele>552</ele>
        <time>2017-09-05T14:30:11Z</time>
      </trkpt>
      <trkpt lat="43.30006" lon="6.43854">
        <ele>559</ele>
        <time>2017-09-05T14:30:44Z</time>
      </trkpt>
      <trkpt lat="43.29995" lon="6.43911">
        <ele>564</ele>
        <time>2017-09-05T14:31:16Z</time>
      </trkpt>
      <trkpt lat="43.29975" lon="6.4396">
        <ele>567</ele>
        <time>2017-09-05T14:31:50Z</time>
      </trkpt>
      <trkpt lat="43.29958" lon="6.44011">
        <ele>571</ele>
        <time>2017-09-05T14:32:23Z</time>
      </trkpt>
      <trkpt lat="43.29939" lon="6.44063">
        <ele>574</ele>
        <time>2017-09-05T14:32:54Z</time>
      </trkpt>
      <trkpt lat="43.29919" lon="6.44113">
        <ele>573</ele>
        <time>2017-09-05T14:33:24Z</time>
      </trkpt>
      <trkpt lat="43.29917" lon="6.44168">
        <ele>575</ele>
        <time>2017-09-05T14:33:51Z</time>
      </trkpt>
      <trkpt lat="43.29931" lon="6.44223">
        <ele>577</ele>
        <time>2017-09-05T14:34:12Z</time>
      </trkpt>
      <trkpt lat="43.2993" lon="6.44282">
        <ele>575</ele>
        <time>2017-09-05T14:34:24Z</time>
      </trkpt>
      <trkpt lat="43.29929" lon="6.44338">
        <ele>573</ele>
        <time>2017-09-05T14:34:36Z</time>
      </trkpt>
      <trkpt lat="43.29928" lon="6.44402">
        <ele>572</ele>
        <time>2017-09-05T14:34:44Z</time>
      </trkpt>
      <trkpt lat="43.29922" lon="6.44456">
        <ele>568</ele>
        <time>2017-09-05T14:34:52Z</time>
      </trkpt>
      <trkpt lat="43.29911" lon="6.4451">
        <ele>565</ele>
        <time>2017-09-05T14:35:04Z</time>
      </trkpt>
      <trkpt lat="43.29908" lon="6.44568">
        <ele>566</ele>
        <time>2017-09-05T14:35:12Z</time>
      </trkpt>
      <trkpt lat="43.29907" lon="6.44625">
        <ele>568</ele>
        <time>2017-09-05T14:35:22Z</time>
      </trkpt>
      <trkpt lat="43.29925" lon="6.44675">
        <ele>571</ele>
        <time>2017-09-05T14:35:37Z</time>
      </trkpt>
      <trkpt lat="43.29951" lon="6.44721">
        <ele>572</ele>
        <time>2017-09-05T14:35:47Z</time>
      </trkpt>
      <trkpt lat="43.29978" lon="6.44762">
        <ele>572</ele>
        <time>2017-09-05T14:35:57Z</time>
      </trkpt>
      <trkpt lat="43.29973" lon="6.44826">
        <ele>570</ele>
        <time>2017-09-05T14:36:06Z</time>
      </trkpt>
      <trkpt lat="43.29959" lon="6.44886">
        <ele>567</ele>
        <time>2017-09-05T14:36:13Z</time>
      </trkpt>
      <trkpt lat="43.29938" lon="6.44943">
        <ele>561</ele>
        <time>2017-09-05T14:36:19Z</time>
      </trkpt>
      <trkpt lat="43.29922" lon="6.44996">
        <ele>561</ele>
        <time>2017-09-05T14:36:25Z</time>
      </trkpt>
      <trkpt lat="43.2994" lon="6.45041">
        <ele>562</ele>
        <time>2017-09-05T14:36:33Z</time>
      </trkpt>
      <trkpt lat="43.29971" lon="6.45081">
        <ele>562</ele>
        <time>2017-09-05T14:36:40Z</time>
      </trkpt>
      <trkpt lat="43.30011" lon="6.45098">
        <ele>555</ele>
        <time>2017-09-05T14:36:46Z</time>
      </trkpt>
      <trkpt lat="43.30044" lon="6.45127">
        <ele>559</ele>
        <time>2017-09-05T14:36:53Z</time>
      </trkpt>
      <trkpt lat="43.30081" lon="6.45135">
        <ele>551</ele>
        <time>2017-09-05T14:37:00Z</time>
      </trkpt>
      <trkpt lat="43.30114" lon="6.45169">
        <ele>553</ele>
        <time>2017-09-05T14:37:07Z</time>
      </trkpt>
      <trkpt lat="43.30155" lon="6.45191">
        <ele>547</ele>
        <time>2017-09-05T14:37:14Z</time>
      </trkpt>
      <trkpt lat="43.30179" lon="6.45237">
        <ele>548</ele>
        <time>2017-09-05T14:37:20Z</time>
      </trkpt>
      <trkpt lat="43.30215" lon="6.45274">
        <ele>546</ele>
        <time>2017-09-05T14:37:26Z</time>
      </trkpt>
      <trkpt lat="43.30257" lon="6.45288">
        <ele>540</ele>
        <time>2017-09-05T14:37:32Z</time>
      </trkpt>
      <trkpt lat="43.30279" lon="6.45334">
        <ele>538</ele>
        <time>2017-09-05T14:37:40Z</time>
      </trkpt>
      <trkpt lat="43.30265" lon="6.45392">
        <ele>539</ele>
        <time>2017-09-05T14:37:50Z</time>
      </trkpt>
      <trkpt lat="43.30289" lon="6.45432">
        <ele>539</ele>
        <time>2017-09-05T14:37:58Z</time>
      </trkpt>
      <trkpt lat="43.30327" lon="6.45437">
        <ele>538</ele>
        <time>2017-09-05T14:38:05Z</time>
      </trkpt>
      <trkpt lat="43.30361" lon="6.45407">
        <ele>535</ele>
        <time>2017-09-05T14:38:11Z</time>
      </trkpt>
      <trkpt lat="43.304" lon="6.45389">
        <ele>536</ele>
        <time>2017-09-05T14:38:17Z</time>
      </trkpt>
      <trkpt lat="43.30429" lon="6.45344">
        <ele>531</ele>
        <time>2017-09-05T14:38:23Z</time>
      </trkpt>
      <trkpt lat="43.30458" lon="6.45298">
        <ele>527</ele>
        <time>2017-09-05T14:38:28Z</time>
      </trkpt>
      <trkpt lat="43.30492" lon="6.45254">
        <ele>528</ele>
        <time>2017-09-05T14:38:33Z</time>
      </trkpt>
      <trkpt lat="43.30516" lon="6.45206">
        <ele>527</ele>
        <time>2017-09-05T14:38:38Z</time>
      </trkpt>
      <trkpt lat="43.30527" lon="6.45148">
        <ele>523</ele>
        <time>2017-09-05T14:38:45Z</time>
      </trkpt>
      <trkpt lat="43.30559" lon="6.45113">
        <ele>522</ele>
        <time>2017-09-05T14:38:51Z</time>
      </trkpt>
      <trkpt lat="43.3059" lon="6.4508">
        <ele>519</ele>
        <time>2017-09-05T14:38:56Z</time>
      </trkpt>
      <trkpt lat="43.3062" lon="6.45033">
        <ele>512</ele>
        <time>2017-09-05T14:39:02Z</time>
      </trkpt>
      <trkpt lat="43.30663" lon="6.45026">
        <ele>512</ele>
        <time>2017-09-05T14:39:09Z</time>
      </trkpt>
      <trkpt lat="43.3071" lon="6.45024">
        <ele>513</ele>
        <time>2017-09-05T14:39:15Z</time>
      </trkpt>
      <trkpt lat="43.30746" lon="6.44994">
        <ele>508</ele>
        <time>2017-09-05T14:39:20Z</time>
      </trkpt>
      <trkpt lat="43.30792" lon="6.44976">
        <ele>503</ele>
        <time>2017-09-05T14:39:25Z</time>
      </trkpt>
      <trkpt lat="43.3083" lon="6.44992">
        <ele>503</ele>
        <time>2017-09-05T14:39:31Z</time>
      </trkpt>
      <trkpt lat="43.30828" lon="6.45044">
        <ele>503</ele>
        <time>2017-09-05T14:39:45Z</time>
      </trkpt>
      <trkpt lat="43.30801" lon="6.45087">
        <ele>509</ele>
        <time>2017-09-05T14:40:07Z</time>
      </trkpt>
      <trkpt lat="43.30782" lon="6.4514">
        <ele>511</ele>
        <time>2017-09-05T14:40:38Z</time>
      </trkpt>
      <trkpt lat="43.30773" lon="6.45204">
        <ele>510</ele>
        <time>2017-09-05T14:40:56Z</time>
      </trkpt>
      <trkpt lat="43.30763" lon="6.45262">
        <ele>506</ele>
        <time>2017-09-05T14:41:11Z</time>
      </trkpt>
      <trkpt lat="43.30724" lon="6.45291">
        <ele>510</ele>
        <time>2017-09-05T14:41:24Z</time>
      </trkpt>
      <trkpt lat="43.30708" lon="6.45344">
        <ele>506</ele>
        <time>2017-09-05T14:41:37Z</time>
      </trkpt>
      <trkpt lat="43.30685" lon="6.45399">
        <ele>507</ele>
        <time>2017-09-05T14:41:53Z</time>
      </trkpt>
      <trkpt lat="43.30678" lon="6.45458">
        <ele>505</ele>
        <time>2017-09-05T14:42:04Z</time>
      </trkpt>
      <trkpt lat="43.30659" lon="6.45513">
        <ele>506</ele>
        <time>2017-09-05T14:42:13Z</time>
      </trkpt>
      <trkpt lat="43.30634" lon="6.45566">
        <ele>509</ele>
        <time>2017-09-05T14:42:30Z</time>
      </trkpt>
      <trkpt lat="43.30613" lon="6.4562">
        <ele>511</ele>
        <time>2017-09-05T14:42:54Z</time>
      </trkpt>
      <trkpt lat="43.30599" lon="6.45673">
        <ele>512</ele>
        <time>2017-09-05T14:43:15Z</time>
      </trkpt>
      <trkpt lat="43.3058" lon="6.45731">
        <ele>512</ele>
        <time>2017-09-05T14:43:29Z</time>
      </trkpt>
      <trkpt lat="43.3057" lon="6.45787">
        <ele>503</ele>
        <time>2017-09-05T14:43:36Z</time>
      </trkpt>
      <trkpt lat="43.30533" lon="6.45817">
        <ele>509</ele>
        <time>2017-09-05T14:43:43Z</time>
      </trkpt>
      <trkpt lat="43.3052" lon="6.45864">
        <ele>508</ele>
        <time>2017-09-05T14:43:51Z</time>
      </trkpt>
      <trkpt lat="43.30536" lon="6.45913">
        <ele>504</ele>
        <time>2017-09-05T14:43:59Z</time>
      </trkpt>
      <trkpt lat="43.3053" lon="6.45969">
        <ele>504</ele>
        <time>2017-09-05T14:44:09Z</time>
      </trkpt>
      <trkpt lat="43.30519" lon="6.46024">
        <ele>506</ele>
        <time>2017-09-05T14:44:20Z</time>
      </trkpt>
      <trkpt lat="43.30563" lon="6.4604">
        <ele>502</ele>
        <time>2017-09-05T14:44:33Z</time>
      </trkpt>
      <trkpt lat="43.30604" lon="6.4605">
        <ele>501</ele>
        <time>2017-09-05T14:44:44Z</time>
      </trkpt>
      <trkpt lat="43.30634" lon="6.46084">
        <ele>502</ele>
        <time>2017-09-05T14:44:54Z</time>
      </trkpt>
      <trkpt lat="43.30661" lon="6.46123">
        <ele>506</ele>
        <time>2017-09-05T14:45:07Z</time>
      </trkpt>
      <trkpt lat="43.30701" lon="6.46121">
        <ele>499</ele>
        <time>2017-09-05T14:45:17Z</time>
      </trkpt>
      <trkpt lat="43.3072" lon="6.46172">
        <ele>503</ele>
        <time>2017-09-05T14:45:27Z</time>
      </trkpt>
      <trkpt lat="43.30737" lon="6.46223">
        <ele>503</ele>
        <time>2017-09-05T14:45:36Z</time>
      </trkpt>
      <trkpt lat="43.30767" lon="6.46273">
        <ele>499</ele>
        <time>2017-09-05T14:45:43Z</time>
      </trkpt>
      <trkpt lat="43.308" lon="6.46317">
        <ele>494</ele>
        <time>2017-09-05T14:45:49Z</time>
      </trkpt>
      <trkpt lat="43.30833" lon="6.46354">
        <ele>492</ele>
        <time>2017-09-05T14:45:55Z</time>
      </trkpt>
      <trkpt lat="43.30874" lon="6.46361">
        <ele>488</ele>
        <time>2017-09-05T14:46:01Z</time>
      </trkpt>
      <trkpt lat="43.30913" lon="6.46388">
        <ele>488</ele>
        <time>2017-09-05T14:46:08Z</time>
      </trkpt>
      <trkpt lat="43.30948" lon="6.4642">
        <ele>488</ele>
        <time>2017-09-05T14:46:14Z</time>
      </trkpt>
      <trkpt lat="43.30987" lon="6.46445">
        <ele>488</ele>
        <time>2017-09-05T14:46:20Z</time>
      </trkpt>
      <trkpt lat="43.31026" lon="6.4645">
        <ele>482</ele>
        <time>2017-09-05T14:46:27Z</time>
      </trkpt>
      <trkpt lat="43.31063" lon="6.46485">
        <ele>485</ele>
        <time>2017-09-05T14:46:34Z</time>
      </trkpt>
      <trkpt lat="43.31103" lon="6.46492">
        <ele>484</ele>
        <time>2017-09-05T14:46:40Z</time>
      </trkpt>
      <trkpt lat="43.31146" lon="6.46475">
        <ele>483</ele>
        <time>2017-09-05T14:46:47Z</time>
      </trkpt>
      <trkpt lat="43.31178" lon="6.46436">
        <ele>480</ele>
        <time>2017-09-05T14:46:54Z</time>
      </trkpt>
      <trkpt lat="43.31208" lon="6.4639">
        <ele>479</ele>
        <time>2017-09-05T14:47:01Z</time>
      </trkpt>
      <trkpt lat="43.3122" lon="6.46337">
        <ele>469</ele>
        <time>2017-09-05T14:47:07Z</time>
      </trkpt>
      <trkpt lat="43.31252" lon="6.46313">
        <ele>464</ele>
        <time>2017-09-05T14:47:15Z</time>
      </trkpt>
      <trkpt lat="43.31295" lon="6.46342">
        <ele>461</ele>
        <time>2017-09-05T14:47:21Z</time>
      </trkpt>
      <trkpt lat="43.31334" lon="6.46373">
        <ele>461</ele>
        <time>2017-09-05T14:47:26Z</time>
      </trkpt>
      <trkpt lat="43.31373" lon="6.46381">
        <ele>460</ele>
        <time>2017-09-05T14:47:32Z</time>
      </trkpt>
      <trkpt lat="43.31412" lon="6.46359">
        <ele>455</ele>
        <time>2017-09-05T14:47:38Z</time>
      </trkpt>
      <trkpt lat="43.31452" lon="6.46343">
        <ele>453</ele>
        <time>2017-09-05T14:47:43Z</time>
      </trkpt>
      <trkpt lat="43.31498" lon="6.46328">
        <ele>449</ele>
        <time>2017-09-05T14:47:49Z</time>
      </trkpt>
      <trkpt lat="43.31541" lon="6.46319">
        <ele>443</ele>
        <time>2017-09-05T14:47:55Z</time>
      </trkpt>
      <trkpt lat="43.31568" lon="6.46357">
        <ele>443</ele>
        <time>2017-09-05T14:48:02Z</time>
      </trkpt>
      <trkpt lat="43.31589" lon="6.46405">
        <ele>442</ele>
        <time>2017-09-05T14:48:08Z</time>
      </trkpt>
      <trkpt lat="43.31611" lon="6.4645">
        <ele>439</ele>
        <time>2017-09-05T14:48:13Z</time>
      </trkpt>
      <trkpt lat="43.31636" lon="6.46494">
        <ele>434</ele>
        <time>2017-09-05T14:48:19Z</time>
      </trkpt>
      <trkpt lat="43.31617" lon="6.46538">
        <ele>435</ele>
        <time>2017-09-05T14:48:27Z</time>
      </trkpt>
      <trkpt lat="43.31577" lon="6.46561">
        <ele>437</ele>
        <time>2017-09-05T14:48:37Z</time>
      </trkpt>
      <trkpt lat="43.31554" lon="6.46612">
        <ele>431</ele>
        <time>2017-09-05T14:48:46Z</time>
      </trkpt>
      <trkpt lat="43.31522" lon="6.46652">
        <ele>429</ele>
        <time>2017-09-05T14:48:54Z</time>
      </trkpt>
      <trkpt lat="43.31481" lon="6.46673">
        <ele>429</ele>
        <time>2017-09-05T14:49:01Z</time>
      </trkpt>
      <trkpt lat="43.31437" lon="6.46699">
        <ele>426</ele>
        <time>2017-09-05T14:49:07Z</time>
      </trkpt>
      <trkpt lat="43.314" lon="6.46729">
        <ele>423</ele>
        <time>2017-09-05T14:49:12Z</time>
      </trkpt>
      <trkpt lat="43.31368" lon="6.46765">
        <ele>419</ele>
        <time>2017-09-05T14:49:17Z</time>
      </trkpt>
      <trkpt lat="43.31332" lon="6.46795">
        <ele>417</ele>
        <time>2017-09-05T14:49:22Z</time>
      </trkpt>
      <trkpt lat="43.31286" lon="6.46825">
        <ele>411</ele>
        <time>2017-09-05T14:49:28Z</time>
      </trkpt>
      <trkpt lat="43.31242" lon="6.46839">
        <ele>408</ele>
        <time>2017-09-05T14:49:33Z</time>
      </trkpt>
      <trkpt lat="43.31198" lon="6.46832">
        <ele>409</ele>
        <time>2017-09-05T14:49:39Z</time>
      </trkpt>
      <trkpt lat="43.31215" lon="6.46868">
        <ele>399</ele>
        <time>2017-09-05T14:49:48Z</time>
      </trkpt>
      <trkpt lat="43.31253" lon="6.46895">
        <ele>392</ele>
        <time>2017-09-05T14:49:55Z</time>
      </trkpt>
      <trkpt lat="43.31303" lon="6.46899">
        <ele>390</ele>
        <time>2017-09-05T14:50:01Z</time>
      </trkpt>
      <trkpt lat="43.31347" lon="6.4689">
        <ele>388</ele>
        <time>2017-09-05T14:50:06Z</time>
      </trkpt>
      <trkpt lat="43.3139" lon="6.46876">
        <ele>387</ele>
        <time>2017-09-05T14:50:13Z</time>
      </trkpt>
      <trkpt lat="43.31435" lon="6.4689">
        <ele>379</ele>
        <time>2017-09-05T14:50:19Z</time>
      </trkpt>
      <trkpt lat="43.31481" lon="6.46896">
        <ele>374</ele>
        <time>2017-09-05T14:50:24Z</time>
      </trkpt>
      <trkpt lat="43.31497" lon="6.46936">
        <ele>367</ele>
        <time>2017-09-05T14:50:34Z</time>
      </trkpt>
      <trkpt lat="43.31483" lon="6.4699">
        <ele>361</ele>
        <time>2017-09-05T14:50:40Z</time>
      </trkpt>
      <trkpt lat="43.31473" lon="6.4705">
        <ele>354</ele>
        <time>2017-09-05T14:50:49Z</time>
      </trkpt>
      <trkpt lat="43.31453" lon="6.47099">
        <ele>351</ele>
        <time>2017-09-05T14:50:59Z</time>
      </trkpt>
      <trkpt lat="43.31421" lon="6.47122">
        <ele>352</ele>
        <time>2017-09-05T14:51:11Z</time>
      </trkpt>
      <trkpt lat="43.31376" lon="6.47131">
        <ele>353</ele>
        <time>2017-09-05T14:51:22Z</time>
      </trkpt>
      <trkpt lat="43.31331" lon="6.47143">
        <ele>351</ele>
        <time>2017-09-05T14:51:31Z</time>
      </trkpt>
      <trkpt lat="43.31288" lon="6.47145">
        <ele>345</ele>
        <time>2017-09-05T14:51:39Z</time>
      </trkpt>
      <trkpt lat="43.3125" lon="6.47124">
        <ele>340</ele>
        <time>2017-09-05T14:52:30Z</time>
      </trkpt>
      <trkpt lat="43.31278" lon="6.47139">
        <ele>343</ele>
        <time>2017-09-05T14:58:50Z</time>
      </trkpt>
      <trkpt lat="43.31244" lon="6.47104">
        <ele>344</ele>
        <time>2017-09-05T14:59:44Z</time>
      </trkpt>
      <trkpt lat="43.31204" lon="6.47084">
        <ele>343</ele>
        <time>2017-09-05T14:59:54Z</time>
      </trkpt>
      <trkpt lat="43.31165" lon="6.47066">
        <ele>342</ele>
        <time>2017-09-05T15:00:02Z</time>
      </trkpt>
      <trkpt lat="43.31124" lon="6.47055">
        <ele>341</ele>
        <time>2017-09-05T15:00:10Z</time>
      </trkpt>
      <trkpt lat="43.31084" lon="6.47047">
        <ele>338</ele>
        <time>2017-09-05T15:00:17Z</time>
      </trkpt>
      <trkpt lat="43.31039" lon="6.4704">
        <ele>335</ele>
        <time>2017-09-05T15:00:24Z</time>
      </trkpt>
      <trkpt lat="43.30998" lon="6.47033">
        <ele>335</ele>
        <time>2017-09-05T15:00:30Z</time>
      </trkpt>
      <trkpt lat="43.30959" lon="6.47026">
        <ele>333</ele>
        <time>2017-09-05T15:00:36Z</time>
      </trkpt>
      <trkpt lat="43.30919" lon="6.4702">
        <ele>332</ele>
        <time>2017-09-05T15:00:42Z</time>
      </trkpt>
      <trkpt lat="43.30878" lon="6.47007">
        <ele>329</ele>
        <time>2017-09-05T15:00:48Z</time>
      </trkpt>
      <trkpt lat="43.30842" lon="6.46974">
        <ele>328</ele>
        <time>2017-09-05T15:00:54Z</time>
      </trkpt>
      <trkpt lat="43.30814" lon="6.46931">
        <ele>327</ele>
        <time>2017-09-05T15:01:00Z</time>
      </trkpt>
      <trkpt lat="43.30781" lon="6.4689">
        <ele>327</ele>
        <time>2017-09-05T15:01:07Z</time>
      </trkpt>
      <trkpt lat="43.30738" lon="6.46875">
        <ele>324</ele>
        <time>2017-09-05T15:01:14Z</time>
      </trkpt>
      <trkpt lat="43.30699" lon="6.46864">
        <ele>322</ele>
        <time>2017-09-05T15:01:20Z</time>
      </trkpt>
      <trkpt lat="43.30656" lon="6.46852">
        <ele>322</ele>
        <time>2017-09-05T15:01:27Z</time>
      </trkpt>
      <trkpt lat="43.30616" lon="6.4687">
        <ele>321</ele>
        <time>2017-09-05T15:01:34Z</time>
      </trkpt>
      <trkpt lat="43.30582" lon="6.46906">
        <ele>316</ele>
        <time>2017-09-05T15:01:41Z</time>
      </trkpt>
      <trkpt lat="43.30544" lon="6.4692">
        <ele>317</ele>
        <time>2017-09-05T15:01:48Z</time>
      </trkpt>
      <trkpt lat="43.30503" lon="6.46933">
        <ele>317</ele>
        <time>2017-09-05T15:01:56Z</time>
      </trkpt>
      <trkpt lat="43.30478" lon="6.46981">
        <ele>313</ele>
        <time>2017-09-05T15:02:04Z</time>
      </trkpt>
      <trkpt lat="43.30448" lon="6.47021">
        <ele>311</ele>
        <time>2017-09-05T15:02:11Z</time>
      </trkpt>
      <trkpt lat="43.30405" lon="6.47039">
        <ele>310</ele>
        <time>2017-09-05T15:02:18Z</time>
      </trkpt>
      <trkpt lat="43.30389" lon="6.47093">
        <ele>308</ele>
        <time>2017-09-05T15:02:25Z</time>
      </trkpt>
      <trkpt lat="43.30408" lon="6.47141">
        <ele>304</ele>
        <time>2017-09-05T15:02:31Z</time>
      </trkpt>
      <trkpt lat="43.30425" lon="6.4719">
        <ele>303</ele>
        <time>2017-09-05T15:02:37Z</time>
      </trkpt>
      <trkpt lat="43.30435" lon="6.47249">
        <ele>301</ele>
        <time>2017-09-05T15:02:44Z</time>
      </trkpt>
      <trkpt lat="43.30433" lon="6.47306">
        <ele>300</ele>
        <time>2017-09-05T15:02:51Z</time>
      </trkpt>
      <trkpt lat="43.30422" lon="6.47359">
        <ele>299</ele>
        <time>2017-09-05T15:02:58Z</time>
      </trkpt>
      <trkpt lat="43.3039" lon="6.47406">
        <ele>299</ele>
        <time>2017-09-05T15:03:06Z</time>
      </trkpt>
      <trkpt lat="43.30351" lon="6.47435">
        <ele>299</ele>
        <time>2017-09-05T15:03:13Z</time>
      </trkpt>
      <trkpt lat="43.30314" lon="6.47462">
        <ele>296</ele>
        <time>2017-09-05T15:03:19Z</time>
      </trkpt>
      <trkpt lat="43.30275" lon="6.47491">
        <ele>293</ele>
        <time>2017-09-05T15:03:25Z</time>
      </trkpt>
      <trkpt lat="43.30233" lon="6.47504">
        <ele>293</ele>
        <time>2017-09-05T15:03:31Z</time>
      </trkpt>
      <trkpt lat="43.30187" lon="6.47512">
        <ele>295</ele>
        <time>2017-09-05T15:03:38Z</time>
      </trkpt>
      <trkpt lat="43.30145" lon="6.47537">
        <ele>292</ele>
        <time>2017-09-05T15:03:45Z</time>
      </trkpt>
      <trkpt lat="43.30104" lon="6.47552">
        <ele>288</ele>
        <time>2017-09-05T15:03:52Z</time>
      </trkpt>
      <trkpt lat="43.30072" lon="6.47513">
        <ele>291</ele>
        <time>2017-09-05T15:04:01Z</time>
      </trkpt>
      <trkpt lat="43.30039" lon="6.47481">
        <ele>295</ele>
        <time>2017-09-05T15:04:10Z</time>
      </trkpt>
      <trkpt lat="43.3" lon="6.47503">
        <ele>289</ele>
        <time>2017-09-05T15:04:18Z</time>
      </trkpt>
      <trkpt lat="43.2996" lon="6.47505">
        <ele>289</ele>
        <time>2017-09-05T15:04:25Z</time>
      </trkpt>
      <trkpt lat="43.2992" lon="6.475">
        <ele>288</ele>
        <time>2017-09-05T15:04:32Z</time>
      </trkpt>
      <trkpt lat="43.29897" lon="6.47544">
        <ele>286</ele>
        <time>2017-09-05T15:04:39Z</time>
      </trkpt>
      <trkpt lat="43.29918" lon="6.4759">
        <ele>285</ele>
        <time>2017-09-05T15:04:45Z</time>
      </trkpt>
      <trkpt lat="43.2996" lon="6.47617">
        <ele>281</ele>
        <time>2017-09-05T15:04:51Z</time>
      </trkpt>
      <trkpt lat="43.2999" lon="6.47656">
        <ele>278</ele>
        <time>2017-09-05T15:04:56Z</time>
      </trkpt>
      <trkpt lat="43.30007" lon="6.47712">
        <ele>276</ele>
        <time>2017-09-05T15:05:01Z</time>
      </trkpt>
      <trkpt lat="43.30022" lon="6.47767">
        <ele>274</ele>
        <time>2017-09-05T15:05:06Z</time>
      </trkpt>
      <trkpt lat="43.30032" lon="6.47825">
        <ele>272</ele>
        <time>2017-09-05T15:05:11Z</time>
      </trkpt>
      <trkpt lat="43.3001" lon="6.47878">
        <ele>271</ele>
        <time>2017-09-05T15:05:17Z</time>
      </trkpt>
      <trkpt lat="43.29978" lon="6.47919">
        <ele>269</ele>
        <time>2017-09-05T15:05:23Z</time>
      </trkpt>
      <trkpt lat="43.29975" lon="6.47973">
        <ele>268</ele>
        <time>2017-09-05T15:05:29Z</time>
      </trkpt>
      <trkpt lat="43.30004" lon="6.48012">
        <ele>267</ele>
        <time>2017-09-05T15:05:35Z</time>
      </trkpt>
      <trkpt lat="43.30036" lon="6.48047">
        <ele>265</ele>
        <time>2017-09-05T15:05:41Z</time>
      </trkpt>
      <trkpt lat="43.30074" lon="6.48072">
        <ele>261</ele>
        <time>2017-09-05T15:05:47Z</time>
      </trkpt>
      <trkpt lat="43.30116" lon="6.48082">
        <ele>258</ele>
        <time>2017-09-05T15:05:53Z</time>
      </trkpt>
      <trkpt lat="43.30148" lon="6.48122">
        <ele>257</ele>
        <time>2017-09-05T15:06:00Z</time>
      </trkpt>
      <trkpt lat="43.3015" lon="6.48179">
        <ele>256</ele>
        <time>2017-09-05T15:06:06Z</time>
      </trkpt>
      <trkpt lat="43.3016" lon="6.48233">
        <ele>255</ele>
        <time>2017-09-05T15:06:12Z</time>
      </trkpt>
      <trkpt lat="43.30192" lon="6.48273">
        <ele>254</ele>
        <time>2017-09-05T15:06:18Z</time>
      </trkpt>
      <trkpt lat="43.30234" lon="6.48299">
        <ele>252</ele>
        <time>2017-09-05T15:06:24Z</time>
      </trkpt>
      <trkpt lat="43.30272" lon="6.48322">
        <ele>251</ele>
        <time>2017-09-05T15:06:29Z</time>
      </trkpt>
      <trkpt lat="43.30295" lon="6.48365">
        <ele>248</ele>
        <time>2017-09-05T15:06:35Z</time>
      </trkpt>
      <trkpt lat="43.30275" lon="6.48421">
        <ele>247</ele>
        <time>2017-09-05T15:06:42Z</time>
      </trkpt>
      <trkpt lat="43.3024" lon="6.48462">
        <ele>247</ele>
        <time>2017-09-05T15:06:49Z</time>
      </trkpt>
      <trkpt lat="43.30209" lon="6.48504">
        <ele>249</ele>
        <time>2017-09-05T15:06:56Z</time>
      </trkpt>
      <trkpt lat="43.30202" lon="6.48557">
        <ele>245</ele>
        <time>2017-09-05T15:07:03Z</time>
      </trkpt>
      <trkpt lat="43.30207" lon="6.48617">
        <ele>240</ele>
        <time>2017-09-05T15:07:10Z</time>
      </trkpt>
      <trkpt lat="43.30208" lon="6.48677">
        <ele>236</ele>
        <time>2017-09-05T15:07:17Z</time>
      </trkpt>
      <trkpt lat="43.30188" lon="6.48731">
        <ele>234</ele>
        <time>2017-09-05T15:07:24Z</time>
      </trkpt>
      <trkpt lat="43.30158" lon="6.48777">
        <ele>233</ele>
        <time>2017-09-05T15:07:31Z</time>
      </trkpt>
      <trkpt lat="43.30129" lon="6.48826">
        <ele>232</ele>
        <time>2017-09-05T15:07:38Z</time>
      </trkpt>
      <trkpt lat="43.30123" lon="6.48879">
        <ele>236</ele>
        <time>2017-09-05T15:07:44Z</time>
      </trkpt>
      <trkpt lat="43.30127" lon="6.48942">
        <ele>230</ele>
        <time>2017-09-05T15:07:51Z</time>
      </trkpt>
      <trkpt lat="43.30103" lon="6.48993">
        <ele>225</ele>
        <time>2017-09-05T15:07:58Z</time>
      </trkpt>
      <trkpt lat="43.30068" lon="6.49018">
        <ele>226</ele>
        <time>2017-09-05T15:08:05Z</time>
      </trkpt>
      <trkpt lat="43.30031" lon="6.49041">
        <ele>226</ele>
        <time>2017-09-05T15:08:11Z</time>
      </trkpt>
      <trkpt lat="43.29994" lon="6.4907">
        <ele>224</ele>
        <time>2017-09-05T15:08:17Z</time>
      </trkpt>
      <trkpt lat="43.29973" lon="6.49115">
        <ele>222</ele>
        <time>2017-09-05T15:08:23Z</time>
      </trkpt>
      <trkpt lat="43.29954" lon="6.49165">
        <ele>219</ele>
        <time>2017-09-05T15:08:29Z</time>
      </trkpt>
      <trkpt lat="43.29923" lon="6.49206">
        <ele>216</ele>
        <time>2017-09-05T15:08:35Z</time>
      </trkpt>
      <trkpt lat="43.29882" lon="6.49228">
        <ele>213</ele>
        <time>2017-09-05T15:08:41Z</time>
      </trkpt>
      <trkpt lat="43.29835" lon="6.49218">
        <ele>212</ele>
        <time>2017-09-05T15:08:47Z</time>
      </trkpt>
      <trkpt lat="43.29802" lon="6.49185">
        <ele>209</ele>
        <time>2017-09-05T15:08:52Z</time>
      </trkpt>
      <trkpt lat="43.29769" lon="6.49149">
        <ele>204</ele>
        <time>2017-09-05T15:08:57Z</time>
      </trkpt>
      <trkpt lat="43.29727" lon="6.49125">
        <ele>201</ele>
        <time>2017-09-05T15:09:03Z</time>
      </trkpt>
      <trkpt lat="43.29685" lon="6.49146">
        <ele>200</ele>
        <time>2017-09-05T15:09:09Z</time>
      </trkpt>
      <trkpt lat="43.29649" lon="6.49167">
        <ele>200</ele>
        <time>2017-09-05T15:09:14Z</time>
      </trkpt>
      <trkpt lat="43.29607" lon="6.49164">
        <ele>199</ele>
        <time>2017-09-05T15:09:19Z</time>
      </trkpt>
      <trkpt lat="43.29567" lon="6.49146">
        <ele>195</ele>
        <time>2017-09-05T15:09:24Z</time>
      </trkpt>
      <trkpt lat="43.29526" lon="6.49129">
        <ele>193</ele>
        <time>2017-09-05T15:09:29Z</time>
      </trkpt>
      <trkpt lat="43.29483" lon="6.4913">
        <ele>191</ele>
        <time>2017-09-05T15:09:34Z</time>
      </trkpt>
      <trkpt lat="43.29444" lon="6.49155">
        <ele>188</ele>
        <time>2017-09-05T15:09:39Z</time>
      </trkpt>
      <trkpt lat="43.29409" lon="6.49189">
        <ele>187</ele>
        <time>2017-09-05T15:09:44Z</time>
      </trkpt>
      <trkpt lat="43.29371" lon="6.4921">
        <ele>186</ele>
        <time>2017-09-05T15:09:49Z</time>
      </trkpt>
      <trkpt lat="43.29332" lon="6.49196">
        <ele>185</ele>
        <time>2017-09-05T15:09:54Z</time>
      </trkpt>
      <trkpt lat="43.29295" lon="6.49172">
        <ele>181</ele>
        <time>2017-09-05T15:09:59Z</time>
      </trkpt>
      <trkpt lat="43.29251" lon="6.49169">
        <ele>177</ele>
        <time>2017-09-05T15:10:05Z</time>
      </trkpt>
      <trkpt lat="43.29207" lon="6.49191">
        <ele>176</ele>
        <time>2017-09-05T15:10:11Z</time>
      </trkpt>
      <trkpt lat="43.29183" lon="6.49223">
        <ele>170</ele>
        <time>2017-09-05T15:10:19Z</time>
      </trkpt>
      <trkpt lat="43.29227" lon="6.49238">
        <ele>168</ele>
        <time>2017-09-05T15:10:27Z</time>
      </trkpt>
      <trkpt lat="43.29243" lon="6.49288">
        <ele>165</ele>
        <time>2017-09-05T15:10:33Z</time>
      </trkpt>
      <trkpt lat="43.29244" lon="6.49347">
        <ele>164</ele>
        <time>2017-09-05T15:10:39Z</time>
      </trkpt>
      <trkpt lat="43.29209" lon="6.49378">
        <ele>157</ele>
        <time>2017-09-05T15:10:47Z</time>
      </trkpt>
      <trkpt lat="43.29174" lon="6.49351">
        <ele>152</ele>
        <time>2017-09-05T15:10:54Z</time>
      </trkpt>
      <trkpt lat="43.29168" lon="6.49332">
        <ele>153</ele>
        <time>2017-09-05T15:59:21Z</time>
      </trkpt>
    </trkseg>
  </trk>
</gpx>